[[{"header":{"parameterUnit":"m.s-1","parameterCategory":1,"la1":31.0,"la2":29.5877,"lo1":-88.7671,"lo2":-86.6584,"dy":0.0162,"dx":0.0185,"nx":115,"ny":88,"refTime":"2023-06-25T18:00:00:Z","depth":0,"parameterNumber":2,"parameterNumberName":"U-component_of_WINDS"},"data":[0.0,0.0,0.0,0.0,0.0,0.0,0.0,0.0,0.0,0.0,0.0,0.0,0.0,0.0,0.0,0.0,0.0,0.0,0.0,0.0,0.0,0.0,0.0,0.0,0.0,0.0,0.0,0.0,0.0,0.0,0.0,0.0,0.0,0.0,0.0,0.0,0.0,0.0,0.0,0.0,0.0,-1.5748,-1.5836,-1.5913,-1.5913,-1.5836,-1.5659,0.0,0.0,0.0,0.0,0.0,0.0,0.0,0.0,0.0,0.0,0.0,0.0,0.0,0.0,0.0,0.0,0.0,0.0,0.0,0.0,0.0,0.0,0.0,0.0,0.0,0.0,0.0,0.0,0.0,0.0,0.0,0.0,0.0,0.0,0.0,0.0,0.0,0.0,0.0,0.0,0.0,0.0,0.0,0.0,0.0,0.0,0.0,0.0,0.0,0.0,0.0,0.0,0.0,0.0,0.0,0.0,0.0,0.0,0.0,0.0,0.0,0.0,0.0,0.0,0.0,0.0,0.0,0.0,0.0,0.0,0.0,0.0,0.0,0.0,0.0,0.0,0.0,0.0,0.0,0.0,0.0,0.0,0.0,0.0,0.0,0.0,0.0,0.0,0.0,0.0,0.0,0.0,0.0,0.0,0.0,0.0,0.0,0.0,0.0,0.0,0.0,0.0,0.0,0.0,0.0,0.0,0.0,0.0,0.0,0.0,-1.5913,-1.5792,-1.5748,-1.5659,-1.5424,0.0,0.0,0.0,0.0,0.0,0.0,0.0,0.0,0.0,0.0,0.0,0.0,0.0,0.0,0.0,0.0,0.0,0.0,0.0,0.0,0.0,0.0,0.0,0.0,0.0,0.0,0.0,0.0,0.0,0.0,0.0,0.0,0.0,0.0,0.0,0.0,0.0,0.0,0.0,0.0,0.0,0.0,0.0,0.0,0.0,0.0,0.0,0.0,0.0,0.0,0.0,0.0,0.0,0.0,0.0,0.0,0.0,0.0,0.0,0.0,0.0,0.0,0.0,0.0,0.0,0.0,0.0,0.0,0.0,0.0,0.0,0.0,0.0,0.0,0.0,0.0,0.0,0.0,0.0,0.0,0.0,0.0,0.0,0.0,0.0,0.0,0.0,0.0,0.0,0.0,0.0,0.0,0.0,0.0,0.0,0.0,0.0,0.0,0.0,0.0,0.0,0.0,0.0,0.0,0.0,0.0,0.0,0.0,0.0,0.0,-1.576,-1.5715,-1.5525,-1.53,-1.504,0.0,0.0,0.0,0.0,0.0,0.0,0.0,0.0,0.0,0.0,0.0,0.0,0.0,0.0,0.0,0.0,0.0,0.0,0.0,0.0,0.0,0.0,0.0,0.0,0.0,0.0,0.0,0.0,0.0,0.0,0.0,0.0,0.0,0.0,0.0,0.0,0.0,0.0,0.0,0.0,0.0,0.0,0.0,0.0,0.0,0.0,0.0,0.0,0.0,0.0,0.0,0.0,0.0,0.0,0.0,0.0,0.0,0.0,0.0,0.0,0.0,0.0,0.0,0.0,0.0,0.0,0.0,0.0,0.0,0.0,0.0,0.0,0.0,0.0,0.0,0.0,0.0,0.0,0.0,0.0,0.0,0.0,0.0,0.0,0.0,0.0,0.0,0.0,0.0,0.0,0.0,0.0,0.0,0.0,0.0,0.0,0.0,0.0,0.0,0.0,0.0,0.0,0.0,0.0,0.0,0.0,0.0,0.0,0.0,0.0,-1.5715,-1.5614,-1.539,-1.5131,-1.4789,-1.4419,0.0,0.0,0.0,0.0,0.0,0.0,0.0,0.0,0.0,0.0,0.0,0.0,0.0,0.0,0.0,0.0,0.0,0.0,0.0,0.0,0.0,0.0,0.0,0.0,0.0,0.0,0.0,0.0,0.0,0.0,0.0,0.0,0.0,0.0,0.0,0.0,0.0,0.0,0.0,0.0,0.0,0.0,0.0,0.0,0.0,0.0,0.0,0.0,0.0,0.0,0.0,0.0,0.0,0.0,0.0,0.0,0.0,0.0,0.0,0.0,0.0,0.0,0.0,0.0,0.0,0.0,0.0,0.0,0.0,0.0,0.0,0.0,0.0,0.0,0.0,0.0,0.0,0.0,0.0,0.0,0.0,0.0,0.0,0.0,0.0,0.0,0.0,0.0,0.0,0.0,0.0,0.0,0.0,0.0,0.0,0.0,0.0,0.0,0.0,0.0,0.0,0.0,0.0,0.0,0.0,0.0,0.0,0.0,0.0,-1.5924,-1.5804,-1.5645,-1.5223,-1.4762,-1.4276,0.0,0.0,0.0,0.0,0.0,0.0,0.0,0.0,0.0,0.0,0.0,0.0,0.0,0.0,0.0,0.0,0.0,0.0,0.0,0.0,0.0,0.0,0.0,0.0,0.0,0.0,0.0,0.0,0.0,0.0,0.0,0.0,0.0,0.0,0.0,0.0,0.0,0.0,0.0,0.0,0.0,0.0,0.0,0.0,0.0,0.0,0.0,0.0,0.0,0.0,0.0,0.0,0.0,0.0,0.0,0.0,0.0,0.0,0.0,0.0,0.0,0.0,0.0,0.0,0.0,0.0,0.0,0.0,0.0,0.0,0.0,0.0,0.0,0.0,0.0,0.0,0.0,0.0,0.0,0.0,0.0,0.0,0.0,0.0,0.0,0.0,0.0,0.0,0.0,0.0,0.0,0.0,0.0,0.0,0.0,0.0,0.0,0.0,0.0,0.0,0.0,0.0,0.0,0.0,0.0,0.0,0.0,0.0,0.0,-1.7082,-1.7394,-1.6678,-1.6033,-1.5482,-1.4617,0.0,0.0,0.0,0.0,0.0,0.0,0.0,0.0,0.0,0.0,0.0,0.0,0.0,0.0,0.0,0.0,0.0,0.0,0.0,0.0,0.0,0.0,0.0,0.0,0.0,0.0,0.0,0.0,0.0,0.0,0.0,0.0,0.0,0.0,0.0,0.0,0.0,0.0,0.0,0.0,0.0,0.0,0.0,0.0,0.0,0.0,0.0,0.0,0.0,0.0,0.0,0.0,0.0,0.0,0.0,0.0,0.0,0.0,0.0,0.0,0.0,0.0,0.0,0.0,0.0,0.0,0.0,0.0,0.0,0.0,0.0,0.0,0.0,0.0,0.0,0.0,0.0,0.0,0.0,0.0,0.0,0.0,0.0,0.0,0.0,0.0,0.0,0.0,0.0,0.0,0.0,0.0,0.0,0.0,0.0,0.0,0.0,0.0,0.0,0.0,0.0,0.0,0.0,0.0,0.0,0.0,0.0,0.0,0.0,-1.8142,-1.8278,-1.7725,-1.7034,-1.6209,-1.5402,0.0,0.0,0.0,0.0,0.0,0.0,0.0,0.0,0.0,0.0,0.0,0.0,0.0,0.0,0.0,0.0,0.0,0.0,0.0,0.0,0.0,0.0,0.0,0.0,0.0,0.0,0.0,0.0,0.0,0.0,0.0,0.0,0.0,0.0,0.0,0.0,0.0,0.0,0.0,0.0,0.0,0.0,0.0,0.0,0.0,0.0,0.0,0.0,0.0,0.0,0.0,0.0,0.0,0.0,0.0,0.0,0.0,0.0,0.0,0.0,0.0,0.0,0.0,0.0,0.0,0.0,0.0,0.0,0.0,0.0,0.0,0.0,0.0,0.0,0.0,0.0,0.0,0.0,0.0,0.0,0.0,0.0,0.0,0.0,0.0,0.0,0.0,0.0,0.0,0.0,0.0,0.0,0.0,0.0,0.0,0.0,0.0,0.0,0.0,0.0,0.0,0.0,0.0,0.0,0.0,0.0,0.0,0.0,-1.9231,-1.948,-1.9409,-1.9021,-1.8333,-1.7359,-1.6526,0.0,0.0,0.0,0.0,0.0,0.0,0.0,0.0,0.0,0.0,0.0,0.0,0.0,0.0,0.0,0.0,0.0,0.0,0.0,0.0,0.0,0.0,0.0,0.0,0.0,0.0,0.0,0.0,0.0,0.0,0.0,0.0,0.0,0.0,0.0,0.0,0.0,0.0,0.0,0.0,0.0,0.0,0.0,0.0,0.0,0.0,0.0,0.0,0.0,0.0,0.0,0.0,0.0,0.0,0.0,0.0,0.0,0.0,0.0,0.0,0.0,0.0,0.0,0.0,0.0,0.0,0.0,0.0,0.0,0.0,0.0,0.0,0.0,0.0,0.0,0.0,0.0,0.0,0.0,0.0,0.0,0.0,0.0,0.0,0.0,0.0,0.0,0.0,0.0,0.0,0.0,0.0,0.0,0.0,0.0,0.0,0.0,0.0,0.0,0.0,0.0,0.0,0.0,0.0,0.0,0.0,0.0,-2.0762,-2.1194,-2.1552,-2.1886,-2.1105,-2.0407,-1.9728,-1.8086,0.0,0.0,0.0,0.0,0.0,0.0,0.0,0.0,0.0,0.0,0.0,0.0,0.0,0.0,0.0,0.0,0.0,0.0,0.0,0.0,0.0,0.0,0.0,0.0,0.0,0.0,0.0,0.0,0.0,0.0,0.0,0.0,0.0,0.0,0.0,0.0,0.0,0.0,0.0,0.0,0.0,0.0,0.0,0.0,0.0,0.0,0.0,0.0,0.0,0.0,0.0,0.0,0.0,0.0,0.0,0.0,0.0,0.0,0.0,0.0,0.0,0.0,0.0,0.0,0.0,0.0,0.0,0.0,0.0,0.0,0.0,0.0,0.0,0.0,0.0,0.0,0.0,0.0,0.0,0.0,0.0,0.0,0.0,0.0,0.0,0.0,0.0,0.0,0.0,0.0,0.0,0.0,0.0,0.0,0.0,0.0,0.0,0.0,0.0,0.0,0.0,0.0,0.0,0.0,0.0,0.0,-2.1087,-2.2921,-2.361,-2.4207,-2.4771,-2.4222,-2.329,-2.1955,-1.927,0.0,0.0,0.0,0.0,0.0,0.0,0.0,0.0,0.0,0.0,0.0,0.0,0.0,0.0,0.0,0.0,0.0,0.0,0.0,0.0,0.0,0.0,0.0,0.0,0.0,0.0,0.0,0.0,0.0,0.0,0.0,0.0,0.0,0.0,0.0,0.0,0.0,0.0,0.0,0.0,0.0,0.0,0.0,0.0,0.0,0.0,0.0,0.0,0.0,0.0,0.0,0.0,0.0,0.0,0.0,0.0,0.0,0.0,0.0,0.0,0.0,0.0,0.0,0.0,0.0,0.0,0.0,0.0,0.0,0.0,0.0,0.0,0.0,0.0,0.0,0.0,0.0,0.0,0.0,0.0,0.0,0.0,0.0,0.0,0.0,0.0,0.0,0.0,0.0,0.0,0.0,0.0,0.0,0.0,0.0,0.0,0.0,0.0,0.0,0.0,0.0,0.0,0.0,0.0,0.0,0.0,-2.301,-2.5012,-2.6021,-2.6751,-2.7252,-2.6987,-2.5795,-2.3658,0.0,0.0,0.0,0.0,0.0,0.0,0.0,0.0,0.0,0.0,0.0,0.0,0.0,0.0,0.0,0.0,0.0,0.0,0.0,0.0,0.0,0.0,0.0,0.0,0.0,0.0,0.0,0.0,0.0,0.0,0.0,0.0,0.0,0.0,0.0,0.0,0.0,0.0,0.0,0.0,0.0,0.0,0.0,0.0,0.0,0.0,0.0,0.0,0.0,0.0,0.0,0.0,0.0,0.0,0.0,0.0,0.0,0.0,0.0,0.0,0.0,0.0,0.0,0.0,0.0,0.0,0.0,0.0,0.0,0.0,0.0,0.0,0.0,0.0,0.0,0.0,0.0,0.0,0.0,0.0,0.0,0.0,0.0,0.0,0.0,0.0,0.0,0.0,0.0,0.0,0.0,0.0,0.0,0.0,0.0,0.0,0.0,0.0,0.0,0.0,0.0,0.0,0.0,0.0,0.0,0.0,0.0,-2.5045,-2.7052,-2.8304,-2.887,-2.8886,-2.8511,-2.7049,-2.4387,0.0,0.0,0.0,0.0,0.0,0.0,0.0,0.0,0.0,0.0,0.0,0.0,0.0,0.0,0.0,0.0,0.0,0.0,0.0,0.0,0.0,0.0,0.0,0.0,0.0,0.0,0.0,0.0,0.0,0.0,0.0,0.0,0.0,0.0,0.0,0.0,0.0,0.0,0.0,0.0,0.0,0.0,0.0,0.0,0.0,0.0,0.0,0.0,0.0,0.0,0.0,0.0,0.0,0.0,0.0,0.0,0.0,0.0,0.0,0.0,0.0,0.0,0.0,0.0,0.0,0.0,0.0,0.0,0.0,0.0,0.0,0.0,0.0,0.0,0.0,0.0,0.0,0.0,0.0,0.0,0.0,0.0,0.0,0.0,0.0,0.0,0.0,0.0,0.0,0.0,0.0,0.0,0.0,0.0,0.0,0.0,0.0,0.0,0.0,0.0,0.0,0.0,0.0,0.0,0.0,0.0,-2.4379,-2.6909,-2.9876,-3.1142,-3.214,-3.2983,-3.1393,-2.9355,-2.6836,0.0,0.0,0.0,0.0,0.0,0.0,0.0,0.0,0.0,0.0,0.0,0.0,0.0,0.0,0.0,0.0,0.0,0.0,0.0,0.0,0.0,0.0,0.0,0.0,0.0,0.0,0.0,0.0,0.0,0.0,0.0,0.0,0.0,0.0,0.0,0.0,0.0,0.0,0.0,0.0,0.0,0.0,0.0,0.0,0.0,0.0,0.0,0.0,0.0,0.0,0.0,0.0,0.0,0.0,0.0,0.0,0.0,0.0,0.0,0.0,0.0,0.0,0.0,0.0,0.0,0.0,0.0,0.0,0.0,0.0,0.0,0.0,0.0,0.0,0.0,0.0,0.0,0.0,0.0,0.0,0.0,0.0,0.0,0.0,0.0,0.0,0.0,0.0,0.0,0.0,0.0,0.0,0.0,0.0,0.0,0.0,0.0,0.0,0.0,0.0,0.0,0.0,0.0,0.0,0.0,-2.3386,-2.5971,-2.884,-3.2077,-3.3512,-3.4673,-3.544,-3.3252,-3.0973,-2.8829,0.0,0.0,0.0,0.0,0.0,0.0,0.0,0.0,0.0,0.0,0.0,0.0,0.0,0.0,0.0,0.0,0.0,0.0,0.0,0.0,0.0,0.0,0.0,0.0,0.0,0.0,0.0,0.0,0.0,0.0,0.0,0.0,0.0,0.0,0.0,0.0,0.0,0.0,0.0,0.0,0.0,0.0,0.0,0.0,0.0,0.0,0.0,0.0,0.0,0.0,0.0,0.0,0.0,0.0,0.0,0.0,0.0,0.0,0.0,0.0,0.0,0.0,0.0,0.0,0.0,0.0,0.0,0.0,0.0,0.0,0.0,0.0,0.0,0.0,0.0,0.0,0.0,0.0,0.0,0.0,0.0,0.0,0.0,0.0,0.0,0.0,0.0,0.0,0.0,0.0,0.0,0.0,0.0,0.0,0.0,0.0,0.0,0.0,0.0,0.0,0.0,0.0,0.0,0.0,0.0,0.0,-2.7989,-3.0953,-3.3204,-3.5038,-3.5817,-3.5445,-3.3327,-3.1412,-2.9691,0.0,0.0,0.0,0.0,0.0,0.0,0.0,0.0,0.0,0.0,0.0,0.0,0.0,0.0,0.0,0.0,0.0,0.0,0.0,0.0,0.0,0.0,0.0,0.0,0.0,0.0,0.0,0.0,0.0,0.0,0.0,0.0,0.0,0.0,0.0,0.0,0.0,0.0,0.0,0.0,0.0,0.0,0.0,0.0,0.0,0.0,0.0,0.0,0.0,0.0,0.0,0.0,0.0,0.0,0.0,0.0,0.0,0.0,0.0,0.0,0.0,0.0,0.0,0.0,0.0,0.0,0.0,0.0,0.0,0.0,0.0,0.0,0.0,0.0,0.0,0.0,0.0,0.0,0.0,0.0,0.0,0.0,0.0,0.0,0.0,0.0,0.0,0.0,0.0,0.0,0.0,0.0,0.0,0.0,0.0,0.0,0.0,0.0,0.0,0.0,0.0,0.0,0.0,0.0,0.0,0.0,-2.9082,-3.202,-3.4673,-3.7429,-3.8175,-3.6785,-3.5082,-3.2983,-3.035,0.0,0.0,0.0,0.0,0.0,0.0,0.0,0.0,0.0,0.0,0.0,0.0,0.0,0.0,0.0,0.0,0.0,0.0,0.0,0.0,0.0,0.0,0.0,0.0,0.0,0.0,0.0,0.0,0.0,0.0,0.0,0.0,0.0,0.0,0.0,0.0,0.0,0.0,0.0,0.0,0.0,0.0,0.0,0.0,0.0,0.0,0.0,0.0,0.0,0.0,0.0,0.0,0.0,0.0,0.0,0.0,0.0,0.0,0.0,0.0,0.0,0.0,0.0,0.0,0.0,0.0,0.0,0.0,0.0,0.0,0.0,0.0,0.0,0.0,0.0,0.0,0.0,0.0,0.0,0.0,0.0,0.0,0.0,0.0,0.0,0.0,0.0,0.0,0.0,0.0,0.0,0.0,0.0,0.0,0.0,0.0,0.0,0.0,0.0,0.0,0.0,0.0,0.0,0.0,0.0,0.0,-3.0197,-3.3373,-3.678,-3.9539,-4.0153,-3.852,-3.6797,-3.4463,0.0,0.0,0.0,0.0,0.0,0.0,0.0,0.0,0.0,0.0,0.0,0.0,0.0,0.0,0.0,0.0,0.0,0.0,0.0,0.0,0.0,0.0,0.0,0.0,0.0,0.0,0.0,0.0,0.0,0.0,0.0,0.0,0.0,0.0,0.0,0.0,0.0,0.0,0.0,0.0,0.0,0.0,0.0,0.0,0.0,0.0,0.0,0.0,0.0,0.0,0.0,0.0,0.0,0.0,0.0,0.0,0.0,0.0,0.0,0.0,0.0,0.0,0.0,0.0,0.0,0.0,0.0,0.0,0.0,0.0,0.0,0.0,0.0,0.0,0.0,0.0,0.0,0.0,0.0,0.0,0.0,0.0,0.0,0.0,0.0,0.0,0.0,0.0,0.0,0.0,0.0,0.0,0.0,0.0,0.0,0.0,0.0,0.0,0.0,0.0,0.0,0.0,0.0,0.0,0.0,0.0,0.0,-3.1495,-3.5144,-3.9471,-4.1206,-4.149,-4.0472,-3.8288,-3.5678,0.0,0.0,0.0,0.0,0.0,0.0,0.0,0.0,0.0,0.0,0.0,0.0,0.0,0.0,0.0,0.0,0.0,0.0,0.0,0.0,0.0,0.0,0.0,0.0,0.0,0.0,0.0,0.0,0.0,0.0,0.0,0.0,0.0,0.0,0.0,0.0,0.0,0.0,0.0,0.0,0.0,0.0,0.0,0.0,0.0,0.0,0.0,0.0,0.0,0.0,0.0,0.0,0.0,0.0,0.0,0.0,0.0,0.0,0.0,0.0,0.0,0.0,0.0,0.0,0.0,0.0,0.0,0.0,0.0,0.0,0.0,0.0,0.0,0.0,0.0,0.0,0.0,0.0,0.0,0.0,0.0,0.0,0.0,0.0,0.0,0.0,0.0,0.0,0.0,0.0,0.0,0.0,0.0,0.0,0.0,0.0,0.0,0.0,0.0,0.0,0.0,0.0,0.0,0.0,0.0,0.0,0.0,-3.5339,-3.7661,-3.9627,-4.1309,-4.1656,-4.0563,-3.8427,-3.5748,-3.2564,0.0,0.0,0.0,0.0,0.0,0.0,0.0,0.0,0.0,0.0,0.0,0.0,0.0,0.0,0.0,0.0,0.0,0.0,0.0,0.0,0.0,0.0,0.0,0.0,0.0,0.0,0.0,0.0,0.0,0.0,0.0,0.0,0.0,0.0,0.0,0.0,0.0,0.0,0.0,0.0,0.0,0.0,0.0,0.0,0.0,0.0,0.0,0.0,0.0,0.0,0.0,0.0,0.0,0.0,0.0,0.0,0.0,0.0,0.0,0.0,0.0,0.0,0.0,0.0,0.0,0.0,0.0,0.0,0.0,0.0,0.0,0.0,0.0,0.0,0.0,0.0,0.0,0.0,0.0,0.0,0.0,0.0,0.0,0.0,0.0,0.0,0.0,0.0,0.0,0.0,0.0,0.0,0.0,0.0,0.0,0.0,0.0,0.0,0.0,0.0,0.0,0.0,0.0,0.0,0.0,0.0,-3.7053,-3.9253,-4.1133,-4.279,-4.3298,-4.2509,-4.0389,-3.7556,-3.4023,0.0,0.0,0.0,0.0,0.0,0.0,0.0,0.0,0.0,0.0,0.0,0.0,0.0,0.0,0.0,0.0,0.0,0.0,0.0,0.0,0.0,0.0,0.0,0.0,0.0,0.0,0.0,0.0,0.0,0.0,0.0,0.0,0.0,0.0,0.0,0.0,0.0,0.0,0.0,0.0,0.0,0.0,0.0,0.0,0.0,0.0,0.0,0.0,0.0,0.0,0.0,0.0,0.0,0.0,0.0,0.0,0.0,0.0,0.0,0.0,0.0,0.0,0.0,0.0,0.0,0.0,0.0,0.0,0.0,0.0,0.0,0.0,0.0,0.0,0.0,0.0,0.0,0.0,0.0,0.0,0.0,0.0,0.0,0.0,0.0,0.0,0.0,0.0,0.0,0.0,0.0,0.0,0.0,0.0,0.0,0.0,0.0,0.0,0.0,0.0,0.0,0.0,0.0,0.0,0.0,0.0,0.0,-4.0232,-4.3762,-4.539,-4.6033,-4.5641,-4.3551,-4.0542,-3.6488,0.0,0.0,0.0,0.0,0.0,0.0,0.0,0.0,0.0,0.0,0.0,0.0,0.0,0.0,0.0,0.0,0.0,0.0,0.0,0.0,0.0,0.0,0.0,0.0,0.0,0.0,0.0,0.0,0.0,0.0,0.0,0.0,0.0,0.0,0.0,0.0,0.0,0.0,0.0,0.0,0.0,0.0,0.0,0.0,0.0,0.0,0.0,0.0,0.0,0.0,0.0,0.0,0.0,0.0,0.0,0.0,0.0,0.0,0.0,0.0,0.0,0.0,0.0,0.0,0.0,0.0,0.0,0.0,0.0,0.0,0.0,0.0,0.0,0.0,0.0,0.0,0.0,0.0,0.0,0.0,0.0,0.0,0.0,0.0,0.0,0.0,0.0,0.0,0.0,0.0,0.0,0.0,0.0,0.0,0.0,0.0,0.0,0.0,0.0,0.0,0.0,0.0,0.0,0.0,0.0,0.0,-3.9885,-4.2883,-4.6276,-4.7478,-4.7306,-4.5801,-4.3643,-4.0585,-3.6589,0.0,0.0,0.0,0.0,0.0,0.0,0.0,0.0,0.0,0.0,0.0,0.0,0.0,0.0,0.0,0.0,0.0,0.0,0.0,0.0,0.0,0.0,0.0,0.0,0.0,0.0,0.0,0.0,0.0,0.0,0.0,0.0,0.0,0.0,0.0,0.0,0.0,0.0,0.0,0.0,0.0,0.0,0.0,0.0,0.0,0.0,0.0,0.0,0.0,0.0,0.0,0.0,0.0,0.0,0.0,0.0,0.0,0.0,0.0,0.0,0.0,0.0,0.0,0.0,0.0,0.0,0.0,0.0,0.0,0.0,0.0,0.0,0.0,0.0,0.0,0.0,0.0,0.0,0.0,0.0,0.0,0.0,0.0,0.0,0.0,0.0,0.0,0.0,0.0,0.0,0.0,0.0,0.0,0.0,0.0,0.0,0.0,0.0,0.0,0.0,0.0,0.0,0.0,0.0,0.0,0.0,-4.0904,-4.3721,-4.6805,-4.7711,-4.7579,-4.6356,-4.46,-4.1882,-3.8114,0.0,0.0,0.0,0.0,0.0,0.0,0.0,0.0,0.0,0.0,0.0,0.0,0.0,0.0,0.0,0.0,0.0,0.0,0.0,0.0,0.0,0.0,0.0,0.0,0.0,0.0,0.0,0.0,0.0,0.0,0.0,0.0,0.0,0.0,0.0,0.0,0.0,0.0,0.0,0.0,0.0,0.0,0.0,0.0,0.0,0.0,0.0,0.0,-2.8912,0.0,0.0,0.0,0.0,0.0,0.0,0.0,0.0,0.0,0.0,0.0,0.0,0.0,0.0,0.0,0.0,0.0,0.0,0.0,0.0,0.0,0.0,0.0,0.0,0.0,0.0,0.0,0.0,0.0,0.0,0.0,0.0,0.0,0.0,0.0,0.0,0.0,0.0,0.0,0.0,0.0,0.0,0.0,0.0,0.0,0.0,0.0,0.0,0.0,0.0,0.0,0.0,0.0,0.0,0.0,-3.5953,-3.8607,-4.1127,-4.3643,-4.6278,-4.7028,-4.7301,-4.7061,-4.5828,-4.3539,-4.0113,0.0,0.0,0.0,0.0,0.0,0.0,0.0,0.0,0.0,0.0,0.0,0.0,0.0,0.0,0.0,0.0,0.0,0.0,0.0,0.0,0.0,0.0,0.0,0.0,0.0,0.0,0.0,0.0,0.0,0.0,0.0,0.0,0.0,0.0,0.0,0.0,0.0,0.0,0.0,0.0,0.0,0.0,0.0,0.0,0.0,0.0,0.0,-3.4033,-3.1498,0.0,0.0,0.0,0.0,0.0,0.0,0.0,0.0,0.0,0.0,0.0,0.0,0.0,0.0,0.0,0.0,0.0,0.0,0.0,0.0,0.0,0.0,0.0,0.0,0.0,0.0,0.0,-1.4073,0.0,-1.1744,0.0,0.0,0.0,0.0,0.0,0.0,0.0,0.0,0.0,0.0,0.0,0.0,0.0,0.0,0.0,0.0,0.0,0.0,0.0,0.0,0.0,0.0,0.0,0.0,-3.4433,-3.7142,-4.0357,-4.2342,-4.4582,-4.7141,-4.7335,-4.7287,-4.7002,-4.5182,-4.2946,-4.0309,0.0,0.0,0.0,0.0,0.0,0.0,0.0,0.0,0.0,0.0,0.0,0.0,0.0,0.0,0.0,0.0,0.0,0.0,0.0,0.0,0.0,0.0,0.0,0.0,0.0,0.0,0.0,0.0,0.0,0.0,0.0,0.0,0.0,0.0,0.0,0.0,0.0,0.0,0.0,0.0,0.0,0.0,0.0,0.0,0.0,0.0,0.0,-3.6182,0.0,0.0,0.0,0.0,0.0,0.0,0.0,0.0,0.0,0.0,0.0,0.0,0.0,0.0,0.0,0.0,0.0,0.0,0.0,0.0,0.0,0.0,0.0,0.0,0.0,0.0,0.0,0.0,-1.3855,-1.283,-1.1922,0.0,0.0,0.0,0.0,0.0,0.0,0.0,0.0,0.0,0.0,0.0,0.0,0.0,0.0,0.0,0.0,0.0,0.0,0.0,0.0,0.0,0.0,0.0,-3.2407,-3.4642,-3.7507,-4.0896,-4.2734,-4.466,-4.6795,-4.6859,-4.6688,-4.6331,-4.4359,-4.2484,-4.0764,0.0,0.0,0.0,0.0,0.0,0.0,0.0,0.0,0.0,0.0,0.0,0.0,0.0,0.0,0.0,0.0,0.0,0.0,0.0,0.0,0.0,0.0,0.0,0.0,0.0,0.0,0.0,0.0,0.0,0.0,0.0,0.0,0.0,0.0,0.0,0.0,0.0,-3.3708,-3.5376,0.0,0.0,0.0,0.0,0.0,0.0,0.0,0.0,-3.8715,-3.7166,0.0,0.0,0.0,0.0,0.0,0.0,0.0,0.0,0.0,0.0,0.0,0.0,0.0,0.0,0.0,0.0,0.0,0.0,0.0,0.0,0.0,0.0,0.0,0.0,0.0,0.0,0.0,-1.3803,-1.2998,-1.2513,0.0,0.0,0.0,0.0,0.0,0.0,0.0,0.0,0.0,0.0,0.0,0.0,0.0,0.0,0.0,0.0,0.0,0.0,0.0,0.0,0.0,0.0,0.0,-3.2242,-3.4537,-3.7471,-4.0916,-4.2768,-4.4445,-4.6113,-4.6189,-4.6029,-4.5664,-4.3688,-4.2128,-4.1163,0.0,0.0,0.0,0.0,0.0,0.0,0.0,0.0,0.0,0.0,0.0,0.0,0.0,0.0,0.0,0.0,0.0,0.0,0.0,0.0,0.0,0.0,0.0,0.0,0.0,0.0,0.0,0.0,0.0,0.0,0.0,0.0,0.0,0.0,0.0,0.0,0.0,-3.6008,-3.779,-4.0799,-4.2981,0.0,0.0,0.0,0.0,0.0,0.0,0.0,-4.0601,-3.8996,-3.5745,0.0,0.0,0.0,0.0,0.0,0.0,0.0,0.0,0.0,0.0,0.0,0.0,0.0,0.0,0.0,0.0,0.0,0.0,0.0,0.0,0.0,0.0,0.0,0.0,0.0,-1.4043,-1.3483,-1.3119,0.0,0.0,0.0,0.0,0.0,0.0,0.0,0.0,0.0,0.0,0.0,0.0,0.0,0.0,0.0,0.0,0.0,0.0,0.0,0.0,0.0,0.0,0.0,0.0,-3.445,-3.7401,-4.0964,-4.277,-4.4505,-4.6151,-4.6143,-4.5949,-4.5557,-4.3597,-4.2059,-4.0935,-3.7045,0.0,0.0,0.0,0.0,0.0,0.0,0.0,0.0,0.0,0.0,0.0,0.0,0.0,0.0,0.0,0.0,0.0,0.0,0.0,0.0,0.0,0.0,0.0,0.0,0.0,0.0,0.0,0.0,0.0,0.0,0.0,0.0,0.0,0.0,0.0,0.0,-3.7093,-4.197,-4.4314,-4.5757,-4.6313,0.0,0.0,0.0,0.0,0.0,-4.2541,-4.2402,-4.1582,-3.932,-3.6451,0.0,0.0,0.0,0.0,0.0,0.0,0.0,0.0,0.0,0.0,0.0,0.0,0.0,0.0,0.0,0.0,0.0,0.0,0.0,0.0,0.0,0.0,0.0,0.0,-1.4923,-1.4566,-1.4495,-1.5049,-1.5581,0.0,0.0,0.0,0.0,-2.0014,0.0,0.0,0.0,0.0,0.0,0.0,0.0,0.0,0.0,0.0,0.0,0.0,0.0,0.0,0.0,0.0,0.0,-3.4235,-3.7281,-4.0879,-4.2773,-4.4511,-4.6136,-4.6137,-4.5929,-4.551,-4.3579,-4.2035,-4.0977,0.0,0.0,0.0,0.0,0.0,0.0,0.0,0.0,0.0,0.0,0.0,0.0,0.0,0.0,0.0,0.0,0.0,0.0,0.0,0.0,0.0,0.0,0.0,0.0,0.0,0.0,0.0,0.0,0.0,0.0,0.0,0.0,0.0,0.0,0.0,0.0,0.0,0.0,-4.3926,-4.5838,-4.7107,-4.7736,-4.6585,-4.5568,-4.5303,-4.4315,-4.3693,-4.4177,-4.3586,-4.2681,-4.1594,0.0,0.0,0.0,0.0,0.0,0.0,0.0,0.0,0.0,0.0,0.0,0.0,0.0,0.0,0.0,0.0,0.0,0.0,0.0,0.0,0.0,0.0,0.0,0.0,0.0,0.0,-1.5881,-1.611,-1.6666,-1.7213,-1.7687,0.0,0.0,0.0,-2.0797,-2.1583,0.0,0.0,0.0,0.0,0.0,0.0,0.0,0.0,0.0,0.0,0.0,0.0,0.0,0.0,0.0,0.0,-3.3923,-3.7102,-4.0863,-4.2761,-4.4494,-4.6084,-4.6084,-4.5875,-4.5481,-4.3503,-4.1906,-4.0738,0.0,0.0,0.0,0.0,0.0,0.0,0.0,0.0,0.0,0.0,0.0,0.0,0.0,0.0,0.0,0.0,0.0,0.0,0.0,0.0,0.0,0.0,0.0,0.0,0.0,0.0,0.0,0.0,0.0,0.0,0.0,0.0,0.0,0.0,0.0,0.0,0.0,0.0,0.0,-4.671,-4.8064,-4.8899,-4.7492,-4.653,-4.7011,-4.5392,-4.4332,-4.5329,-4.4233,-4.3142,0.0,0.0,0.0,0.0,0.0,0.0,0.0,0.0,0.0,0.0,0.0,0.0,0.0,0.0,0.0,0.0,0.0,0.0,0.0,0.0,0.0,0.0,-1.9734,-1.8495,0.0,0.0,-1.7101,-1.7202,-1.7599,-1.8155,-1.8826,-1.9494,-2.023,-2.069,0.0,-2.1588,-2.196,-2.2366,0.0,0.0,0.0,0.0,0.0,0.0,0.0,0.0,0.0,0.0,0.0,0.0,0.0,0.0,0.0,0.0,-3.6878,-4.0727,-4.2671,-4.4412,-4.6014,-4.5979,-4.5769,-4.5488,-4.3316,-4.1454,-3.9927,0.0,0.0,0.0,0.0,0.0,0.0,0.0,0.0,0.0,0.0,0.0,0.0,0.0,0.0,0.0,0.0,0.0,0.0,0.0,0.0,0.0,0.0,0.0,0.0,0.0,-2.7988,0.0,0.0,0.0,0.0,0.0,0.0,0.0,0.0,0.0,0.0,0.0,0.0,0.0,0.0,-4.9176,-5.0607,-4.9252,-4.8251,-4.8656,-4.6665,-4.5007,-4.4984,-4.4173,-4.3298,0.0,0.0,0.0,0.0,0.0,0.0,0.0,0.0,0.0,0.0,0.0,0.0,0.0,0.0,0.0,0.0,0.0,0.0,0.0,0.0,0.0,0.0,-2.0902,-1.9961,-1.9418,-1.9294,-1.9282,-1.9317,-1.9468,-2.0002,-2.036,-2.066,-2.1055,-2.1313,-2.1458,-2.165,-2.1855,-2.2127,0.0,0.0,0.0,0.0,0.0,0.0,0.0,0.0,0.0,0.0,0.0,0.0,-2.6096,-2.7558,-3.0252,-3.3004,-3.6182,-3.9724,-4.2189,-4.4024,-4.5201,-4.5551,-4.5391,-4.4672,-4.2955,-4.1106,0.0,0.0,0.0,0.0,0.0,0.0,0.0,0.0,0.0,0.0,0.0,0.0,0.0,0.0,0.0,0.0,0.0,0.0,0.0,0.0,0.0,0.0,0.0,0.0,0.0,-2.9013,-2.9543,-3.0166,0.0,0.0,0.0,0.0,0.0,0.0,0.0,0.0,0.0,0.0,0.0,0.0,0.0,-4.9278,-5.088,-4.9938,-4.8972,-4.8617,-4.7069,-4.5878,-4.567,-4.4551,-4.3502,0.0,0.0,0.0,0.0,0.0,0.0,0.0,0.0,0.0,0.0,0.0,0.0,0.0,0.0,0.0,0.0,0.0,0.0,-2.6443,-2.5436,-2.4144,-2.3046,-2.2058,-2.1186,-2.0803,-2.0893,-2.1119,-2.1192,-2.1153,-2.1773,-2.1974,-2.1898,-2.2019,-2.2068,-2.1969,-2.1969,-2.2032,-2.2248,-2.4175,0.0,0.0,0.0,0.0,0.0,0.0,0.0,0.0,0.0,0.0,-2.591,-2.6028,-2.731,-2.9735,-3.2624,-3.5641,-3.8821,-4.1489,-4.3279,-4.4131,-4.4623,-4.444,-4.3611,-4.2044,-4.029,0.0,0.0,0.0,0.0,0.0,0.0,0.0,0.0,0.0,0.0,0.0,0.0,0.0,0.0,0.0,0.0,0.0,0.0,0.0,0.0,0.0,0.0,0.0,-2.9676,-3.0229,-3.0578,-3.0927,-3.1355,-3.1761,0.0,-3.1907,0.0,0.0,0.0,0.0,0.0,0.0,0.0,0.0,0.0,0.0,-4.9107,-5.0545,-5.009,-4.9412,-4.8906,-4.7702,-4.6705,-4.6349,-4.5134,-4.3943,0.0,0.0,0.0,0.0,0.0,0.0,0.0,0.0,0.0,0.0,0.0,0.0,0.0,0.0,0.0,0.0,0.0,0.0,-2.7969,-2.6834,-2.5243,-2.404,-2.3208,-2.1875,-2.1306,-2.1394,-2.172,-2.2174,-2.2671,-2.3146,-2.351,-2.3673,-2.3464,-2.3248,-2.2842,-2.2869,-2.2869,-2.3041,-2.4751,0.0,0.0,0.0,0.0,0.0,0.0,0.0,0.0,0.0,0.0,-2.5734,-2.6713,-2.7916,-2.9379,-3.2665,-3.5696,-3.84,-4.0538,-4.2074,-4.297,-4.2852,-4.2692,-4.2481,-4.0312,-3.8559,0.0,0.0,0.0,0.0,0.0,0.0,0.0,0.0,0.0,0.0,0.0,0.0,0.0,0.0,0.0,0.0,0.0,0.0,0.0,0.0,0.0,0.0,0.0,0.0,-3.2039,-3.1794,-3.1987,-3.3021,-3.2313,-3.2072,-3.2574,0.0,0.0,0.0,0.0,0.0,0.0,0.0,0.0,0.0,0.0,-4.8813,-4.9678,-4.9618,-4.9751,-5.0449,-4.8968,-4.7449,-4.6672,-4.5911,-4.4966,-4.3649,-4.1651,-4.0262,0.0,0.0,0.0,0.0,0.0,0.0,0.0,0.0,0.0,0.0,0.0,0.0,0.0,0.0,0.0,-2.8254,-2.7415,-2.6175,-2.5253,-2.4638,-2.3936,-2.3771,-2.4013,-2.4583,-2.4895,-2.5038,-2.5023,-2.4769,-2.4393,-2.3639,-2.3043,-2.2684,-2.2577,-2.2883,-2.3595,-2.6298,0.0,0.0,0.0,0.0,0.0,0.0,0.0,0.0,0.0,0.0,-2.652,-2.6736,-2.763,-2.919,-3.2158,-3.4786,-3.6907,-3.958,-4.1212,-4.1779,-4.2101,-4.1751,-4.0645,-3.9435,-3.7746,-3.5587,0.0,0.0,0.0,0.0,0.0,0.0,0.0,0.0,0.0,0.0,0.0,0.0,0.0,0.0,0.0,0.0,0.0,0.0,0.0,0.0,0.0,0.0,0.0,0.0,-3.391,-3.4171,-3.4623,-3.3872,-3.3566,-3.4122,-3.5057,0.0,0.0,0.0,0.0,0.0,0.0,0.0,-4.5189,0.0,-4.7889,-4.8713,-4.8764,-4.8619,-4.8449,-4.7644,-4.677,-4.5878,-4.5217,-4.4437,-4.3318,-4.2154,-4.1215,-4.0744,0.0,0.0,0.0,0.0,0.0,0.0,0.0,0.0,0.0,0.0,0.0,0.0,0.0,0.0,-2.8999,-2.8028,-2.706,-2.6298,-2.5767,-2.5371,-2.5434,-2.5824,-2.6465,-2.6717,-2.6715,-2.6512,-2.6092,-2.5384,-2.4449,-2.3817,-2.3437,-2.335,-2.408,-2.5633,-2.8375,-3.0655,0.0,0.0,0.0,0.0,0.0,0.0,0.0,0.0,0.0,-2.7561,-2.772,-2.8392,-2.9606,-3.2338,-3.4497,-3.603,-3.8646,-3.9975,-4.0032,-4.0465,-3.996,-3.8548,-3.779,-3.634,-3.4111,0.0,0.0,0.0,0.0,-2.8607,0.0,0.0,0.0,0.0,0.0,0.0,0.0,0.0,0.0,0.0,0.0,0.0,0.0,0.0,0.0,0.0,0.0,0.0,0.0,0.0,-3.5816,-3.5846,-3.5083,-3.4789,-3.5403,-3.6514,-3.748,-3.8103,0.0,0.0,0.0,0.0,0.0,0.0,-4.6291,-4.7201,-4.7786,-4.8041,-4.795,-4.7336,-4.7107,-4.6658,-4.5712,-4.5217,-4.4578,-4.3568,-4.2841,-4.2184,-4.1674,-4.1506,-4.1571,-4.1862,-4.1613,-4.1111,-4.0262,0.0,0.0,0.0,0.0,0.0,0.0,0.0,0.0,-3.0583,-2.9079,-2.7985,-2.7136,-2.6531,-2.5947,-2.5955,-2.6357,-2.6965,-2.7387,-2.7485,-2.7661,-2.7371,-2.6941,-2.6391,-2.5796,-2.5379,-2.5621,-2.6999,-2.9246,-3.0989,-3.2613,-3.4139,-3.4904,-3.5292,-3.4635,-3.2111,-3.0896,-3.1029,-3.0051,-2.9229,-2.8845,-2.9879,-3.0539,-3.0797,-3.3347,-3.5209,-3.6202,-3.7657,-3.8163,-3.7634,-3.7511,-3.7103,-3.6219,-3.503,-3.3944,-3.2943,0.0,0.0,0.0,0.0,-2.8273,0.0,0.0,0.0,0.0,0.0,0.0,0.0,0.0,0.0,0.0,0.0,0.0,0.0,0.0,0.0,0.0,0.0,0.0,0.0,0.0,-3.6536,-3.6739,-3.572,-3.5368,-3.6221,-3.7476,-3.8755,0.0,0.0,0.0,0.0,0.0,-4.4399,-4.4469,-4.5863,-4.6906,-4.6945,-4.7584,-4.799,-4.799,-4.7913,-4.752,-4.656,-4.6183,-4.5729,-4.467,-4.3681,0.0,0.0,0.0,0.0,0.0,0.0,0.0,0.0,0.0,0.0,0.0,0.0,0.0,0.0,0.0,0.0,-3.1766,-3.0769,-2.9934,-2.9388,-2.8892,-2.8678,-2.8799,-2.9222,-2.9987,-3.0369,-3.0235,-2.9492,-2.8759,-2.7944,-2.6565,-2.5749,-2.5561,-2.703,-2.8879,-3.0843,-3.2408,-3.3671,-3.4664,-3.4939,-3.5154,-3.526,-3.3648,-3.2399,-3.1622,-3.1099,-3.0328,-2.9462,-3.0081,-3.0585,-3.0926,-3.3188,-3.4685,-3.543,-3.6506,-3.704,-3.6958,-3.6485,-3.5817,-3.4988,-3.4343,-3.3219,-3.1479,-2.9954,0.0,0.0,-2.8783,-2.8241,0.0,0.0,0.0,0.0,0.0,0.0,0.0,0.0,0.0,0.0,0.0,0.0,0.0,0.0,0.0,0.0,0.0,0.0,0.0,0.0,-3.732,-3.678,-3.6772,-3.7005,-3.75,-3.8591,-3.9817,-4.1101,-4.2159,-4.2889,-4.3235,-4.388,-4.4542,-4.5137,-4.5678,-4.6026,-4.6026,-4.6257,-4.6432,-4.6432,-4.6359,-4.6167,-4.584,-4.5621,-4.5369,-4.4933,-4.4448,-4.4111,-4.3943,-4.341,-4.3232,-4.3955,-4.3974,-4.3655,-4.2843,-4.2591,-4.2211,-4.1297,-4.1144,-4.1227,-4.1568,-4.1725,-4.1897,-3.2593,-3.1795,-3.1216,-3.0759,-3.0487,-3.0542,-3.0799,-3.1163,-3.1874,-3.2084,-3.1832,-3.097,-3.0015,-2.9129,-2.767,-2.6935,-2.6908,-2.8608,-3.0465,-3.2261,-3.3481,-3.4486,-3.536,-3.5316,-3.5473,-3.5676,-3.4881,-3.391,-3.278,-3.2152,-3.142,-3.0597,-3.0891,-3.1217,-3.1601,-3.3289,-3.4432,-3.5053,-3.5597,-3.5826,-3.5758,-3.5114,-3.4347,-3.358,-3.2783,-3.1689,-3.0195,-2.8901,-2.832,0.0,-2.8197,0.0,0.0,0.0,0.0,0.0,0.0,0.0,0.0,0.0,0.0,0.0,0.0,0.0,0.0,0.0,0.0,0.0,0.0,0.0,0.0,-3.7897,-3.7837,-3.725,-3.7791,-3.8329,-3.857,-3.9863,-4.1071,-4.2053,-4.3239,-4.3999,-4.4056,-4.4422,-4.4898,-4.5491,-4.5568,-4.5568,-4.5586,-4.5586,-4.5586,-4.5586,-4.555,-4.5475,-4.5438,-4.5342,-4.522,-4.5125,-4.4943,-4.4621,-4.417,-4.3749,-4.3649,-4.4254,-4.4453,-4.4338,-4.376,-4.359,-4.3352,-4.2597,-4.2458,-4.2516,-4.2768,-4.29,-4.3031,-3.3108,-3.209,-3.182,-3.1433,-3.1179,-3.1527,-3.1754,-3.198,-3.2428,-3.2521,-3.2342,-3.1946,-3.1244,-3.0378,-2.9482,-2.9149,-2.9588,-3.0487,-3.1833,-3.3449,-3.4154,-3.5085,-3.615,-3.6165,-3.6133,-3.5973,-3.5737,-3.5262,-3.4427,-3.3185,-3.2542,-3.2407,-3.2239,-3.2367,-3.2725,-3.3703,-3.4479,-3.509,-3.4873,-3.4518,-3.4073,-3.3422,-3.2696,-3.1968,-3.0404,-2.9386,-2.9019,-2.7502,-2.6697,-2.6913,-2.7138,0.0,0.0,0.0,0.0,0.0,0.0,0.0,0.0,0.0,0.0,0.0,0.0,0.0,0.0,0.0,0.0,0.0,0.0,0.0,-3.7667,-3.8104,-3.8207,-3.797,-3.8688,-3.9263,-3.9511,-4.1141,-4.2506,-4.2906,-4.3961,-4.4518,-4.4067,-4.4803,-4.54,-4.5514,-4.5495,-4.5532,-4.5586,-4.5586,-4.5586,-4.5586,-4.5531,-4.5513,-4.5475,-4.54,-4.5323,-4.5184,-4.5011,-4.4638,-4.4053,-4.3726,-4.3802,-4.4525,-4.4582,-4.4492,-4.4136,-4.424,-4.4095,-4.3137,-4.29,-4.2938,-4.3049,-4.3141,-4.3178,-3.4471,-3.4017,-3.3715,-3.3513,-3.3446,-3.3513,-3.3662,-3.3877,-3.4259,-3.4193,-3.3781,-3.3091,-3.2143,-3.1031,-2.9914,-2.9658,-3.0183,-3.1045,-3.2344,-3.3946,-3.4508,-3.5135,-3.5816,-3.5816,-3.5816,-3.5767,-3.5589,-3.5449,-3.516,-3.3873,-3.2976,-3.2497,-3.23,-3.2287,-3.2602,-3.3459,-3.3826,-3.3645,-3.3551,-3.3246,-3.2666,-3.2154,-3.1568,-3.0938,-2.9884,-2.8902,-2.8127,-2.6885,-2.6396,-2.6665,-2.6413,0.0,-2.6029,0.0,0.0,0.0,0.0,-2.3901,-2.3753,-2.3636,0.0,0.0,0.0,-2.6062,0.0,0.0,0.0,0.0,-3.5243,-3.6487,-3.8096,-3.8332,-3.862,-3.907,-3.9325,-4.0008,-4.129,-4.2026,-4.2751,-4.3596,-4.4039,-4.429,-4.4297,-4.4832,-4.5282,-4.5419,-4.5476,-4.5532,-4.5586,-4.5586,-4.5586,-4.5586,-4.5605,-4.5357,-4.4741,-4.4628,-4.4363,-4.3637,-4.3187,-4.3006,-4.3247,-4.312,-4.3227,-4.3922,-4.4018,-4.3931,-4.3936,-4.4163,-4.4126,-4.3452,-4.3269,-4.3305,-4.3358,-4.3393,-4.3393,-3.5213,-3.5082,-3.4735,-3.4616,-3.4601,-3.4683,-3.4817,-3.4898,-3.5228,-3.5016,-3.4587,-3.3897,-3.2885,-3.1785,-3.0506,-3.0184,-3.0658,-3.137,-3.2471,-3.3811,-3.4317,-3.4854,-3.5314,-3.5444,-3.5509,-3.5494,-3.5205,-3.51,-3.507,-3.3754,-3.2901,-3.2497,-3.2201,-3.2094,-3.2247,-3.2911,-3.3038,-3.264,-3.2413,-3.2121,-3.1682,-3.1026,-3.0497,-3.0078,-2.9042,-2.8138,-2.7431,-2.6429,-2.5917,-2.5933,-2.5778,-2.5531,0.0,-2.479,-2.4416,-2.415,-2.392,-2.406,-2.4728,-2.4425,0.0,0.0,-2.6137,-2.7336,-2.9237,0.0,0.0,-3.4728,-3.6046,-3.7058,-3.7798,-3.8492,-3.909,-3.9534,-4.0203,-4.1037,-4.2142,-4.2629,-4.3129,-4.3791,-4.3923,-4.4079,-4.426,-4.4341,-4.4623,-4.5203,-4.5361,-4.5323,-4.5108,-4.5087,-4.4972,-4.4662,-4.4605,-4.4432,-4.3912,-4.3816,-4.3573,-4.2872,-4.2465,-4.2304,-4.2529,-4.2462,-4.2489,-4.2804,-4.2834,-4.2815,-4.2871,-4.3321,-4.3701,-4.3518,-4.3481,-4.3481,-4.3497,-4.3479,-4.3406,-3.5489,-3.5439,-3.5082,-3.4935,-3.4935,-3.5148,-3.5213,-3.5228,-3.5424,-3.5294,-3.4868,-3.437,-3.352,-3.2475,-3.1272,-3.0761,-3.0986,-3.1516,-3.2232,-3.3199,-3.377,-3.4196,-3.4616,-3.489,-3.5073,-3.5059,-3.4599,-3.4397,-3.4352,-3.3125,-3.2527,-3.2497,-3.2,-3.1841,-3.1996,-3.2185,-3.2145,-3.1867,-3.1413,-3.1118,-3.0977,-2.9971,-2.941,-2.9383,-2.8025,-2.7118,-2.6869,-2.6048,-2.5404,-2.4989,-2.5274,-2.5144,-2.4491,-2.4604,-2.4597,-2.4324,-2.4014,-2.453,-2.606,-2.5722,-2.5883,-2.6769,-2.7722,-2.9148,-3.1014,-3.2465,-3.4027,-3.5586,-3.7055,-3.7698,-3.7199,-3.8594,-3.9516,-3.9649,-4.1022,-4.2075,-4.2203,-4.2962,-4.349,-4.3508,-4.3656,-4.3799,-4.3844,-4.3427,-4.354,-4.4687,-4.4982,-4.488,-4.4267,-4.4189,-4.3918,-4.328,-4.3124,-4.3085,-4.3008,-4.2797,-4.2518,-4.2221,-4.217,-4.1831,-4.1776,-4.1667,-4.154,-4.1657,-4.1571,-4.159,-4.1553,-4.2247,-4.2823,-4.3295,-4.3431,-4.3453,-4.3367,-4.3256,-4.2981,-3.5489,-3.5504,-3.5359,-3.5359,-3.5359,-3.5439,-3.5439,-3.5439,-3.5489,-3.5294,-3.4868,-3.437,-3.3157,-3.1516,-3.0973,-3.0622,-3.0596,-3.1172,-3.1676,-3.2173,-3.2903,-3.3479,-3.3782,-3.3796,-3.3908,-3.4009,-3.3739,-3.3568,-3.3523,-3.2856,-3.2527,-3.2482,-3.1869,-3.167,-3.1826,-3.1591,-3.1198,-3.0628,-3.0304,-3.0101,-2.9935,-2.9312,-2.8764,-2.8385,-2.7382,-2.6493,-2.5821,-2.5767,-2.5633,-2.5383,-2.5198,-2.4925,-2.4582,-2.4256,-2.4192,-2.4374,-2.4251,-2.5024,-2.6951,-2.7134,-2.7523,-2.8387,-2.9007,-3.019,-3.2079,-3.2777,-3.39,-3.5814,-3.6995,-3.7954,-3.8633,-3.8624,-3.9137,-4.0372,-4.0419,-4.0884,-4.2124,-4.247,-4.2613,-4.2613,-4.2647,-4.2474,-4.1944,-4.195,-4.2137,-4.2622,-4.3031,-4.3291,-4.3158,-4.3251,-4.3246,-4.3015,-4.2972,-4.2854,-4.2104,-4.0957,-4.014,-3.9982,-3.9319,-3.9105,-4.0155,-4.0263,-4.056,-4.1574,-4.1911,-4.1911,-4.179,-4.2052,-4.2146,-4.2255,-4.2526,-4.2742,-4.2658,-4.2184,-4.1673,-3.5489,-3.5504,-3.5439,-3.5294,-3.5213,-3.5294,-3.5294,-3.5177,-3.5162,-3.4883,-3.4385,-3.3437,-3.2376,-3.1097,-3.0596,-3.0381,-3.0292,-3.0748,-3.0966,-3.1057,-3.1792,-3.2137,-3.2124,-3.2492,-3.2731,-3.2862,-3.2698,-3.2638,-3.2716,-3.2214,-3.2019,-3.2019,-3.1661,-3.1375,-3.1204,-3.0981,-3.0591,-3.0008,-2.9443,-2.917,-2.9104,-2.8287,-2.7732,-2.7426,-2.6326,-2.5648,-2.5392,-2.5524,-2.5586,-2.5661,-2.5469,-2.5244,-2.4969,-2.469,-2.465,-2.5013,-2.4897,-2.568,-2.74,-2.8082,-2.8939,-3.0104,-3.0697,-3.1675,-3.3192,-3.3746,-3.4631,-3.6215,-3.6895,-3.7552,-3.833,-3.8509,-3.899,-3.9964,-4.019,-4.065,-4.1614,-4.1739,-4.1772,-4.1772,-4.1754,-4.164,-4.1259,-4.1058,-4.1062,-4.1203,-4.1273,-4.154,-4.2067,-4.2278,-4.2103,-4.1443,-4.1344,-4.1069,-4.0239,-3.9269,-3.8607,-3.8503,-3.8054,-3.7928,-3.8683,-3.8769,-3.9003,-3.9783,-3.9948,-3.9948,-3.9986,-4.0602,-4.0967,-4.0971,-4.1306,-4.1739,-4.1933,-4.1562,-4.1098,-3.5504,-3.5439,-3.5294,-3.5016,-3.4802,-3.4935,-3.4883,-3.4631,-3.4616,-3.4264,-3.3548,-3.2318,-3.1455,-3.0911,-3.0381,-3.0088,-3.0075,-3.0203,-3.0134,-3.0012,-3.0525,-3.0559,-3.0323,-3.1065,-3.1514,-3.1551,-3.1426,-3.1523,-3.1661,-3.1235,-3.104,-3.1155,-3.1228,-3.0929,-3.0402,-3.0298,-3.0008,-2.9554,-2.8747,-2.8381,-2.8463,-2.7255,-2.6645,-2.6582,-2.5264,-2.4818,-2.5342,-2.5351,-2.5558,-2.5954,-2.5937,-2.5749,-2.553,-2.5416,-2.5521,-2.5799,-2.5814,-2.6327,-2.7632,-2.8734,-2.9924,-3.1325,-3.2164,-3.3029,-3.4185,-3.4913,-3.5667,-3.6468,-3.6673,-3.693,-3.7423,-3.8219,-3.8833,-3.9157,-3.9944,-4.0568,-4.0796,-4.0881,-4.0965,-4.0965,-4.0946,-4.096,-4.0785,-4.0314,-3.9925,-3.9956,-3.957,-3.9618,-4.0589,-4.0959,-4.0634,-3.9205,-3.9007,-3.9,-3.8358,-3.7939,-3.774,-3.7731,-3.7455,-3.7427,-3.7471,-3.7452,-3.7432,-3.7526,-3.7657,-3.7581,-3.7449,-3.8658,-3.9463,-3.9433,-3.9825,-4.0457,-4.107,-4.0991,-4.0664,-3.5439,-3.5228,-3.5213,-3.4802,-3.4249,-3.4085,-3.4153,-3.4235,-3.4235,-3.3756,-3.2832,-3.1955,-3.1233,-3.0773,-3.0305,-2.9998,-2.9844,-2.958,-2.9389,-2.9336,-2.9398,-2.9411,-2.9548,-2.9632,-2.9804,-3.0066,-2.9642,-2.9617,-2.9899,-2.9549,-2.941,-2.9522,-2.9703,-2.9714,-2.962,-2.9182,-2.8689,-2.8197,-2.8026,-2.8054,-2.8222,-2.6919,-2.6273,-2.6332,-2.4952,-2.4526,-2.5127,-2.5485,-2.5922,-2.6444,-2.6325,-2.6228,-2.6081,-2.5918,-2.5912,-2.6123,-2.6403,-2.7135,-2.8322,-2.8719,-2.9571,-3.1017,-3.146,-3.2463,-3.4398,-3.5211,-3.5711,-3.6088,-3.636,-3.6911,-3.779,-3.7757,-3.8023,-3.8924,-3.888,-3.9115,-3.9886,-4.0056,-4.0102,-4.012,-4.012,-3.9863,-3.9234,-3.8571,-3.8172,-3.8294,-3.7731,-3.7534,-3.7958,-3.8858,-3.9032,-3.8187,-3.8019,-3.8078,-3.8027,-3.732,-3.6752,-3.6872,-3.6266,-3.6086,-3.6485,-3.6623,-3.6931,-3.7355,-3.766,-3.7564,-3.7564,-3.7908,-3.8061,-3.7926,-3.8014,-3.8577,-4.0333,-4.0058,-3.9239,-3.5177,-3.4964,-3.475,-3.4249,-3.3673,-3.3085,-3.2667,-3.2472,-3.2905,-3.2618,-3.185,-3.1246,-3.0566,-2.9971,-2.9656,-2.9277,-2.895,-2.8724,-2.852,-2.8243,-2.8336,-2.8184,-2.8027,-2.8356,-2.8451,-2.8352,-2.8464,-2.8567,-2.861,-2.8569,-2.8708,-2.8917,-2.9042,-2.9005,-2.868,-2.8151,-2.7831,-2.7675,-2.764,-2.7525,-2.7263,-2.6221,-2.5574,-2.5289,-2.4265,-2.4011,-2.4687,-2.5241,-2.5771,-2.6263,-2.6583,-2.6593,-2.6462,-2.636,-2.6426,-2.6623,-2.6813,-2.7239,-2.8017,-2.8559,-2.9236,-3.0245,-3.1052,-3.2095,-3.3477,-3.3972,-3.4391,-3.4652,-3.4848,-3.527,-3.5977,-3.598,-3.6213,-3.688,-3.6962,-3.7174,-3.7749,-3.7961,-3.8071,-3.812,-3.8138,-3.7936,-3.7551,-3.7243,-3.7034,-3.71,-3.6912,-3.6609,-3.6522,-3.7381,-3.7852,-3.7181,-3.6396,-3.6012,-3.5998,-3.5364,-3.4845,-3.474,-3.4452,-3.4347,-3.4615,-3.4657,-3.4829,-3.52,-3.5296,-3.5296,-3.5353,-3.5908,-3.6468,-3.6533,-3.7015,-3.7696,-3.8882,-3.8465,-3.7862,-3.4898,-3.4481,-3.4128,-3.363,-3.2919,-3.2027,-3.1135,-3.0355,-3.1181,-3.1236,-3.0598,-3.0211,-2.9655,-2.9073,-2.8849,-2.8536,-2.8109,-2.7996,-2.772,-2.7352,-2.7404,-2.7113,-2.6726,-2.7206,-2.7262,-2.6803,-2.735,-2.7607,-2.7435,-2.7683,-2.7911,-2.8177,-2.8344,-2.8163,-2.7521,-2.7151,-2.6996,-2.708,-2.7149,-2.6846,-2.6164,-2.5416,-2.4746,-2.4246,-2.3584,-2.354,-2.417,-2.467,-2.5146,-2.5704,-2.6243,-2.6431,-2.6246,-2.6231,-2.635,-2.6549,-2.6549,-2.674,-2.7195,-2.7825,-2.8475,-2.9079,-3.0353,-3.1421,-3.221,-3.2607,-3.2917,-3.3151,-3.3305,-3.3556,-3.3957,-3.4233,-3.4521,-3.4906,-3.5256,-3.5555,-3.5828,-3.5994,-3.6241,-3.6256,-3.6395,-3.6303,-3.6358,-3.625,-3.6149,-3.6187,-3.5954,-3.5739,-3.5192,-3.5776,-3.6368,-3.5925,-3.4875,-3.3935,-3.381,-3.3478,-3.2916,-3.3108,-3.3012,-3.2883,-3.2831,-3.2818,-3.2818,-3.3086,-3.2837,-3.2952,-3.2952,-3.4007,-3.4817,-3.4887,-3.584,-3.6725,-3.6634,-3.6319,-3.6143,-3.4399,-3.3908,-3.3673,-3.2946,-3.1777,-3.1118,-3.0072,-2.8805,-2.923,-2.934,-2.9282,-2.8835,-2.8638,-2.8489,-2.8296,-2.8172,-2.8072,-2.7607,-2.7356,-2.7268,-2.6873,-2.6609,-2.6508,-2.6298,-2.6242,-2.6232,-2.5867,-2.5734,-2.5869,-2.5866,-2.5897,-2.616,-2.65,-2.6467,-2.6097,-2.6017,-2.5697,-2.5125,-2.5912,-2.6032,-2.5286,-2.4593,-2.4165,-2.397,-2.3298,-2.3194,-2.3753,-2.3869,-2.412,-2.4512,-2.464,-2.4582,-2.4481,-2.451,-2.4582,-2.4848,-2.4848,-2.5061,-2.5579,-2.5749,-2.621,-2.7311,-2.8434,-2.9832,-3.1565,-3.2164,-3.2533,-3.2685,-3.2998,-3.3406,-3.368,-3.3973,-3.4269,-3.4637,-3.503,-3.5337,-3.5525,-3.5763,-3.5944,-3.6003,-3.6256,-3.6211,-3.6028,-3.555,-3.5156,-3.5082,-3.4278,-3.3179,-3.2952,-3.3385,-3.4093,-3.4086,-3.3478,-3.3,-3.2915,-3.2919,-3.2697,-3.2897,-3.2781,-3.2699,-3.2673,-3.2673,-3.2673,-3.2808,-3.2692,-3.2731,-3.2769,-3.3032,-3.3313,-3.333,-3.3691,-3.3761,-3.3773,-3.3553,-3.3885,-3.2892,-3.2272,-3.2053,-3.1419,-3.0465,-2.9429,-2.8466,-2.75,-2.7627,-2.7984,-2.8435,-2.8315,-2.8079,-2.7801,-2.7729,-2.7494,-2.7193,-2.6954,-2.6898,-2.6816,-2.6578,-2.6289,-2.5988,-2.5949,-2.5637,-2.5116,-2.4965,-2.4958,-2.4909,-2.4916,-2.5021,-2.5328,-2.5605,-2.5516,-2.5152,-2.5176,-2.4657,-2.3738,-2.4753,-2.493,-2.4226,-2.3751,-2.3388,-2.2998,-2.2591,-2.253,-2.2781,-2.3073,-2.3252,-2.3306,-2.3677,-2.3821,-2.3682,-2.3682,-2.377,-2.396,-2.4039,-2.4291,-2.4737,-2.5091,-2.556,-2.6223,-2.684,-2.7643,-2.8669,-3.0028,-3.0888,-3.1083,-3.1461,-3.1801,-3.2148,-3.253,-3.2876,-3.3263,-3.3599,-3.3919,-3.4195,-3.4443,-3.4659,-3.4786,-3.4842,-3.4724,-3.4357,-3.3954,-3.3513,-3.318,-3.2397,-3.1967,-3.1782,-3.1867,-3.2221,-3.2787,-3.2397,-3.2019,-3.197,-3.1628,-3.1473,-3.1475,-3.1482,-3.1507,-3.1513,-3.1564,-3.1564,-3.1545,-3.1545,-3.1545,-3.1583,-3.1948,-3.2167,-3.2289,-3.2628,-3.2774,-3.279,-3.2699,-3.2978,-3.1349,-3.0759,-3.0569,-2.9939,-2.9083,-2.7882,-2.7107,-2.6671,-2.6546,-2.6942,-2.767,-2.7733,-2.7507,-2.7118,-2.7092,-2.6866,-2.649,-2.6521,-2.6521,-2.6521,-2.6521,-2.6151,-2.5624,-2.5643,-2.5127,-2.4229,-2.4346,-2.4279,-2.4099,-2.4305,-2.4523,-2.4808,-2.4813,-2.46,-2.4188,-2.4024,-2.3434,-2.2473,-2.3216,-2.3463,-2.2991,-2.2853,-2.2518,-2.2052,-2.1949,-2.1855,-2.1821,-2.2179,-2.2328,-2.2101,-2.2464,-2.2641,-2.2515,-2.2393,-2.2414,-2.2524,-2.2652,-2.297,-2.3554,-2.4423,-2.4967,-2.5203,-2.5618,-2.5986,-2.6336,-2.776,-2.9026,-2.9387,-2.9799,-3.0228,-3.0814,-3.1207,-3.1542,-3.1912,-3.2109,-3.2376,-3.2644,-3.2781,-3.2879,-3.3058,-3.314,-3.2938,-3.2452,-3.2339,-3.2063,-3.1427,-3.1201,-3.1241,-3.1076,-3.0497,-3.048,-3.0978,-3.1107,-3.098,-3.0934,-3.0594,-3.0305,-3.024,-3.035,-3.0465,-3.0489,-3.0456,-3.0417,-3.0544,-3.0475,-3.0552,-3.0506,-3.0929,-3.1333,-3.1436,-3.1789,-3.2205,-3.2135,-3.2075,-3.2301,-3.0678,-3.0019,-2.9771,-2.8948,-2.7787,-2.71,-2.6683,-2.6508,-2.6508,-2.6559,-2.671,-2.6684,-2.6615,-2.6609,-2.6622,-2.6515,-2.6521,-2.6521,-2.6508,-2.6496,-2.6521,-2.6151,-2.5536,-2.5109,-2.4594,-2.4029,-2.3733,-2.3552,-2.3582,-2.3819,-2.4099,-2.4284,-2.3877,-2.347,-2.2991,-2.2429,-2.1776,-2.1,-2.1076,-2.1323,-2.176,-2.1746,-2.1671,-2.1485,-2.1471,-2.1326,-2.1104,-2.1149,-2.105,-2.0762,-2.0404,-2.0154,-2.0127,-1.9706,-1.9509,-1.9739,-1.9771,-2.0175,-2.1356,-2.28,-2.3745,-2.4116,-2.4914,-2.5508,-2.5633,-2.6275,-2.7201,-2.8128,-2.8694,-2.9335,-3.0236,-3.0714,-3.1043,-3.1302,-3.1236,-3.1182,-3.1455,-3.1261,-3.1091,-3.1229,-3.1573,-3.1485,-3.1448,-3.1407,-3.1127,-3.0411,-3.0257,-3.0065,-2.9558,-2.8907,-2.8452,-2.8739,-2.9214,-2.9864,-2.9935,-3.0018,-3.0053,-3.0128,-3.018,-3.0247,-3.0311,-3.0367,-3.0398,-3.0398,-3.0398,-3.0398,-3.0398,-3.0494,-3.0552,-3.0698,-3.0802,-3.0732,-3.0585,-3.0688,-3.1103,-2.8906,-2.8379,-2.8242,-2.7838,-2.698,-2.6312,-2.6017,-2.5925,-2.5611,-2.5661,-2.5925,-2.595,-2.6126,-2.6521,-2.6521,-2.6521,-2.6521,-2.6521,-2.6264,-2.5975,-2.595,-2.5498,-2.4695,-2.4443,-2.4042,-2.3514,-2.3299,-2.3271,-2.3403,-2.3641,-2.3747,-2.3787,-2.334,-2.2825,-2.2281,-2.1601,-2.0979,-2.0347,-2.0258,-2.0308,-2.056,-2.0858,-2.1006,-2.0908,-2.0871,-2.0601,-2.0201,-2.009,-1.9872,-1.9439,-1.9206,-1.9089,-1.9063,-1.8869,-1.8786,-1.8911,-1.9139,-1.953,-2.0237,-2.1356,-2.2154,-2.2593,-2.3385,-2.3919,-2.4207,-2.4551,-2.5162,-2.6218,-2.7264,-2.8114,-2.8706,-2.9161,-2.9609,-2.9952,-3.0022,-3.0228,-3.0589,-3.0587,-3.0657,-3.0902,-3.1039,-3.0927,-3.0549,-3.0167,-2.9813,-2.941,-2.9145,-2.8732,-2.8346,-2.7711,-2.7311,-2.7315,-2.7773,-2.8315,-2.8837,-2.9559,-2.988,-3.0064,-3.0152,-3.0215,-3.0292,-3.0348,-3.0398,-3.0398,-3.0398,-3.0398,-3.0398,-3.0398,-3.0398,-3.0398,-3.0398,-3.0398,-3.0367,-3.0348,-3.0746,-2.7288,-2.6943,-2.6681,-2.647,-2.6164,-2.5627,-2.5385,-2.5347,-2.4983,-2.5034,-2.536,-2.5385,-2.5611,-2.5988,-2.6219,-2.6151,-2.6025,-2.6013,-2.5787,-2.541,-2.5385,-2.4895,-2.4054,-2.3991,-2.369,-2.3213,-2.3138,-2.3198,-2.333,-2.3437,-2.345,-2.3301,-2.289,-2.2261,-2.1635,-2.0983,-2.0388,-1.9822,-1.9656,-1.9592,-1.9631,-1.98,-2.0027,-2.0126,-2.0089,-1.9782,-1.9265,-1.9156,-1.8942,-1.8499,-1.8367,-1.8277,-1.8277,-1.8137,-1.8035,-1.8118,-1.8578,-1.8959,-1.9327,-2.0034,-2.0692,-2.1223,-2.1783,-2.2235,-2.2571,-2.3022,-2.355,-2.4319,-2.5548,-2.6566,-2.7492,-2.797,-2.84,-2.8814,-2.904,-2.928,-2.9592,-2.9717,-2.9739,-3.0086,-3.008,-3.0152,-2.9689,-2.9235,-2.8876,-2.8576,-2.8123,-2.7636,-2.742,-2.6838,-2.6346,-2.6346,-2.6466,-2.6935,-2.783,-2.8496,-2.9196,-2.963,-2.9679,-2.9849,-3.0171,-3.0323,-3.0379,-3.0379,-3.0379,-3.0398,-3.0398,-3.0398,-3.0321,-3.0379,-3.0359,-3.034,-3.0398,-3.0398,-3.0398,-2.6297,-2.5851,-2.5174,-2.4958,-2.4895,-2.487,-2.4858,-2.4845,-2.4782,-2.4808,-2.4845,-2.4845,-2.487,-2.4946,-2.5398,-2.536,-2.4971,-2.4983,-2.4946,-2.4858,-2.4858,-2.4544,-2.4017,-2.3979,-2.369,-2.3163,-2.3125,-2.3138,-2.3138,-2.3138,-2.3078,-2.2944,-2.2421,-2.1758,-2.1087,-2.0391,-1.9799,-1.93,-1.9093,-1.9028,-1.8955,-1.8533,-1.8596,-1.897,-1.9181,-1.8915,-1.8361,-1.8405,-1.8346,-1.8179,-1.7735,-1.7458,-1.742,-1.6967,-1.6759,-1.6896,-1.7509,-1.8044,-1.8372,-1.8968,-1.9601,-2.0083,-2.0455,-2.0642,-2.1026,-2.1841,-2.2461,-2.2629,-2.3663,-2.4994,-2.6593,-2.7316,-2.7909,-2.826,-2.823,-2.8288,-2.8516,-2.8325,-2.807,-2.8322,-2.8595,-2.8783,-2.8789,-2.8748,-2.8361,-2.7958,-2.7693,-2.7391,-2.6683,-2.597,-2.555,-2.5478,-2.5573,-2.5891,-2.673,-2.7511,-2.7951,-2.8401,-2.8863,-2.9098,-2.9773,-3.0254,-3.0247,-3.0244,-3.0052,-3.0052,-3.0283,-3.0321,-3.0217,-3.0179,-3.0167,-3.0186,-3.034,-3.0379,-3.0398,-2.5421,-2.5161,-2.4908,-2.4833,-2.4782,-2.4456,-2.4293,-2.4243,-2.3841,-2.3954,-2.4255,-2.4293,-2.4293,-2.4305,-2.4481,-2.4669,-2.482,-2.4833,-2.4632,-2.433,-2.4293,-2.3991,-2.3428,-2.3439,-2.3351,-2.3163,-2.3125,-2.3125,-2.3078,-2.303,-2.2969,-2.2749,-2.2124,-2.1409,-2.0746,-1.9933,-1.9242,-1.8661,-1.8506,-1.83,-1.7996,-1.7774,-1.749,-1.7087,-1.7824,-1.7991,-1.7446,-1.7572,-1.7455,-1.7048,-1.6892,-1.6835,-1.681,-1.6635,-1.6522,-1.659,-1.6939,-1.7226,-1.745,-1.8035,-1.8583,-1.9073,-1.956,-1.9943,-2.0315,-2.0869,-2.1309,-2.1576,-2.201,-2.3117,-2.4302,-2.5528,-2.6399,-2.6768,-2.6969,-2.7165,-2.7448,-2.7511,-2.763,-2.7836,-2.8053,-2.8273,-2.8316,-2.8034,-2.77,-2.7453,-2.6727,-2.6118,-2.5743,-2.5106,-2.4667,-2.465,-2.4651,-2.4782,-2.5041,-2.6413,-2.7319,-2.7601,-2.793,-2.8117,-2.8593,-2.8823,-2.8845,-2.8952,-2.9021,-2.9102,-2.9129,-2.9121,-2.9198,-2.9544,-2.9583,-2.9794,-3.0314,-3.0025,-3.0129,-2.4558,-2.4293,-2.4205,-2.428,-2.423,-2.3891,-2.3728,-2.3678,-2.3301,-2.3364,-2.3678,-2.3715,-2.3728,-2.3715,-2.3715,-2.3904,-2.4255,-2.4205,-2.4067,-2.374,-2.3728,-2.3502,-2.3188,-2.3125,-2.3125,-2.3125,-2.3125,-2.3078,-2.303,-2.2957,-2.2787,-2.2641,-2.1885,-2.1103,-2.0286,-1.9481,-1.8688,-1.8109,-1.7909,-1.7574,-1.7176,-1.699,-1.6525,-1.593,-1.6385,-1.6703,-1.6514,-1.6716,-1.6658,-1.6368,-1.6392,-1.6479,-1.6534,-1.6534,-1.6534,-1.6534,-1.6577,-1.6663,-1.6774,-1.7234,-1.7657,-1.7985,-1.8518,-1.8976,-1.9333,-1.9838,-2.0259,-2.0592,-2.1149,-2.1859,-2.265,-2.3748,-2.4686,-2.5326,-2.5841,-2.6168,-2.6519,-2.6997,-2.7369,-2.763,-2.7836,-2.8007,-2.8075,-2.7495,-2.7115,-2.6995,-2.5846,-2.5157,-2.4842,-2.4516,-2.4189,-2.4208,-2.4246,-2.4302,-2.4469,-2.5375,-2.6262,-2.662,-2.6949,-2.7134,-2.7427,-2.7553,-2.7631,-2.772,-2.778,-2.786,-2.789,-2.7871,-2.8159,-2.8602,-2.8736,-2.889,-2.9217,-2.9448,-2.9448,-2.3678,-2.3203,-2.315,-2.319,-2.3276,-2.3238,-2.3103,-2.3128,-2.315,-2.3175,-2.3251,-2.3128,-2.3226,-2.3175,-2.3178,-2.3201,-2.3276,-2.3265,-2.3288,-2.3213,-2.3201,-2.3188,-2.3125,-2.3125,-2.3125,-2.3078,-2.3065,-2.303,-2.2909,-2.2848,-2.2616,-2.2151,-2.1523,-2.064,-1.9713,-1.8918,-1.8136,-1.7578,-1.7301,-1.7005,-1.66,-1.6077,-1.5647,-1.5244,-1.5009,-1.5085,-1.5459,-1.586,-1.6037,-1.6044,-1.6262,-1.6448,-1.6479,-1.6479,-1.6479,-1.6491,-1.6479,-1.6522,-1.6522,-1.6658,-1.685,-1.7021,-1.7248,-1.7604,-1.7975,-1.8728,-1.939,-1.9786,-2.0589,-2.1431,-2.184,-2.2346,-2.3128,-2.4313,-2.4974,-2.5363,-2.5693,-2.6478,-2.7198,-2.7448,-2.76,-2.776,-2.7752,-2.7171,-2.6535,-2.6079,-2.5342,-2.4625,-2.4265,-2.4109,-2.4132,-2.417,-2.419,-2.419,-2.4228,-2.4358,-2.4985,-2.5534,-2.5901,-2.6204,-2.6659,-2.6918,-2.6917,-2.6972,-2.696,-2.702,-2.7042,-2.708,-2.7379,-2.7736,-2.7832,-2.8025,-2.839,-2.8621,-2.8409,-2.324,-2.3078,-2.3125,-2.3125,-2.3125,-2.3125,-2.3125,-2.3125,-2.3125,-2.3125,-2.3125,-2.3125,-2.3125,-2.3125,-2.3125,-2.3065,-2.3125,-2.3125,-2.3125,-2.3125,-2.3125,-2.3125,-2.3125,-2.3125,-2.3125,-2.3078,-2.3017,-2.2896,-2.2763,-2.2543,-2.2297,-2.1868,-2.1011,-2.0087,-1.9205,-1.8335,-1.7564,-1.6917,-1.6694,-1.6269,-1.5563,-1.5332,-1.4919,-1.4238,-1.4168,-1.4337,-1.4523,-1.5244,-1.5647,-1.5724,-1.6001,-1.6175,-1.6275,-1.6275,-1.6318,-1.6287,-1.6275,-1.6275,-1.6318,-1.6331,-1.6405,-1.6522,-1.6705,-1.6905,-1.7199,-1.7731,-1.8276,-1.8693,-1.9284,-1.9905,-2.0682,-2.0877,-2.1677,-2.341,-2.3994,-2.4398,-2.4824,-2.57,-2.6505,-2.7095,-2.7244,-2.74,-2.7325,-2.6615,-2.5727,-2.5595,-2.4718,-2.3889,-2.3865,-2.3896,-2.4034,-2.4168,-2.415,-2.4151,-2.4209,-2.4228,-2.4561,-2.4946,-2.519,-2.5427,-2.5882,-2.6165,-2.6155,-2.6211,-2.6194,-2.622,-2.6222,-2.6329,-2.6628,-2.685,-2.6976,-2.7302,-2.7755,-2.7736,-2.7486,-2.2952,-2.2777,-2.2836,-2.2639,-2.2535,-2.2523,-2.2523,-2.2523,-2.2535,-2.251,-2.251,-2.2523,-2.2523,-2.2573,-2.2736,-2.2765,-2.279,-2.2965,-2.3125,-2.3125,-2.3125,-2.3125,-2.3125,-2.3125,-2.3078,-2.303,-2.2909,-2.2775,-2.2592,-2.2211,-2.1806,-2.1175,-2.0232,-1.926,-1.8365,-1.7547,-1.6854,-1.6384,-1.6239,-1.5751,-1.5024,-1.4829,-1.4389,-1.3621,-1.3668,-1.3763,-1.3858,-1.4558,-1.5096,-1.5367,-1.568,-1.5925,-1.6057,-1.6069,-1.6069,-1.6057,-1.6013,-1.5969,-1.5925,-1.5969,-1.6013,-1.6088,-1.6262,-1.6479,-1.682,-1.7144,-1.757,-1.7975,-1.8439,-1.8941,-1.9613,-1.9901,-2.0564,-2.1874,-2.2778,-2.349,-2.4193,-2.5184,-2.5902,-2.6441,-2.6593,-2.6771,-2.6601,-2.5687,-2.4851,-2.4831,-2.4109,-2.344,-2.3602,-2.3732,-2.3912,-2.4071,-2.4112,-2.4132,-2.4151,-2.4209,-2.4228,-2.4413,-2.4608,-2.4797,-2.5107,-2.5248,-2.5327,-2.5457,-2.5492,-2.5597,-2.5619,-2.5565,-2.5721,-2.5915,-2.6186,-2.6311,-2.6572,-2.6659,-2.6505,-2.2761,-2.2297,-2.2272,-2.2008,-2.1606,-2.1581,-2.1619,-2.1543,-2.1568,-2.1606,-2.1581,-2.1644,-2.1594,-2.1656,-2.2096,-2.2272,-2.2347,-2.2686,-2.2874,-2.284,-2.2852,-2.2924,-2.3113,-2.3125,-2.3005,-2.2909,-2.2836,-2.2604,-2.2137,-2.1794,-2.1284,-2.025,-1.9414,-1.8447,-1.7503,-1.6738,-1.63,-1.5982,-1.5914,-1.5405,-1.4626,-1.4556,-1.4123,-1.3278,-1.3324,-1.3478,-1.3621,-1.3952,-1.4373,-1.4858,-1.5379,-1.5659,-1.5736,-1.5748,-1.5748,-1.5691,-1.5603,-1.5501,-1.5457,-1.5501,-1.5546,-1.5546,-1.5881,-1.6231,-1.6436,-1.6863,-1.7227,-1.7585,-1.8028,-1.8411,-1.8841,-1.9213,-1.972,-2.0212,-2.1561,-2.2818,-2.4028,-2.4871,-2.5285,-2.5552,-2.5732,-2.5843,-2.5867,-2.4677,-2.4164,-2.4015,-2.3621,-2.3336,-2.3417,-2.3598,-2.3768,-2.3873,-2.3974,-2.4054,-2.4074,-2.4151,-2.419,-2.4266,-2.4375,-2.4478,-2.4591,-2.4716,-2.4837,-2.4934,-2.5,-2.5063,-2.5111,-2.5141,-2.5195,-2.5439,-2.551,-2.533,-2.5466,-2.5764,-2.588,-2.2209,-2.1719,-2.1707,-2.1619,-2.1493,-2.1481,-2.1468,-2.1481,-2.1455,-2.1405,-2.1455,-2.1481,-2.1418,-2.1493,-2.1619,-2.1707,-2.1757,-2.1882,-2.192,-2.192,-2.192,-2.2422,-2.3,-2.3065,-2.2992,-2.2823,-2.2653,-2.2249,-2.1634,-2.1128,-2.0465,-1.9823,-1.8698,-1.7825,-1.7151,-1.6407,-1.5992,-1.574,-1.5604,-1.5123,-1.4385,-1.4237,-1.3814,-1.3115,-1.3104,-1.322,-1.3268,-1.3631,-1.415,-1.4708,-1.496,-1.5153,-1.5289,-1.5289,-1.5244,-1.5142,-1.5085,-1.4994,-1.4937,-1.504,-1.504,-1.5085,-1.5424,-1.578,-1.5976,-1.6423,-1.6795,-1.7173,-1.7585,-1.8002,-1.8333,-1.8808,-1.9354,-2.012,-2.1017,-2.2004,-2.296,-2.3464,-2.3921,-2.4599,-2.478,-2.4842,-2.473,-2.4211,-2.3596,-2.3653,-2.3371,-2.2995,-2.3223,-2.343,-2.3549,-2.3721,-2.385,-2.3915,-2.3996,-2.4074,-2.4133,-2.4209,-2.4266,-2.4321,-2.4478,-2.4629,-2.4738,-2.4827,-2.4865,-2.4921,-2.4974,-2.5,-2.5082,-2.516,-2.5206,-2.522,-2.5282,-2.5475,-2.5504,-2.1644,-2.1154,-2.1142,-2.1004,-2.0803,-2.0778,-2.0778,-2.0778,-2.0778,-2.0778,-2.0778,-2.0778,-2.0778,-2.0803,-2.1029,-2.1142,-2.1222,-2.138,-2.1493,-2.1506,-2.1531,-2.1995,-2.2611,-2.2727,-2.272,-2.2714,-2.2469,-2.1932,-2.124,-2.0615,-1.9901,-1.9006,-1.8132,-1.7307,-1.6609,-1.6181,-1.5798,-1.5604,-1.5449,-1.5,-1.4155,-1.4087,-1.3672,-1.3057,-1.2978,-1.3027,-1.3123,-1.3392,-1.381,-1.4326,-1.4605,-1.4731,-1.4789,-1.4789,-1.4743,-1.464,-1.4547,-1.4455,-1.4351,-1.4455,-1.4501,-1.4593,-1.4926,-1.5232,-1.549,-1.5901,-1.6281,-1.6637,-1.706,-1.7434,-1.7801,-1.8408,-1.9132,-1.9839,-2.0447,-2.1199,-2.2068,-2.2648,-2.3133,-2.3656,-2.3852,-2.3914,-2.4032,-2.3405,-2.3181,-2.3117,-2.2978,-2.2911,-2.302,-2.3193,-2.336,-2.3481,-2.366,-2.3789,-2.3855,-2.3935,-2.4034,-2.4094,-2.4152,-2.4192,-2.4339,-2.4515,-2.4599,-2.466,-2.4723,-2.4783,-2.4808,-2.4865,-2.4947,-2.5032,-2.5094,-2.5164,-2.522,-2.5282,-2.5292,-2.1091,-2.0618,-2.0567,-2.02,-1.9773,-1.966,-1.9648,-1.9635,-1.9635,-1.9698,-1.9761,-1.9736,-1.9874,-1.9836,-2.0401,-2.063,-2.0602,-2.0953,-2.1154,-2.1167,-2.1217,-2.1506,-2.1938,-2.2023,-2.2142,-2.2297,-2.2177,-2.1522,-2.0768,-2.0289,-1.9329,-1.8335,-1.7712,-1.6969,-1.6277,-1.5982,-1.571,-1.5428,-1.5273,-1.4834,-1.416,-1.3912,-1.3603,-1.3027,-1.2929,-1.2978,-1.3075,-1.32,-1.342,-1.3879,-1.415,-1.428,-1.428,-1.428,-1.4233,-1.4129,-1.3999,-1.3905,-1.381,-1.3905,-1.3962,-1.4046,-1.4373,-1.4697,-1.5006,-1.5311,-1.5724,-1.6044,-1.6423,-1.6795,-1.7352,-1.8147,-1.8846,-1.9406,-1.9859,-2.0413,-2.1151,-2.202,-2.2666,-2.2837,-2.2962,-2.3053,-2.2975,-2.268,-2.2327,-2.2694,-2.2627,-2.271,-2.2816,-2.2995,-2.3119,-2.3223,-2.3417,-2.362,-2.3707,-2.3792,-2.3894,-2.3976,-2.3996,-2.4057,-2.4172,-2.4321,-2.4393,-2.4462,-2.453,-2.4596,-2.4645,-2.4719,-2.4808,-2.4907,-2.498,-2.5075,-2.5168,-2.522,-2.5271,-2.0501,-1.9949,-1.9547,-1.9309,-1.9133,-1.8744,-1.8568,-1.8581,-1.8581,-1.8857,-1.912,-1.9196,-1.9422,-1.9798,-1.9924,-1.9999,-2.0024,-2.02,-2.0162,-2.015,-2.0175,-2.0448,-2.0932,-2.1207,-2.1391,-2.1391,-2.111,-2.0629,-2.0123,-1.954,-1.878,-1.8082,-1.7424,-1.6846,-1.6337,-1.5979,-1.5608,-1.517,-1.4988,-1.4492,-1.3857,-1.3672,-1.3428,-1.293,-1.2891,-1.2939,-1.2929,-1.3075,-1.3172,-1.3306,-1.3478,-1.3658,-1.3752,-1.3752,-1.3705,-1.361,-1.3563,-1.3467,-1.3362,-1.342,-1.3515,-1.3563,-1.3905,-1.4233,-1.4408,-1.4812,-1.5187,-1.5501,-1.5788,-1.6324,-1.706,-1.7747,-1.833,-1.8846,-1.9295,-1.9732,-2.027,-2.1003,-2.16,-2.1851,-2.1991,-2.2032,-2.2212,-2.2191,-2.2061,-2.2265,-2.2377,-2.246,-2.2623,-2.279,-2.2893,-2.3003,-2.3199,-2.3394,-2.3508,-2.362,-2.3747,-2.381,-2.3852,-2.3855,-2.3976,-2.4094,-2.4153,-2.4247,-2.4321,-2.4393,-2.4462,-2.4582,-2.4676,-2.4768,-2.487,-2.4974,-2.5075,-2.5153,-2.525,-1.9572,-1.9032,-1.8744,-1.8643,-1.8606,-1.8342,-1.8204,-1.8204,-1.8204,-1.8367,-1.8593,-1.8643,-1.8945,-1.9434,-1.9447,-1.9547,-1.9761,-1.9798,-1.9811,-1.9836,-1.9784,-1.9843,-2.0002,-2.0237,-2.0367,-2.0738,-2.0586,-2.0179,-1.9735,-1.9148,-1.8578,-1.7866,-1.7288,-1.6839,-1.6358,-1.5873,-1.5425,-1.5028,-1.4615,-1.415,-1.3613,-1.3496,-1.3311,-1.2969,-1.2891,-1.2891,-1.2939,-1.2988,-1.2929,-1.2978,-1.3007,-1.318,-1.3324,-1.3324,-1.3286,-1.32,-1.3104,-1.2997,-1.2949,-1.2997,-1.3094,-1.3094,-1.343,-1.361,-1.3847,-1.4165,-1.4501,-1.4823,-1.5175,-1.5656,-1.6607,-1.7227,-1.7733,-1.8226,-1.8679,-1.9095,-1.9603,-2.0292,-2.0909,-2.1199,-2.1374,-2.1513,-2.1617,-2.1691,-2.184,-2.2032,-2.2147,-2.2231,-2.2422,-2.2569,-2.2676,-2.279,-2.297,-2.3151,-2.3295,-2.3435,-2.3571,-2.3616,-2.3638,-2.366,-2.3703,-2.3789,-2.3912,-2.4016,-2.4134,-2.4209,-2.4303,-2.4411,-2.4532,-2.4629,-2.4734,-2.4879,-2.5019,-2.5106,-2.5217,-1.8631,-1.8191,-1.8116,-1.8078,-1.8066,-1.7965,-1.7865,-1.7903,-1.7953,-1.7915,-1.8078,-1.8078,-1.838,-1.8807,-1.8894,-1.9208,-1.9585,-1.9811,-1.9811,-1.9759,-1.9604,-1.955,-1.9519,-1.9364,-1.9492,-2.0354,-2.01,-1.9705,-1.9368,-1.9039,-1.8462,-1.7756,-1.7192,-1.6682,-1.6238,-1.5583,-1.4984,-1.4651,-1.4223,-1.3828,-1.3437,-1.3359,-1.3174,-1.2969,-1.2891,-1.2891,-1.2891,-1.2881,-1.2832,-1.2676,-1.2637,-1.2813,-1.2949,-1.2997,-1.2861,-1.2822,-1.2725,-1.2627,-1.2471,-1.252,-1.2569,-1.2578,-1.2852,-1.3084,-1.3276,-1.3515,-1.3847,-1.4222,-1.4582,-1.5085,-1.5957,-1.6497,-1.6993,-1.7449,-1.7907,-1.8394,-1.8945,-1.9717,-2.0174,-2.0679,-2.0893,-2.1071,-2.1277,-2.1402,-2.1601,-2.1781,-2.1882,-2.1998,-2.2192,-2.2366,-2.246,-2.2569,-2.2738,-2.2944,-2.3102,-2.3223,-2.3365,-2.3407,-2.343,-2.3412,-2.3412,-2.3481,-2.3576,-2.381,-2.3935,-2.4016,-2.4133,-2.4266,-2.4375,-2.4478,-2.461,-2.4764,-2.4907,-2.5057,-2.5172,-1.8292,-1.8166,-1.7702,-1.7513,-1.7438,-1.7024,-1.6861,-1.6798,-1.6886,-1.7087,-1.7488,-1.7526,-1.7815,-1.8229,-1.8342,-1.8643,-1.9133,-1.9434,-1.957,-1.948,-1.9325,-1.9169,-1.8943,-1.8667,-1.8731,-1.876,-1.892,-1.8873,-1.8838,-1.8612,-1.834,-1.7786,-1.7037,-1.6428,-1.5878,-1.5167,-1.4463,-1.4116,-1.3743,-1.3408,-1.3145,-1.3047,-1.3027,-1.2881,-1.2881,-1.2832,-1.2725,-1.2725,-1.2676,-1.2529,-1.2431,-1.2421,-1.2412,-1.252,-1.248,-1.2431,-1.2332,-1.2224,-1.2026,-1.1968,-1.2026,-1.2076,-1.2224,-1.2421,-1.2608,-1.2842,-1.317,-1.36,-1.4129,-1.4731,-1.5232,-1.57,-1.617,-1.6642,-1.7118,-1.7625,-1.8108,-1.8679,-1.9303,-1.9909,-2.0292,-2.0646,-2.0844,-2.1039,-2.123,-2.1401,-2.1601,-2.1751,-2.1945,-2.2106,-2.222,-2.2332,-2.2487,-2.2685,-2.2919,-2.3028,-2.3151,-2.3168,-2.3168,-2.3151,-2.3151,-2.3151,-2.3277,-2.3508,-2.3707,-2.3816,-2.3958,-2.4114,-2.4247,-2.4356,-2.4512,-2.4676,-2.4823,-2.4993,-2.5106,-1.7601,-1.7313,-1.7036,-1.6936,-1.6886,-1.6647,-1.6534,-1.6534,-1.6534,-1.6672,-1.6873,-1.6961,-1.725,-1.7652,-1.7777,-1.8078,-1.8568,-1.8709,-1.8759,-1.8622,-1.8434,-1.835,-1.8218,-1.7949,-1.7867,-1.7881,-1.7855,-1.8123,-1.8452,-1.8367,-1.802,-1.7458,-1.6773,-1.6138,-1.5458,-1.4696,-1.4092,-1.369,-1.3351,-1.3105,-1.29,-1.2832,-1.2783,-1.2783,-1.2725,-1.2676,-1.2627,-1.2529,-1.2382,-1.2224,-1.2085,-1.1927,-1.1819,-1.1769,-1.1828,-1.1927,-1.1877,-1.1719,-1.1519,-1.1418,-1.1377,-1.1427,-1.1578,-1.1728,-1.1927,-1.2157,-1.254,-1.2977,-1.3505,-1.4118,-1.4479,-1.4903,-1.5344,-1.5832,-1.6269,-1.6795,-1.7297,-1.7747,-1.8408,-1.9147,-1.9624,-2.0015,-2.041,-2.0613,-2.0828,-2.1055,-2.1261,-2.1479,-2.1678,-2.1814,-2.1932,-2.2106,-2.222,-2.2443,-2.2642,-2.2799,-2.2902,-2.2919,-2.2919,-2.2902,-2.2902,-2.2927,-2.3028,-2.3223,-2.3417,-2.3602,-2.3795,-2.3958,-2.4115,-2.4284,-2.4444,-2.4626,-2.4764,-2.4893,-2.5025,-1.6936,-1.6534,-1.6534,-1.6534,-1.6534,-1.6534,-1.6534,-1.6534,-1.6534,-1.6534,-1.6534,-1.6559,-1.6798,-1.7149,-1.7388,-1.7652,-1.7994,-1.7939,-1.7932,-1.7715,-1.7422,-1.729,-1.7208,-1.6995,-1.6813,-1.6904,-1.6782,-1.7062,-1.7741,-1.7706,-1.7395,-1.6849,-1.6306,-1.57,-1.4914,-1.4145,-1.3791,-1.3472,-1.3195,-1.2891,-1.2832,-1.2783,-1.2676,-1.2627,-1.2529,-1.2431,-1.2283,-1.2224,-1.1977,-1.1778,-1.1578,-1.1427,-1.1217,-1.1023,-1.1074,-1.1276,-1.1226,-1.1116,-1.0913,-1.0812,-1.0718,-1.0761,-1.0922,-1.1074,-1.1326,-1.1619,-1.2017,-1.2461,-1.2949,-1.3362,-1.3732,-1.4071,-1.449,-1.4937,-1.5433,-1.592,-1.6484,-1.6993,-1.7503,-1.8212,-1.8884,-1.9406,-1.9752,-2.0135,-2.0361,-2.063,-2.0828,-2.1071,-2.1261,-2.145,-2.1603,-2.1797,-2.1957,-2.2186,-2.2381,-2.2535,-2.2615,-2.2659,-2.2685,-2.2694,-2.2712,-2.2738,-2.2868,-2.302,-2.3199,-2.3394,-2.3602,-2.3837,-2.4037,-2.421,-2.4409,-2.4578,-2.4719,-2.4865,-2.5,-1.6572,-1.6534,-1.6534,-1.6534,-1.6534,-1.6534,-1.6534,-1.6534,-1.6534,-1.6534,-1.6534,-1.6534,-1.6572,-1.6748,-1.7162,-1.733,-1.7426,-1.7535,-1.7459,-1.7147,-1.6795,-1.6508,-1.6379,-1.5902,-1.5782,-1.5817,-1.5741,-1.6186,-1.6658,-1.6499,-1.6321,-1.5961,-1.5322,-1.4639,-1.4316,-1.369,-1.3164,-1.3008,-1.2969,-1.2832,-1.2735,-1.2686,-1.2529,-1.2372,-1.2274,-1.2135,-1.1877,-1.1769,-1.1578,-1.1226,-1.1074,-1.0922,-1.0769,-1.0462,-1.0249,-1.036,-1.0462,-1.0565,-1.0257,-1.0154,-1.0102,-1.0154,-1.0205,-1.0411,-1.0769,-1.1226,-1.1619,-1.1918,-1.2363,-1.2706,-1.3016,-1.3304,-1.3695,-1.4154,-1.4606,-1.5152,-1.5632,-1.6269,-1.6782,-1.7256,-1.7961,-1.8549,-1.9029,-1.9464,-1.9889,-2.0154,-2.0395,-2.0646,-2.0893,-2.1071,-2.1262,-2.1448,-2.1691,-2.1899,-2.2073,-2.226,-2.2343,-2.2388,-2.246,-2.2497,-2.2525,-2.2569,-2.2676,-2.2816,-2.3003,-2.3247,-2.3508,-2.375,-2.3978,-2.4154,-2.4338,-2.4512,-2.4692,-2.4823,-2.4974,-1.6534,-1.6534,-1.6534,-1.6534,-1.6534,-1.6534,-1.6534,-1.6534,-1.6534,-1.6534,-1.6534,-1.6534,-1.6534,-1.6597,-1.681,-1.6842,-1.6759,-1.6815,-1.6602,-1.6244,-1.5831,-1.5538,-1.5345,-1.5031,-1.484,-1.4894,-1.4749,-1.4686,-1.5182,-1.5577,-1.5625,-1.5189,-1.4647,-1.413,-1.3758,-1.3272,-1.3056,-1.2949,-1.2832,-1.2725,-1.2578,-1.2431,-1.2224,-1.1968,-1.1877,-1.1678,-1.1427,-1.1267,-1.1015,-1.0659,-1.0462,-1.041,-1.0325,-1.0166,-1.0013,-0.9853,-0.9907,-0.9872,-0.9665,-0.9584,-0.9577,-0.9577,-0.9629,-0.9888,-1.0308,-1.0718,-1.1124,-1.1318,-1.1778,-1.2116,-1.2403,-1.2696,-1.3074,-1.3494,-1.392,-1.4433,-1.4926,-1.5511,-1.6051,-1.6527,-1.7047,-1.7626,-1.821,-1.8703,-1.9169,-1.9536,-1.9859,-2.012,-2.041,-2.0711,-2.0925,-2.1135,-2.1355,-2.1617,-2.1797,-2.1945,-2.2044,-2.2118,-2.2282,-2.2321,-2.2349,-2.2405,-2.2515,-2.2676,-2.2868,-2.3126,-2.3435,-2.3664,-2.3896,-2.4096,-2.4284,-2.4462,-2.4629,-2.4813,-2.4974,-1.6534,-1.6534,-1.6534,-1.6534,-1.6534,-1.6534,-1.6534,-1.6534,-1.6534,-1.6534,-1.6534,-1.6534,-1.6534,-1.6491,-1.6504,-1.6455,-1.6287,-1.6044,-1.5635,-1.5244,-1.4834,-1.4566,-1.4386,-1.4159,-1.4053,-1.4244,-1.3932,-1.3821,-1.4002,-1.4326,-1.4587,-1.4395,-1.4008,-1.3668,-1.33,-1.3075,-1.2978,-1.2822,-1.2725,-1.2529,-1.2332,-1.2116,-1.1819,-1.1578,-1.1377,-1.1175,-1.0871,-1.0718,-1.0454,-1.0095,-0.9888,-0.9866,-0.9894,-0.9665,-0.9584,-0.9459,-0.9388,-0.9254,-0.9153,-0.913,-0.9127,-0.9159,-0.9309,-0.9577,-0.9888,-1.03,-1.0616,-1.082,-1.1226,-1.1569,-1.1868,-1.2175,-1.2559,-1.2987,-1.3372,-1.3789,-1.4305,-1.4892,-1.5433,-1.592,-1.6355,-1.671,-1.7312,-1.7881,-1.8394,-1.8907,-1.9244,-1.9588,-1.9925,-2.0254,-2.0478,-2.0697,-2.0942,-2.1198,-2.1386,-2.157,-2.1675,-2.1869,-2.1991,-2.2123,-2.2152,-2.2265,-2.2422,-2.2569,-2.2738,-2.2952,-2.3223,-2.3531,-2.3816,-2.4018,-2.4229,-2.4411,-2.458,-2.4783,-2.4993,-1.6534,-1.6534,-1.6534,-1.6534,-1.6534,-1.6534,-1.6534,-1.6534,-1.6534,-1.6534,-1.6534,-1.6534,-1.6534,-1.6491,-1.6448,-1.6262,-1.6044,-1.5691,-1.5289,-1.4789,-1.4302,-1.4005,-1.3803,-1.3545,-1.3302,-1.3312,-1.3224,-1.3263,-1.3213,-1.3391,-1.3468,-1.3278,-1.337,-1.3193,-1.3036,-1.292,-1.2832,-1.2676,-1.2529,-1.2274,-1.1977,-1.1719,-1.1469,-1.1074,-1.0922,-1.0667,-1.0154,-1.0095,-0.9888,-0.9524,-0.9316,-0.9354,-0.9398,-0.9118,-0.9054,-0.9067,-0.8937,-0.8794,-0.8695,-0.8775,-0.8884,-0.9015,-0.9159,-0.9316,-0.9569,-0.9769,-1.0079,-1.0462,-1.082,-1.1124,-1.1427,-1.1719,-1.2166,-1.2559,-1.2997,-1.3372,-1.3847,-1.4269,-1.4812,-1.5254,-1.5656,-1.6051,-1.6355,-1.6925,-1.7652,-1.8159,-1.8731,-1.9087,-1.9457,-1.9782,-1.998,-2.0208,-2.0462,-2.073,-2.0926,-2.1119,-2.137,-2.1554,-2.1738,-2.1857,-2.1928,-2.2077,-2.2265,-2.2432,-2.2579,-2.279,-2.3028,-2.3348,-2.3664,-2.3937,-2.4172,-2.4357,-2.458,-2.4779,-2.5019,-1.6534,-1.6534,-1.6534,-1.6534,-1.6534,-1.6534,-1.6534,-1.6534,-1.6534,-1.6534,-1.6534,-1.6534,-1.6534,-1.6479,-1.6392,-1.6262,-1.6001,-1.5635,-1.5153,-1.4697,-1.4244,-1.381,-1.3536,-1.3258,-1.3085,-1.2988,-1.2978,-1.2978,-1.2998,-1.2929,-1.2871,-1.2871,-1.2871,-1.2871,-1.2822,-1.2725,-1.2578,-1.2431,-1.2224,-1.1918,-1.1578,-1.1276,-1.0922,-1.0411,-1.036,-1.0095,-0.9725,-0.9524,-0.9316,-0.9054,-0.8844,-0.8895,-0.8991,-0.8712,-0.8651,-0.8692,-0.8552,-0.842,-0.8363,-0.8503,-0.8619,-0.8758,-0.8949,-0.9106,-0.9309,-0.951,-0.9718,-1.0035,-1.0403,-1.0718,-1.1023,-1.1418,-1.1819,-1.2274,-1.2666,-1.2997,-1.342,-1.3858,-1.4233,-1.472,-1.504,-1.5389,-1.57,-1.5996,-1.6727,-1.7462,-1.8042,-1.8567,-1.8898,-1.9236,-1.9442,-1.9717,-1.9965,-2.0292,-2.0496,-2.0795,-2.1071,-2.1261,-2.1448,-2.157,-2.1691,-2.1882,-2.2044,-2.2231,-2.246,-2.2659,-2.2902,-2.3223,-2.3508,-2.3813,-2.4077,-2.4303,-2.4545,-2.476,-2.4987,-1.6534,-1.6534,-1.6534,-1.6534,-1.6534,-1.6534,-1.6534,-1.6534,-1.6534,-1.6534,-1.6534,-1.6534,-1.6479,-1.6436,-1.6306,-1.6088,-1.5768,-1.5367,-1.496,-1.4466,-1.401,-1.3678,-1.3344,-1.3162,-1.2978,-1.2881,-1.2881,-1.2832,-1.2832,-1.2725,-1.2618,-1.2578,-1.2529,-1.248,-1.252,-1.2431,-1.2274,-1.2126,-1.1828,-1.1519,-1.1124,-1.0769,-1.0454,-0.994,-0.9888,-0.9629,-0.9316,-0.9106,-0.8962,-0.8639,-0.8432,-0.8392,-0.8408,-0.8427,-0.8265,-0.8258,-0.8221,-0.8073,-0.8149,-0.835,-0.8546,-0.8782,-0.8771,-0.8917,-0.9061,-0.9263,-0.9413,-0.9666,-1.0035,-1.0411,-1.0718,-1.1124,-1.1519,-1.1968,-1.2372,-1.2715,-1.3094,-1.3478,-1.3763,-1.4129,-1.4455,-1.4777,-1.5142,-1.5534,-1.6225,-1.6909,-1.7475,-1.7962,-1.8319,-1.8616,-1.8898,-1.9184,-1.9479,-1.9803,-2.01,-2.0361,-2.063,-2.0828,-2.1055,-2.1309,-2.1495,-2.1661,-2.1853,-2.2073,-2.2287,-2.2525,-2.2773,-2.3077,-2.3371,-2.3707,-2.3998,-2.4303,-2.4495,-2.4716,-2.4907,-1.6534,-1.6534,-1.6534,-1.6534,-1.6534,-1.6534,-1.6534,-1.6534,-1.6534,-1.6534,-1.6479,-1.6479,-1.6436,-1.6349,-1.6175,-1.5869,-1.5513,-1.5062,-1.4569,-1.4104,-1.3716,-1.3344,-1.3162,-1.2978,-1.2929,-1.2871,-1.2774,-1.2735,-1.2686,-1.2529,-1.2421,-1.2224,-1.2076,-1.2026,-1.2224,-1.2175,-1.1977,-1.1728,-1.1427,-1.1074,-1.0667,-1.0308,-0.994,-0.9621,-0.9465,-0.9211,-0.8949,-0.8745,-0.854,-0.8215,-0.7889,-0.7822,-0.8002,-0.7601,-0.7517,-0.7698,-0.7608,-0.759,-0.7653,-0.8172,-0.8539,-0.888,-0.8882,-0.8831,-0.8937,-0.9075,-0.9159,-0.9458,-0.9673,-0.9991,-1.0352,-1.082,-1.1226,-1.1678,-1.2126,-1.2471,-1.2852,-1.3152,-1.3488,-1.3678,-1.3915,-1.4197,-1.4616,-1.5108,-1.5756,-1.6355,-1.6934,-1.7352,-1.7707,-1.8042,-1.8319,-1.863,-1.8921,-1.9258,-1.9551,-1.9874,-2.0154,-2.0395,-2.0663,-2.0909,-2.1214,-2.1464,-2.1678,-2.1869,-2.2101,-2.2343,-2.2615,-2.2876,-2.3277,-2.3664,-2.4018,-2.4321,-2.4495,-2.4639,-2.4804,-1.6534,-1.6534,-1.6534,-1.6534,-1.6534,-1.6534,-1.6534,-1.6534,-1.6534,-1.6534,-1.6479,-1.6436,-1.6448,-1.6318,-1.6044,-1.5736,-1.5424,-1.4926,-1.443,-1.3962,-1.3563,-1.3286,-1.3113,-1.2929,-1.2822,-1.2774,-1.2725,-1.2578,-1.2431,-1.2274,-1.2076,-1.1868,-1.1469,-1.1427,-1.1528,-1.1528,-1.1326,-1.1175,-1.0863,-1.0557,-1.0138,-0.988,-0.9569,-0.9211,-0.9054,-0.8844,-0.8533,-0.8381,-0.8055,-0.7735,-0.7408,-0.7311,-0.7326,-0.7002,-0.6851,-0.7039,-0.7068,-0.7307,-0.7698,-0.8198,-0.8492,-0.878,-0.8944,-0.8934,-0.9085,-0.9044,-0.9088,-0.9204,-0.9465,-0.9777,-1.0154,-1.0667,-1.1124,-1.1678,-1.2076,-1.2421,-1.2715,-1.3017,-1.3268,-1.3354,-1.3498,-1.3821,-1.4186,-1.4523,-1.513,-1.5611,-1.6095,-1.6625,-1.7047,-1.7421,-1.7747,-1.8042,-1.8344,-1.8655,-1.8997,-1.9332,-1.9696,-1.9965,-2.0243,-2.053,-2.0844,-2.1183,-2.1481,-2.1738,-2.1957,-2.2186,-2.2535,-2.2876,-2.3271,-2.366,-2.3976,-2.421,-2.4356,-2.4528,-2.4719,-1.6233,-1.6258,-1.6446,-1.6534,-1.6534,-1.6534,-1.6534,-1.6534,-1.6534,-1.6491,-1.6491,-1.6392,-1.6306,-1.6144,-1.5824,-1.5468,-1.5198,-1.4708,-1.4233,-1.3821,-1.3488,-1.321,-1.3027,-1.2881,-1.2774,-1.2676,-1.2529,-1.2382,-1.2175,-1.1927,-1.1619,-1.1217,-1.0863,-1.071,-1.0761,-1.0769,-1.082,-1.0616,-1.0352,-1.0087,-0.9725,-0.9413,-0.9204,-0.8956,-0.8699,-0.8434,-0.8162,-0.7895,-0.7574,-0.7246,-0.6981,-0.6723,-0.6643,-0.6487,-0.6273,-0.6365,-0.6654,-0.692,-0.7399,-0.8052,-0.8409,-0.8926,-0.9047,-0.9141,-0.9147,-0.9126,-0.9071,-0.9162,-0.933,-0.9569,-0.9888,-1.0454,-1.0922,-1.1427,-1.1828,-1.2175,-1.252,-1.2774,-1.3027,-1.3123,-1.322,-1.3498,-1.3763,-1.4046,-1.4501,-1.4858,-1.5254,-1.5788,-1.6324,-1.6795,-1.7214,-1.7503,-1.7787,-1.8187,-1.85,-1.8808,-1.9169,-1.9515,-1.9823,-2.0139,-2.0563,-2.0909,-2.1246,-2.1556,-2.1811,-2.213,-2.2508,-2.2919,-2.3241,-2.3526,-2.3831,-2.4037,-2.421,-2.4426,-2.4626,-1.5668,-1.5756,-1.6245,-1.6421,-1.6434,-1.6396,-1.6471,-1.6522,-1.6479,-1.6436,-1.6392,-1.6349,-1.6132,-1.5836,-1.5558,-1.5198,-1.4743,-1.4255,-1.3868,-1.3488,-1.3258,-1.3075,-1.2929,-1.2783,-1.2676,-1.2529,-1.2323,-1.2076,-1.1819,-1.1368,-1.0922,-1.0565,-1.0205,-1.0043,-1.0043,-1.0146,-1.0198,-1.0043,-0.988,-0.9621,-0.9361,-0.9061,-0.8903,-0.8646,-0.8381,-0.8055,-0.7783,-0.7515,-0.7139,-0.681,-0.6445,-0.6193,-0.5961,-0.5791,-0.572,-0.584,-0.6217,-0.6593,-0.7134,-0.7737,-0.8382,-0.8891,-0.9162,-0.9221,-0.923,-0.9263,-0.9207,-0.9146,-0.9277,-0.9411,-0.9629,-1.0095,-1.0522,-1.1023,-1.1477,-1.1877,-1.2274,-1.2578,-1.2832,-1.2978,-1.3085,-1.3268,-1.344,-1.3716,-1.3999,-1.4176,-1.4582,-1.4994,-1.5579,-1.6238,-1.6625,-1.6993,-1.7325,-1.7707,-1.8028,-1.8344,-1.8693,-1.9058,-1.9479,-1.9803,-2.0208,-2.063,-2.1007,-2.1355,-2.1691,-2.2073,-2.248,-2.2816,-2.3095,-2.3412,-2.3703,-2.3955,-2.4172,-2.4392,-2.4594,-1.5103,-1.5128,-1.5291,-1.5354,-1.5404,-1.5768,-1.6145,-1.6441,-1.6436,-1.6405,-1.6392,-1.61,-1.5869,-1.5647,-1.5277,-1.4869,-1.4466,-1.4057,-1.3668,-1.3344,-1.3123,-1.3036,-1.2881,-1.2735,-1.2627,-1.2372,-1.2076,-1.1728,-1.1267,-1.0761,-1.0344,-0.9984,-0.9732,-0.9524,-0.9472,-0.9524,-0.9577,-0.9569,-0.9413,-0.9256,-0.9054,-0.8804,-0.8646,-0.8321,-0.7996,-0.7676,-0.73,-0.7025,-0.6647,-0.6154,-0.5941,-0.5712,-0.5558,-0.5378,-0.537,-0.5849,-0.6067,-0.635,-0.7007,-0.7526,-0.8161,-0.886,-0.9337,-0.9642,-0.9688,-0.9595,-0.9439,-0.9349,-0.9323,-0.9491,-0.9616,-0.9926,-1.0355,-1.0828,-1.1285,-1.1719,-1.2166,-1.2471,-1.2725,-1.2929,-1.3036,-1.3085,-1.321,-1.3392,-1.3621,-1.3668,-1.3905,-1.4316,-1.4812,-1.549,-1.6064,-1.6441,-1.6837,-1.7227,-1.7516,-1.7841,-1.8226,-1.8616,-1.9035,-1.9479,-1.9894,-2.0311,-2.0745,-2.1166,-2.157,-2.2032,-2.2443,-2.2738,-2.2944,-2.3265,-2.3589,-2.3871,-2.4133,-2.4339,-2.4561,-1.4588,-1.4614,-1.4828,-1.4903,-1.4966,-1.5268,-1.558,-1.5853,-1.6193,-1.6349,-1.6219,-1.5869,-1.5603,-1.5277,-1.4869,-1.4501,-1.414,-1.3763,-1.3382,-1.321,-1.3075,-1.2929,-1.2832,-1.2627,-1.2372,-1.2126,-1.1728,-1.1276,-1.0761,-1.0198,-0.9732,-0.9569,-0.9316,-0.9211,-0.9159,-0.9113,-0.9054,-0.9054,-0.9001,-0.8903,-0.8745,-0.854,-0.8275,-0.8002,-0.7622,-0.7192,-0.6869,-0.6539,-0.61,-0.5668,-0.5458,-0.5329,-0.525,-0.5151,-0.5264,-0.562,-0.5788,-0.6105,-0.6615,-0.7286,-0.7958,-0.8648,-0.9348,-0.9756,-0.9897,-0.9827,-0.9674,-0.9543,-0.9581,-0.9653,-0.9724,-0.9811,-1.0254,-1.0691,-1.1184,-1.1669,-1.2017,-1.2431,-1.2676,-1.2871,-1.2929,-1.2929,-1.3017,-1.3152,-1.319,-1.319,-1.3334,-1.36,-1.4154,-1.4801,-1.5389,-1.5888,-1.6337,-1.6748,-1.7073,-1.7406,-1.7801,-1.8226,-1.8655,-1.9095,-1.9536,-2.0035,-2.053,-2.1039,-2.1526,-2.1915,-2.2215,-2.248,-2.2721,-2.3077,-2.3453,-2.3725,-2.4016,-2.4266,-2.4495,-1.4022,-1.406,-1.4563,-1.4651,-1.4777,-1.4764,-1.4776,-1.4747,-1.5703,-1.6096,-1.5835,-1.5611,-1.5277,-1.4869,-1.4501,-1.4129,-1.3763,-1.343,-1.3248,-1.3075,-1.2978,-1.2881,-1.2686,-1.2431,-1.2224,-1.1828,-1.1368,-1.0913,-1.03,-0.9732,-0.9375,-0.9166,-0.9054,-0.9008,-0.8956,-0.885,-0.8791,-0.8732,-0.8685,-0.8586,-0.8421,-0.8162,-0.7788,-0.7568,-0.7139,-0.6712,-0.6381,-0.5996,-0.5614,-0.5403,-0.5187,-0.5077,-0.5065,-0.503,-0.5262,-0.5438,-0.5586,-0.5843,-0.6305,-0.694,-0.7581,-0.8289,-0.9103,-0.9572,-0.9725,-1.0089,-0.9967,-0.9793,-0.9809,-0.9692,-0.9701,-0.9832,-1.0158,-1.0522,-1.0871,-1.1418,-1.1927,-1.2323,-1.2676,-1.2822,-1.2822,-1.2832,-1.2774,-1.2861,-1.2764,-1.2764,-1.2754,-1.2977,-1.3351,-1.3956,-1.4606,-1.5254,-1.5812,-1.6262,-1.6693,-1.7031,-1.7447,-1.7841,-1.8266,-1.8731,-1.9258,-1.9788,-2.0361,-2.0795,-2.1261,-2.1584,-2.194,-2.2198,-2.2517,-2.2927,-2.3271,-2.3576,-2.3876,-2.4154,-2.4444,-1.3433,-1.3433,-1.3571,-1.3586,-1.3684,-1.411,-1.4212,-1.4125,-1.4639,-1.4974,-1.5119,-1.5068,-1.4869,-1.4512,-1.414,-1.3763,-1.3372,-1.3248,-1.3065,-1.2978,-1.2881,-1.2783,-1.2637,-1.2332,-1.2067,-1.1669,-1.1167,-1.0506,-0.988,-0.9368,-0.9113,-0.9061,-0.8903,-0.885,-0.885,-0.8692,-0.8633,-0.8521,-0.8262,-0.8162,-0.8002,-0.7836,-0.7568,-0.7139,-0.6712,-0.6337,-0.6005,-0.5732,-0.5454,-0.5183,-0.5128,-0.5083,-0.5087,-0.5067,-0.5229,-0.5475,-0.5536,-0.5763,-0.6083,-0.656,-0.7077,-0.7762,-0.8516,-0.9092,-0.9605,-1.0127,-1.0354,-1.0134,-0.9973,-0.9775,-0.9701,-0.9847,-1.0009,-1.0286,-1.0616,-1.1167,-1.1778,-1.2224,-1.2627,-1.2725,-1.2725,-1.2676,-1.2569,-1.2421,-1.2372,-1.2274,-1.2166,-1.2206,-1.2403,-1.2871,-1.3663,-1.4365,-1.5266,-1.5812,-1.6207,-1.6693,-1.7073,-1.7529,-1.8002,-1.8461,-1.8974,-1.9551,-2.0154,-2.053,-2.0926,-2.126,-2.1568,-2.1911,-2.2237,-2.2686,-2.3077,-2.3394,-2.375,-2.4057,-2.4338,-1.321,-1.321,-1.321,-1.321,-1.3261,-1.3536,-1.359,-1.3472,-1.3698,-1.382,-1.3953,-1.4234,-1.4372,-1.4143,-1.381,-1.3478,-1.3142,-1.3065,-1.2929,-1.2832,-1.2783,-1.2637,-1.2431,-1.2184,-1.1728,-1.1326,-1.0549,-0.988,-0.9413,-0.9106,-0.891,-0.8903,-0.8804,-0.8692,-0.8692,-0.858,-0.8421,-0.8268,-0.7949,-0.7681,-0.7526,-0.7306,-0.7139,-0.6712,-0.6332,-0.6009,-0.5736,-0.5513,-0.5293,-0.5124,-0.5128,-0.5093,-0.511,-0.5136,-0.5247,-0.5362,-0.5447,-0.5521,-0.5839,-0.6199,-0.6638,-0.7295,-0.8091,-0.8663,-0.9119,-0.9644,-1.0186,-1.0073,-1.0314,-1.0214,-0.9904,-0.9925,-0.9999,-1.0174,-1.0561,-1.1065,-1.1719,-1.2274,-1.2529,-1.2578,-1.2529,-1.2382,-1.2274,-1.2067,-1.1918,-1.1669,-1.1569,-1.1519,-1.1669,-1.1859,-1.2657,-1.3464,-1.4318,-1.522,-1.578,-1.6262,-1.6735,-1.7227,-1.772,-1.8266,-1.8769,-1.9406,-1.996,-2.0224,-2.053,-2.0845,-2.1181,-2.1507,-2.1982,-2.2429,-2.2816,-2.3199,-2.3558,-2.3919,-2.4248,-1.3232,-1.3232,-1.3198,-1.3198,-1.3163,-1.3154,-1.3015,-1.2865,-1.2933,-1.2839,-1.2721,-1.3412,-1.3695,-1.3683,-1.3525,-1.3258,-1.3065,-1.2871,-1.2783,-1.2686,-1.2627,-1.2421,-1.2126,-1.1778,-1.1318,-1.0702,-0.9932,-0.9472,-0.9061,-0.891,-0.8804,-0.8752,-0.8685,-0.8573,-0.8521,-0.8368,-0.8215,-0.7895,-0.7574,-0.73,-0.7036,-0.6771,-0.6603,-0.6277,-0.595,-0.5681,-0.5462,-0.5348,-0.5183,-0.5183,-0.5183,-0.5195,-0.5148,-0.5171,-0.5223,-0.5258,-0.515,-0.525,-0.5473,-0.5688,-0.6155,-0.674,-0.7581,-0.8193,-0.8567,-0.9146,-0.9668,-1.0078,-1.0262,-1.0314,-1.0005,-0.9966,-0.9976,-1.0008,-1.0474,-1.0964,-1.1619,-1.2175,-1.2274,-1.2372,-1.2224,-1.2085,-1.1877,-1.1669,-1.1418,-1.1116,-1.0913,-1.0913,-1.0964,-1.1209,-1.1633,-1.2453,-1.3263,-1.4168,-1.5175,-1.5869,-1.6337,-1.685,-1.7352,-1.7988,-1.8577,-1.9072,-1.9493,-1.9797,-2.01,-2.0379,-2.0747,-2.1119,-2.1612,-2.2091,-2.2493,-2.2892,-2.3394,-2.3753,-2.4098,-1.3425,-1.3357,-1.3279,-1.3163,-1.3129,-1.3107,-1.2967,-1.2709,-1.2591,-1.2519,-1.2441,-1.2294,-1.251,-1.3047,-1.3032,-1.292,-1.2774,-1.2627,-1.2578,-1.2529,-1.2372,-1.2175,-1.1819,-1.136,-1.0804,-1.0182,-0.9614,-0.9316,-0.8956,-0.8857,-0.8745,-0.8633,-0.8633,-0.8474,-0.8268,-0.8055,-0.7842,-0.7521,-0.7192,-0.6815,-0.6485,-0.6268,-0.6109,-0.5837,-0.5513,-0.5352,-0.5242,-0.5403,-0.5458,-0.5513,-0.5454,-0.5348,-0.5242,-0.5183,-0.5128,-0.5128,-0.5014,-0.5011,-0.5211,-0.5298,-0.569,-0.608,-0.6783,-0.733,-0.7859,-0.8483,-0.8935,-0.9415,-0.9618,-0.9875,-0.9728,-0.9891,-0.9939,-0.9962,-1.019,-1.0804,-1.1418,-1.1669,-1.1828,-1.1828,-1.1778,-1.1528,-1.1217,-1.0964,-1.071,-1.0395,-1.0131,-1.0131,-1.0079,-1.0387,-1.0702,-1.1475,-1.2248,-1.3358,-1.4457,-1.5322,-1.5901,-1.6466,-1.7018,-1.7666,-1.8226,-1.863,-1.9011,-1.931,-1.9566,-1.9823,-2.0208,-2.0697,-2.115,-2.1655,-2.2091,-2.2556,-2.3105,-2.3562,-2.3923]},{"header":{"parameterUnit":"m.s-1","parameterCategory":1,"la1":31.0,"la2":29.5877,"lo1":-88.7671,"lo2":-86.6584,"dy":0.0162,"dx":0.0185,"nx":115,"ny":88,"refTime":"2023-06-25T18:00:00:Z","depth":0,"parameterNumber":3,"parameterNumberName":"V-component_of_WINDS"},"data":[0.0,0.0,0.0,0.0,0.0,0.0,0.0,0.0,0.0,0.0,0.0,0.0,0.0,0.0,0.0,0.0,0.0,0.0,0.0,0.0,0.0,0.0,0.0,0.0,0.0,0.0,0.0,0.0,0.0,0.0,0.0,0.0,0.0,0.0,0.0,0.0,0.0,0.0,0.0,0.0,0.0,-2.0339,-2.027,-2.0185,-2.0185,-2.027,-2.0407,0.0,0.0,0.0,0.0,0.0,0.0,0.0,0.0,0.0,0.0,0.0,0.0,0.0,0.0,0.0,0.0,0.0,0.0,0.0,0.0,0.0,0.0,0.0,0.0,0.0,0.0,0.0,0.0,0.0,0.0,0.0,0.0,0.0,0.0,0.0,0.0,0.0,0.0,0.0,0.0,0.0,0.0,0.0,0.0,0.0,0.0,0.0,0.0,0.0,0.0,0.0,0.0,0.0,0.0,0.0,0.0,0.0,0.0,0.0,0.0,0.0,0.0,0.0,0.0,0.0,0.0,0.0,0.0,0.0,0.0,0.0,0.0,0.0,0.0,0.0,0.0,0.0,0.0,0.0,0.0,0.0,0.0,0.0,0.0,0.0,0.0,0.0,0.0,0.0,0.0,0.0,0.0,0.0,0.0,0.0,0.0,0.0,0.0,0.0,0.0,0.0,0.0,0.0,0.0,0.0,0.0,0.0,0.0,0.0,0.0,-2.0185,-2.0304,-2.0339,-2.0407,-2.0561,0.0,0.0,0.0,0.0,0.0,0.0,0.0,0.0,0.0,0.0,0.0,0.0,0.0,0.0,0.0,0.0,0.0,0.0,0.0,0.0,0.0,0.0,0.0,0.0,0.0,0.0,0.0,0.0,0.0,0.0,0.0,0.0,0.0,0.0,0.0,0.0,0.0,0.0,0.0,0.0,0.0,0.0,0.0,0.0,0.0,0.0,0.0,0.0,0.0,0.0,0.0,0.0,0.0,0.0,0.0,0.0,0.0,0.0,0.0,0.0,0.0,0.0,0.0,0.0,0.0,0.0,0.0,0.0,0.0,0.0,0.0,0.0,0.0,0.0,0.0,0.0,0.0,0.0,0.0,0.0,0.0,0.0,0.0,0.0,0.0,0.0,0.0,0.0,0.0,0.0,0.0,0.0,0.0,0.0,0.0,0.0,0.0,0.0,0.0,0.0,0.0,0.0,0.0,0.0,0.0,0.0,0.0,0.0,0.0,0.0,-2.0354,-2.0388,-2.0509,-2.0677,-2.0795,0.0,0.0,0.0,0.0,0.0,0.0,0.0,0.0,0.0,0.0,0.0,0.0,0.0,0.0,0.0,0.0,0.0,0.0,0.0,0.0,0.0,0.0,0.0,0.0,0.0,0.0,0.0,0.0,0.0,0.0,0.0,0.0,0.0,0.0,0.0,0.0,0.0,0.0,0.0,0.0,0.0,0.0,0.0,0.0,0.0,0.0,0.0,0.0,0.0,0.0,0.0,0.0,0.0,0.0,0.0,0.0,0.0,0.0,0.0,0.0,0.0,0.0,0.0,0.0,0.0,0.0,0.0,0.0,0.0,0.0,0.0,0.0,0.0,0.0,0.0,0.0,0.0,0.0,0.0,0.0,0.0,0.0,0.0,0.0,0.0,0.0,0.0,0.0,0.0,0.0,0.0,0.0,0.0,0.0,0.0,0.0,0.0,0.0,0.0,0.0,0.0,0.0,0.0,0.0,0.0,0.0,0.0,0.0,0.0,0.0,-2.0388,-2.0441,-2.061,-2.0826,-2.1023,-2.1277,0.0,0.0,0.0,0.0,0.0,0.0,0.0,0.0,0.0,0.0,0.0,0.0,0.0,0.0,0.0,0.0,0.0,0.0,0.0,0.0,0.0,0.0,0.0,0.0,0.0,0.0,0.0,0.0,0.0,0.0,0.0,0.0,0.0,0.0,0.0,0.0,0.0,0.0,0.0,0.0,0.0,0.0,0.0,0.0,0.0,0.0,0.0,0.0,0.0,0.0,0.0,0.0,0.0,0.0,0.0,0.0,0.0,0.0,0.0,0.0,0.0,0.0,0.0,0.0,0.0,0.0,0.0,0.0,0.0,0.0,0.0,0.0,0.0,0.0,0.0,0.0,0.0,0.0,0.0,0.0,0.0,0.0,0.0,0.0,0.0,0.0,0.0,0.0,0.0,0.0,0.0,0.0,0.0,0.0,0.0,0.0,0.0,0.0,0.0,0.0,0.0,0.0,0.0,0.0,0.0,0.0,0.0,0.0,0.0,-2.0474,-2.069,-2.0761,-2.0952,-2.1279,-2.1467,0.0,0.0,0.0,0.0,0.0,0.0,0.0,0.0,0.0,0.0,0.0,0.0,0.0,0.0,0.0,0.0,0.0,0.0,0.0,0.0,0.0,0.0,0.0,0.0,0.0,0.0,0.0,0.0,0.0,0.0,0.0,0.0,0.0,0.0,0.0,0.0,0.0,0.0,0.0,0.0,0.0,0.0,0.0,0.0,0.0,0.0,0.0,0.0,0.0,0.0,0.0,0.0,0.0,0.0,0.0,0.0,0.0,0.0,0.0,0.0,0.0,0.0,0.0,0.0,0.0,0.0,0.0,0.0,0.0,0.0,0.0,0.0,0.0,0.0,0.0,0.0,0.0,0.0,0.0,0.0,0.0,0.0,0.0,0.0,0.0,0.0,0.0,0.0,0.0,0.0,0.0,0.0,0.0,0.0,0.0,0.0,0.0,0.0,0.0,0.0,0.0,0.0,0.0,0.0,0.0,0.0,0.0,0.0,0.0,-2.1,-2.1576,-2.1347,-2.1374,-2.1704,-2.1568,0.0,0.0,0.0,0.0,0.0,0.0,0.0,0.0,0.0,0.0,0.0,0.0,0.0,0.0,0.0,0.0,0.0,0.0,0.0,0.0,0.0,0.0,0.0,0.0,0.0,0.0,0.0,0.0,0.0,0.0,0.0,0.0,0.0,0.0,0.0,0.0,0.0,0.0,0.0,0.0,0.0,0.0,0.0,0.0,0.0,0.0,0.0,0.0,0.0,0.0,0.0,0.0,0.0,0.0,0.0,0.0,0.0,0.0,0.0,0.0,0.0,0.0,0.0,0.0,0.0,0.0,0.0,0.0,0.0,0.0,0.0,0.0,0.0,0.0,0.0,0.0,0.0,0.0,0.0,0.0,0.0,0.0,0.0,0.0,0.0,0.0,0.0,0.0,0.0,0.0,0.0,0.0,0.0,0.0,0.0,0.0,0.0,0.0,0.0,0.0,0.0,0.0,0.0,0.0,0.0,0.0,0.0,0.0,0.0,-2.1055,-2.1401,-2.1407,-2.1415,-2.151,-2.1593,0.0,0.0,0.0,0.0,0.0,0.0,0.0,0.0,0.0,0.0,0.0,0.0,0.0,0.0,0.0,0.0,0.0,0.0,0.0,0.0,0.0,0.0,0.0,0.0,0.0,0.0,0.0,0.0,0.0,0.0,0.0,0.0,0.0,0.0,0.0,0.0,0.0,0.0,0.0,0.0,0.0,0.0,0.0,0.0,0.0,0.0,0.0,0.0,0.0,0.0,0.0,0.0,0.0,0.0,0.0,0.0,0.0,0.0,0.0,0.0,0.0,0.0,0.0,0.0,0.0,0.0,0.0,0.0,0.0,0.0,0.0,0.0,0.0,0.0,0.0,0.0,0.0,0.0,0.0,0.0,0.0,0.0,0.0,0.0,0.0,0.0,0.0,0.0,0.0,0.0,0.0,0.0,0.0,0.0,0.0,0.0,0.0,0.0,0.0,0.0,0.0,0.0,0.0,0.0,0.0,0.0,0.0,0.0,-2.0443,-2.0798,-2.0997,-2.1218,-2.1277,-2.1152,-2.144,0.0,0.0,0.0,0.0,0.0,0.0,0.0,0.0,0.0,0.0,0.0,0.0,0.0,0.0,0.0,0.0,0.0,0.0,0.0,0.0,0.0,0.0,0.0,0.0,0.0,0.0,0.0,0.0,0.0,0.0,0.0,0.0,0.0,0.0,0.0,0.0,0.0,0.0,0.0,0.0,0.0,0.0,0.0,0.0,0.0,0.0,0.0,0.0,0.0,0.0,0.0,0.0,0.0,0.0,0.0,0.0,0.0,0.0,0.0,0.0,0.0,0.0,0.0,0.0,0.0,0.0,0.0,0.0,0.0,0.0,0.0,0.0,0.0,0.0,0.0,0.0,0.0,0.0,0.0,0.0,0.0,0.0,0.0,0.0,0.0,0.0,0.0,0.0,0.0,0.0,0.0,0.0,0.0,0.0,0.0,0.0,0.0,0.0,0.0,0.0,0.0,0.0,0.0,0.0,0.0,0.0,0.0,-2.0225,-2.0113,-2.0274,-2.086,-2.074,-2.0857,-2.1341,-2.0897,0.0,0.0,0.0,0.0,0.0,0.0,0.0,0.0,0.0,0.0,0.0,0.0,0.0,0.0,0.0,0.0,0.0,0.0,0.0,0.0,0.0,0.0,0.0,0.0,0.0,0.0,0.0,0.0,0.0,0.0,0.0,0.0,0.0,0.0,0.0,0.0,0.0,0.0,0.0,0.0,0.0,0.0,0.0,0.0,0.0,0.0,0.0,0.0,0.0,0.0,0.0,0.0,0.0,0.0,0.0,0.0,0.0,0.0,0.0,0.0,0.0,0.0,0.0,0.0,0.0,0.0,0.0,0.0,0.0,0.0,0.0,0.0,0.0,0.0,0.0,0.0,0.0,0.0,0.0,0.0,0.0,0.0,0.0,0.0,0.0,0.0,0.0,0.0,0.0,0.0,0.0,0.0,0.0,0.0,0.0,0.0,0.0,0.0,0.0,0.0,0.0,0.0,0.0,0.0,0.0,0.0,-1.8904,-1.9233,-1.929,-1.9515,-2.006,-2.0235,-2.0335,-2.0473,-2.0217,0.0,0.0,0.0,0.0,0.0,0.0,0.0,0.0,0.0,0.0,0.0,0.0,0.0,0.0,0.0,0.0,0.0,0.0,0.0,0.0,0.0,0.0,0.0,0.0,0.0,0.0,0.0,0.0,0.0,0.0,0.0,0.0,0.0,0.0,0.0,0.0,0.0,0.0,0.0,0.0,0.0,0.0,0.0,0.0,0.0,0.0,0.0,0.0,0.0,0.0,0.0,0.0,0.0,0.0,0.0,0.0,0.0,0.0,0.0,0.0,0.0,0.0,0.0,0.0,0.0,0.0,0.0,0.0,0.0,0.0,0.0,0.0,0.0,0.0,0.0,0.0,0.0,0.0,0.0,0.0,0.0,0.0,0.0,0.0,0.0,0.0,0.0,0.0,0.0,0.0,0.0,0.0,0.0,0.0,0.0,0.0,0.0,0.0,0.0,0.0,0.0,0.0,0.0,0.0,0.0,0.0,-1.7816,-1.7841,-1.7967,-1.8214,-1.8555,-1.9073,-1.935,-1.9416,0.0,0.0,0.0,0.0,0.0,0.0,0.0,0.0,0.0,0.0,0.0,0.0,0.0,0.0,0.0,0.0,0.0,0.0,0.0,0.0,0.0,0.0,0.0,0.0,0.0,0.0,0.0,0.0,0.0,0.0,0.0,0.0,0.0,0.0,0.0,0.0,0.0,0.0,0.0,0.0,0.0,0.0,0.0,0.0,0.0,0.0,0.0,0.0,0.0,0.0,0.0,0.0,0.0,0.0,0.0,0.0,0.0,0.0,0.0,0.0,0.0,0.0,0.0,0.0,0.0,0.0,0.0,0.0,0.0,0.0,0.0,0.0,0.0,0.0,0.0,0.0,0.0,0.0,0.0,0.0,0.0,0.0,0.0,0.0,0.0,0.0,0.0,0.0,0.0,0.0,0.0,0.0,0.0,0.0,0.0,0.0,0.0,0.0,0.0,0.0,0.0,0.0,0.0,0.0,0.0,0.0,0.0,-1.6265,-1.6335,-1.5932,-1.5839,-1.6012,-1.671,-1.7482,-1.846,0.0,0.0,0.0,0.0,0.0,0.0,0.0,0.0,0.0,0.0,0.0,0.0,0.0,0.0,0.0,0.0,0.0,0.0,0.0,0.0,0.0,0.0,0.0,0.0,0.0,0.0,0.0,0.0,0.0,0.0,0.0,0.0,0.0,0.0,0.0,0.0,0.0,0.0,0.0,0.0,0.0,0.0,0.0,0.0,0.0,0.0,0.0,0.0,0.0,0.0,0.0,0.0,0.0,0.0,0.0,0.0,0.0,0.0,0.0,0.0,0.0,0.0,0.0,0.0,0.0,0.0,0.0,0.0,0.0,0.0,0.0,0.0,0.0,0.0,0.0,0.0,0.0,0.0,0.0,0.0,0.0,0.0,0.0,0.0,0.0,0.0,0.0,0.0,0.0,0.0,0.0,0.0,0.0,0.0,0.0,0.0,0.0,0.0,0.0,0.0,0.0,0.0,0.0,0.0,0.0,0.0,-1.4867,-1.4083,-1.417,-1.3703,-1.3808,-1.4513,-1.5652,-1.6693,-1.7595,0.0,0.0,0.0,0.0,0.0,0.0,0.0,0.0,0.0,0.0,0.0,0.0,0.0,0.0,0.0,0.0,0.0,0.0,0.0,0.0,0.0,0.0,0.0,0.0,0.0,0.0,0.0,0.0,0.0,0.0,0.0,0.0,0.0,0.0,0.0,0.0,0.0,0.0,0.0,0.0,0.0,0.0,0.0,0.0,0.0,0.0,0.0,0.0,0.0,0.0,0.0,0.0,0.0,0.0,0.0,0.0,0.0,0.0,0.0,0.0,0.0,0.0,0.0,0.0,0.0,0.0,0.0,0.0,0.0,0.0,0.0,0.0,0.0,0.0,0.0,0.0,0.0,0.0,0.0,0.0,0.0,0.0,0.0,0.0,0.0,0.0,0.0,0.0,0.0,0.0,0.0,0.0,0.0,0.0,0.0,0.0,0.0,0.0,0.0,0.0,0.0,0.0,0.0,0.0,0.0,-1.4542,-1.2737,-1.1725,-1.1517,-1.1132,-1.1601,-1.2899,-1.4286,-1.5443,-1.6394,0.0,0.0,0.0,0.0,0.0,0.0,0.0,0.0,0.0,0.0,0.0,0.0,0.0,0.0,0.0,0.0,0.0,0.0,0.0,0.0,0.0,0.0,0.0,0.0,0.0,0.0,0.0,0.0,0.0,0.0,0.0,0.0,0.0,0.0,0.0,0.0,0.0,0.0,0.0,0.0,0.0,0.0,0.0,0.0,0.0,0.0,0.0,0.0,0.0,0.0,0.0,0.0,0.0,0.0,0.0,0.0,0.0,0.0,0.0,0.0,0.0,0.0,0.0,0.0,0.0,0.0,0.0,0.0,0.0,0.0,0.0,0.0,0.0,0.0,0.0,0.0,0.0,0.0,0.0,0.0,0.0,0.0,0.0,0.0,0.0,0.0,0.0,0.0,0.0,0.0,0.0,0.0,0.0,0.0,0.0,0.0,0.0,0.0,0.0,0.0,0.0,0.0,0.0,0.0,0.0,0.0,-1.0744,-0.9316,-0.851,-0.825,-0.9013,-1.0921,-1.1966,-1.3172,-1.4642,0.0,0.0,0.0,0.0,0.0,0.0,0.0,0.0,0.0,0.0,0.0,0.0,0.0,0.0,0.0,0.0,0.0,0.0,0.0,0.0,0.0,0.0,0.0,0.0,0.0,0.0,0.0,0.0,0.0,0.0,0.0,0.0,0.0,0.0,0.0,0.0,0.0,0.0,0.0,0.0,0.0,0.0,0.0,0.0,0.0,0.0,0.0,0.0,0.0,0.0,0.0,0.0,0.0,0.0,0.0,0.0,0.0,0.0,0.0,0.0,0.0,0.0,0.0,0.0,0.0,0.0,0.0,0.0,0.0,0.0,0.0,0.0,0.0,0.0,0.0,0.0,0.0,0.0,0.0,0.0,0.0,0.0,0.0,0.0,0.0,0.0,0.0,0.0,0.0,0.0,0.0,0.0,0.0,0.0,0.0,0.0,0.0,0.0,0.0,0.0,0.0,0.0,0.0,0.0,0.0,0.0,-0.7521,-0.6514,-0.5569,-0.6263,-0.7507,-0.9086,-1.0642,-1.2168,-1.3513,0.0,0.0,0.0,0.0,0.0,0.0,0.0,0.0,0.0,0.0,0.0,0.0,0.0,0.0,0.0,0.0,0.0,0.0,0.0,0.0,0.0,0.0,0.0,0.0,0.0,0.0,0.0,0.0,0.0,0.0,0.0,0.0,0.0,0.0,0.0,0.0,0.0,0.0,0.0,0.0,0.0,0.0,0.0,0.0,0.0,0.0,0.0,0.0,0.0,0.0,0.0,0.0,0.0,0.0,0.0,0.0,0.0,0.0,0.0,0.0,0.0,0.0,0.0,0.0,0.0,0.0,0.0,0.0,0.0,0.0,0.0,0.0,0.0,0.0,0.0,0.0,0.0,0.0,0.0,0.0,0.0,0.0,0.0,0.0,0.0,0.0,0.0,0.0,0.0,0.0,0.0,0.0,0.0,0.0,0.0,0.0,0.0,0.0,0.0,0.0,0.0,0.0,0.0,0.0,0.0,0.0,-0.4985,-0.4172,-0.3137,-0.4418,-0.5911,-0.7575,-0.9516,-1.1115,0.0,0.0,0.0,0.0,0.0,0.0,0.0,0.0,0.0,0.0,0.0,0.0,0.0,0.0,0.0,0.0,0.0,0.0,0.0,0.0,0.0,0.0,0.0,0.0,0.0,0.0,0.0,0.0,0.0,0.0,0.0,0.0,0.0,0.0,0.0,0.0,0.0,0.0,0.0,0.0,0.0,0.0,0.0,0.0,0.0,0.0,0.0,0.0,0.0,0.0,0.0,0.0,0.0,0.0,0.0,0.0,0.0,0.0,0.0,0.0,0.0,0.0,0.0,0.0,0.0,0.0,0.0,0.0,0.0,0.0,0.0,0.0,0.0,0.0,0.0,0.0,0.0,0.0,0.0,0.0,0.0,0.0,0.0,0.0,0.0,0.0,0.0,0.0,0.0,0.0,0.0,0.0,0.0,0.0,0.0,0.0,0.0,0.0,0.0,0.0,0.0,0.0,0.0,0.0,0.0,0.0,0.0,-0.3033,-0.2226,-0.1292,-0.2611,-0.4361,-0.641,-0.8313,-1.0062,0.0,0.0,0.0,0.0,0.0,0.0,0.0,0.0,0.0,0.0,0.0,0.0,0.0,0.0,0.0,0.0,0.0,0.0,0.0,0.0,0.0,0.0,0.0,0.0,0.0,0.0,0.0,0.0,0.0,0.0,0.0,0.0,0.0,0.0,0.0,0.0,0.0,0.0,0.0,0.0,0.0,0.0,0.0,0.0,0.0,0.0,0.0,0.0,0.0,0.0,0.0,0.0,0.0,0.0,0.0,0.0,0.0,0.0,0.0,0.0,0.0,0.0,0.0,0.0,0.0,0.0,0.0,0.0,0.0,0.0,0.0,0.0,0.0,0.0,0.0,0.0,0.0,0.0,0.0,0.0,0.0,0.0,0.0,0.0,0.0,0.0,0.0,0.0,0.0,0.0,0.0,0.0,0.0,0.0,0.0,0.0,0.0,0.0,0.0,0.0,0.0,0.0,0.0,0.0,0.0,0.0,0.0,0.0925,0.1068,0.0346,-0.1262,-0.3187,-0.552,-0.7644,-0.9662,-1.1372,0.0,0.0,0.0,0.0,0.0,0.0,0.0,0.0,0.0,0.0,0.0,0.0,0.0,0.0,0.0,0.0,0.0,0.0,0.0,0.0,0.0,0.0,0.0,0.0,0.0,0.0,0.0,0.0,0.0,0.0,0.0,0.0,0.0,0.0,0.0,0.0,0.0,0.0,0.0,0.0,0.0,0.0,0.0,0.0,0.0,0.0,0.0,0.0,0.0,0.0,0.0,0.0,0.0,0.0,0.0,0.0,0.0,0.0,0.0,0.0,0.0,0.0,0.0,0.0,0.0,0.0,0.0,0.0,0.0,0.0,0.0,0.0,0.0,0.0,0.0,0.0,0.0,0.0,0.0,0.0,0.0,0.0,0.0,0.0,0.0,0.0,0.0,0.0,0.0,0.0,0.0,0.0,0.0,0.0,0.0,0.0,0.0,0.0,0.0,0.0,0.0,0.0,0.0,0.0,0.0,0.0,0.316,0.2831,0.1257,-0.0467,-0.2648,-0.5408,-0.7577,-0.9625,-1.1632,0.0,0.0,0.0,0.0,0.0,0.0,0.0,0.0,0.0,0.0,0.0,0.0,0.0,0.0,0.0,0.0,0.0,0.0,0.0,0.0,0.0,0.0,0.0,0.0,0.0,0.0,0.0,0.0,0.0,0.0,0.0,0.0,0.0,0.0,0.0,0.0,0.0,0.0,0.0,0.0,0.0,0.0,0.0,0.0,0.0,0.0,0.0,0.0,0.0,0.0,0.0,0.0,0.0,0.0,0.0,0.0,0.0,0.0,0.0,0.0,0.0,0.0,0.0,0.0,0.0,0.0,0.0,0.0,0.0,0.0,0.0,0.0,0.0,0.0,0.0,0.0,0.0,0.0,0.0,0.0,0.0,0.0,0.0,0.0,0.0,0.0,0.0,0.0,0.0,0.0,0.0,0.0,0.0,0.0,0.0,0.0,0.0,0.0,0.0,0.0,0.0,0.0,0.0,0.0,0.0,0.0,0.0,0.3343,0.1528,-0.0198,-0.2715,-0.6009,-0.7875,-0.9921,-1.2209,0.0,0.0,0.0,0.0,0.0,0.0,0.0,0.0,0.0,0.0,0.0,0.0,0.0,0.0,0.0,0.0,0.0,0.0,0.0,0.0,0.0,0.0,0.0,0.0,0.0,0.0,0.0,0.0,0.0,0.0,0.0,0.0,0.0,0.0,0.0,0.0,0.0,0.0,0.0,0.0,0.0,0.0,0.0,0.0,0.0,0.0,0.0,0.0,0.0,0.0,0.0,0.0,0.0,0.0,0.0,0.0,0.0,0.0,0.0,0.0,0.0,0.0,0.0,0.0,0.0,0.0,0.0,0.0,0.0,0.0,0.0,0.0,0.0,0.0,0.0,0.0,0.0,0.0,0.0,0.0,0.0,0.0,0.0,0.0,0.0,0.0,0.0,0.0,0.0,0.0,0.0,0.0,0.0,0.0,0.0,0.0,0.0,0.0,0.0,0.0,0.0,0.0,0.0,0.0,0.0,0.0,0.3928,0.2999,0.1111,-0.0518,-0.2686,-0.5522,-0.7695,-0.9744,-1.1712,0.0,0.0,0.0,0.0,0.0,0.0,0.0,0.0,0.0,0.0,0.0,0.0,0.0,0.0,0.0,0.0,0.0,0.0,0.0,0.0,0.0,0.0,0.0,0.0,0.0,0.0,0.0,0.0,0.0,0.0,0.0,0.0,0.0,0.0,0.0,0.0,0.0,0.0,0.0,0.0,0.0,0.0,0.0,0.0,0.0,0.0,0.0,0.0,0.0,0.0,0.0,0.0,0.0,0.0,0.0,0.0,0.0,0.0,0.0,0.0,0.0,0.0,0.0,0.0,0.0,0.0,0.0,0.0,0.0,0.0,0.0,0.0,0.0,0.0,0.0,0.0,0.0,0.0,0.0,0.0,0.0,0.0,0.0,0.0,0.0,0.0,0.0,0.0,0.0,0.0,0.0,0.0,0.0,0.0,0.0,0.0,0.0,0.0,0.0,0.0,0.0,0.0,0.0,0.0,0.0,0.0,0.3939,0.3057,0.1021,-0.0625,-0.2702,-0.5487,-0.7664,-0.9862,-1.22,0.0,0.0,0.0,0.0,0.0,0.0,0.0,0.0,0.0,0.0,0.0,0.0,0.0,0.0,0.0,0.0,0.0,0.0,0.0,0.0,0.0,0.0,0.0,0.0,0.0,0.0,0.0,0.0,0.0,0.0,0.0,0.0,0.0,0.0,0.0,0.0,0.0,0.0,0.0,0.0,0.0,0.0,0.0,0.0,0.0,0.0,0.0,0.0,-1.6524,0.0,0.0,0.0,0.0,0.0,0.0,0.0,0.0,0.0,0.0,0.0,0.0,0.0,0.0,0.0,0.0,0.0,0.0,0.0,0.0,0.0,0.0,0.0,0.0,0.0,0.0,0.0,0.0,0.0,0.0,0.0,0.0,0.0,0.0,0.0,0.0,0.0,0.0,0.0,0.0,0.0,0.0,0.0,0.0,0.0,0.0,0.0,0.0,0.0,0.0,0.0,0.0,0.0,0.0,0.0,0.2435,0.3547,0.387,0.3052,0.101,-0.0513,-0.2789,-0.5674,-0.7669,-1.0152,-1.313,0.0,0.0,0.0,0.0,0.0,0.0,0.0,0.0,0.0,0.0,0.0,0.0,0.0,0.0,0.0,0.0,0.0,0.0,0.0,0.0,0.0,0.0,0.0,0.0,0.0,0.0,0.0,0.0,0.0,0.0,0.0,0.0,0.0,0.0,0.0,0.0,0.0,0.0,0.0,0.0,0.0,0.0,0.0,0.0,0.0,0.0,0.0,-1.542,-1.6136,0.0,0.0,0.0,0.0,0.0,0.0,0.0,0.0,0.0,0.0,0.0,0.0,0.0,0.0,0.0,0.0,0.0,0.0,0.0,0.0,0.0,0.0,0.0,0.0,0.0,0.0,0.0,-2.7178,0.0,-2.577,0.0,0.0,0.0,0.0,0.0,0.0,0.0,0.0,0.0,0.0,0.0,0.0,0.0,0.0,0.0,0.0,0.0,0.0,0.0,0.0,0.0,0.0,0.0,0.0,-0.015,0.219,0.3708,0.3425,0.2434,0.0823,-0.093,-0.3307,-0.6292,-0.7967,-1.0113,-1.2709,0.0,0.0,0.0,0.0,0.0,0.0,0.0,0.0,0.0,0.0,0.0,0.0,0.0,0.0,0.0,0.0,0.0,0.0,0.0,0.0,0.0,0.0,0.0,0.0,0.0,0.0,0.0,0.0,0.0,0.0,0.0,0.0,0.0,0.0,0.0,0.0,0.0,0.0,0.0,0.0,0.0,0.0,0.0,0.0,0.0,0.0,0.0,-1.508,0.0,0.0,0.0,0.0,0.0,0.0,0.0,0.0,0.0,0.0,0.0,0.0,0.0,0.0,0.0,0.0,0.0,0.0,0.0,0.0,0.0,0.0,0.0,0.0,0.0,0.0,0.0,0.0,-2.7487,-2.7204,-2.6312,0.0,0.0,0.0,0.0,0.0,0.0,0.0,0.0,0.0,0.0,0.0,0.0,0.0,0.0,0.0,0.0,0.0,0.0,0.0,0.0,0.0,0.0,0.0,-0.3692,-0.068,0.1556,0.3129,0.2895,0.2048,0.0408,-0.1227,-0.3469,-0.6305,-0.8021,-1.02,-1.3147,0.0,0.0,0.0,0.0,0.0,0.0,0.0,0.0,0.0,0.0,0.0,0.0,0.0,0.0,0.0,0.0,0.0,0.0,0.0,0.0,0.0,0.0,0.0,0.0,0.0,0.0,0.0,0.0,0.0,0.0,0.0,0.0,0.0,0.0,0.0,0.0,0.0,-0.5414,-0.3484,0.0,0.0,0.0,0.0,0.0,0.0,0.0,0.0,-1.4958,-1.6644,0.0,0.0,0.0,0.0,0.0,0.0,0.0,0.0,0.0,0.0,0.0,0.0,0.0,0.0,0.0,0.0,0.0,0.0,0.0,0.0,0.0,0.0,0.0,0.0,0.0,0.0,0.0,-2.7535,-2.7406,-2.6835,0.0,0.0,0.0,0.0,0.0,0.0,0.0,0.0,0.0,0.0,0.0,0.0,0.0,0.0,0.0,0.0,0.0,0.0,0.0,0.0,0.0,0.0,0.0,-0.4531,-0.1508,0.0818,0.2234,0.2335,0.1552,0.0,-0.1411,-0.3623,-0.6418,-0.7999,-1.0504,-1.3873,0.0,0.0,0.0,0.0,0.0,0.0,0.0,0.0,0.0,0.0,0.0,0.0,0.0,0.0,0.0,0.0,0.0,0.0,0.0,0.0,0.0,0.0,0.0,0.0,0.0,0.0,0.0,0.0,0.0,0.0,0.0,0.0,0.0,0.0,0.0,0.0,0.0,-0.4661,-0.2477,-0.2227,-0.3006,0.0,0.0,0.0,0.0,0.0,0.0,0.0,-1.6507,-1.8184,-1.9509,0.0,0.0,0.0,0.0,0.0,0.0,0.0,0.0,0.0,0.0,0.0,0.0,0.0,0.0,0.0,0.0,0.0,0.0,0.0,0.0,0.0,0.0,0.0,0.0,0.0,-2.7413,-2.7192,-2.6457,0.0,0.0,0.0,0.0,0.0,0.0,0.0,0.0,0.0,0.0,0.0,0.0,0.0,0.0,0.0,0.0,0.0,0.0,0.0,0.0,0.0,0.0,0.0,0.0,-0.2636,-0.0245,0.1609,0.14,0.0777,-0.0302,-0.2116,-0.4323,-0.7012,-0.8376,-1.0779,-1.4295,-1.5345,0.0,0.0,0.0,0.0,0.0,0.0,0.0,0.0,0.0,0.0,0.0,0.0,0.0,0.0,0.0,0.0,0.0,0.0,0.0,0.0,0.0,0.0,0.0,0.0,0.0,0.0,0.0,0.0,0.0,0.0,0.0,0.0,0.0,0.0,0.0,0.0,-0.4144,-0.0458,-0.0483,-0.1498,-0.3238,0.0,0.0,0.0,0.0,0.0,-1.3618,-1.5643,-1.7758,-1.9712,-2.2119,0.0,0.0,0.0,0.0,0.0,0.0,0.0,0.0,0.0,0.0,0.0,0.0,0.0,0.0,0.0,0.0,0.0,0.0,0.0,0.0,0.0,0.0,0.0,0.0,-2.6922,-2.6828,-2.6422,-2.6065,-2.5178,0.0,0.0,0.0,0.0,-2.1368,0.0,0.0,0.0,0.0,0.0,0.0,0.0,0.0,0.0,0.0,0.0,0.0,0.0,0.0,0.0,0.0,0.0,-0.4204,-0.1791,0.0,0.0187,-0.0194,-0.1208,-0.262,-0.4726,-0.731,-0.857,-1.0871,-1.441,0.0,0.0,0.0,0.0,0.0,0.0,0.0,0.0,0.0,0.0,0.0,0.0,0.0,0.0,0.0,0.0,0.0,0.0,0.0,0.0,0.0,0.0,0.0,0.0,0.0,0.0,0.0,0.0,0.0,0.0,0.0,0.0,0.0,0.0,0.0,0.0,0.0,0.0,-0.0096,-0.04,-0.1439,-0.3024,-0.5205,-0.7319,-0.9114,-1.0435,-1.1707,-1.3086,-1.5114,-1.7353,-1.9728,0.0,0.0,0.0,0.0,0.0,0.0,0.0,0.0,0.0,0.0,0.0,0.0,0.0,0.0,0.0,0.0,0.0,0.0,0.0,0.0,0.0,0.0,0.0,0.0,0.0,0.0,-2.63,-2.616,-2.5786,-2.4928,-2.3795,0.0,0.0,0.0,-2.1349,-2.1117,0.0,0.0,0.0,0.0,0.0,0.0,0.0,0.0,0.0,0.0,0.0,0.0,0.0,0.0,0.0,0.0,-0.5905,-0.3491,-0.1695,-0.1026,-0.1262,-0.2113,-0.3425,-0.5227,-0.7611,-0.895,-1.1131,-1.4326,0.0,0.0,0.0,0.0,0.0,0.0,0.0,0.0,0.0,0.0,0.0,0.0,0.0,0.0,0.0,0.0,0.0,0.0,0.0,0.0,0.0,0.0,0.0,0.0,0.0,0.0,0.0,0.0,0.0,0.0,0.0,0.0,0.0,0.0,0.0,0.0,0.0,0.0,0.0,-0.0917,-0.1993,-0.3205,-0.4992,-0.685,-0.8501,-0.9648,-1.095,-1.2464,-1.4479,-1.6777,0.0,0.0,0.0,0.0,0.0,0.0,0.0,0.0,0.0,0.0,0.0,0.0,0.0,0.0,0.0,0.0,0.0,0.0,0.0,0.0,0.0,0.0,-2.5032,-2.4995,0.0,0.0,-2.5594,-2.5503,-2.5134,-2.476,-2.4205,-2.3543,-2.2966,-2.2579,0.0,-2.1777,-2.1486,-2.1318,0.0,0.0,0.0,0.0,0.0,0.0,0.0,0.0,0.0,0.0,0.0,0.0,0.0,0.0,0.0,0.0,-0.4937,-0.3027,-0.233,-0.2328,-0.2714,-0.4427,-0.6229,-0.7918,-0.9901,-1.1887,-1.4041,0.0,0.0,0.0,0.0,0.0,0.0,0.0,0.0,0.0,0.0,0.0,0.0,0.0,0.0,0.0,0.0,0.0,0.0,0.0,0.0,0.0,0.0,0.0,0.0,0.0,-1.3275,0.0,0.0,0.0,0.0,0.0,0.0,0.0,0.0,0.0,0.0,0.0,0.0,0.0,0.0,-0.247,-0.3428,-0.5068,-0.6674,-0.7924,-0.9176,-1.0391,-1.132,-1.3505,-1.5866,0.0,0.0,0.0,0.0,0.0,0.0,0.0,0.0,0.0,0.0,0.0,0.0,0.0,0.0,0.0,0.0,0.0,0.0,0.0,0.0,0.0,0.0,-2.5243,-2.5549,-2.5768,-2.5837,-2.5822,-2.5404,-2.4694,-2.4264,-2.3629,-2.2844,-2.248,-2.2263,-2.2123,-2.1935,-2.1759,-2.165,0.0,0.0,0.0,0.0,0.0,0.0,0.0,0.0,0.0,0.0,0.0,0.0,-1.6545,-1.4653,-1.2453,-0.9542,-0.7115,-0.5318,-0.4434,-0.4142,-0.4352,-0.5795,-0.7189,-0.8683,-1.0412,-1.2176,0.0,0.0,0.0,0.0,0.0,0.0,0.0,0.0,0.0,0.0,0.0,0.0,0.0,0.0,0.0,0.0,0.0,0.0,0.0,0.0,0.0,0.0,0.0,0.0,0.0,-1.4072,-1.3308,-1.296,0.0,0.0,0.0,0.0,0.0,0.0,0.0,0.0,0.0,0.0,0.0,0.0,0.0,-0.3662,-0.4451,-0.58,-0.6883,-0.7918,-0.9043,-1.0171,-1.107,-1.3197,-1.5298,0.0,0.0,0.0,0.0,0.0,0.0,0.0,0.0,0.0,0.0,0.0,0.0,0.0,0.0,0.0,0.0,0.0,0.0,-2.4767,-2.4887,-2.5554,-2.5821,-2.5827,-2.6046,-2.6153,-2.6032,-2.5848,-2.5255,-2.4442,-2.397,-2.3359,-2.2676,-2.2504,-2.2456,-2.2552,-2.2552,-2.2518,-2.2443,-2.2445,0.0,0.0,0.0,0.0,0.0,0.0,0.0,0.0,0.0,0.0,-1.8998,-1.7888,-1.6247,-1.4103,-1.1553,-0.9383,-0.7458,-0.6479,-0.5986,-0.6104,-0.7167,-0.8337,-0.9569,-1.1069,-1.251,0.0,0.0,0.0,0.0,0.0,0.0,0.0,0.0,0.0,0.0,0.0,0.0,0.0,0.0,0.0,0.0,0.0,0.0,0.0,0.0,0.0,0.0,0.0,-1.6197,-1.5486,-1.4422,-1.3608,-1.3309,-1.34,0.0,-1.429,0.0,0.0,0.0,0.0,0.0,0.0,0.0,0.0,0.0,0.0,-0.4945,-0.5647,-0.6483,-0.7385,-0.7965,-0.9164,-1.0141,-1.0914,-1.2942,-1.4917,0.0,0.0,0.0,0.0,0.0,0.0,0.0,0.0,0.0,0.0,0.0,0.0,0.0,0.0,0.0,0.0,0.0,0.0,-2.6195,-2.6834,-2.6369,-2.6582,-2.7054,-2.6186,-2.5846,-2.5723,-2.5319,-2.4844,-2.4312,-2.3969,-2.3612,-2.3365,-2.3464,-2.3761,-2.407,-2.4099,-2.4099,-2.4069,-2.3487,0.0,0.0,0.0,0.0,0.0,0.0,0.0,0.0,0.0,0.0,-1.9657,-1.9054,-1.7613,-1.5131,-1.3364,-1.1426,-0.9308,-0.834,-0.7703,-0.7577,-0.8621,-0.9562,-1.0297,-1.2037,-1.3277,0.0,0.0,0.0,0.0,0.0,0.0,0.0,0.0,0.0,0.0,0.0,0.0,0.0,0.0,0.0,0.0,0.0,0.0,0.0,0.0,0.0,0.0,0.0,0.0,-1.58,-1.4911,-1.4158,-1.3678,-1.38,-1.4112,-1.4759,0.0,0.0,0.0,0.0,0.0,0.0,0.0,0.0,0.0,0.0,-0.5993,-0.632,-0.7194,-0.788,-0.8216,-0.9408,-1.0302,-1.0561,-1.2409,-1.4178,-1.535,-1.6407,-1.7611,0.0,0.0,0.0,0.0,0.0,0.0,0.0,0.0,0.0,0.0,0.0,0.0,0.0,0.0,0.0,-2.6233,-2.6941,-2.7343,-2.7801,-2.8218,-2.8025,-2.7832,-2.7623,-2.7064,-2.6349,-2.5479,-2.4805,-2.434,-2.397,-2.3951,-2.4176,-2.454,-2.4638,-2.4755,-2.4864,-2.3887,0.0,0.0,0.0,0.0,0.0,0.0,0.0,0.0,0.0,0.0,-2.1001,-2.0147,-1.8901,-1.7366,-1.5511,-1.3528,-1.1548,-1.0605,-0.9894,-0.9262,-1.0205,-1.0798,-1.1081,-1.2623,-1.3645,-1.3839,0.0,0.0,0.0,0.0,0.0,0.0,0.0,0.0,0.0,0.0,0.0,0.0,0.0,0.0,0.0,0.0,0.0,0.0,0.0,0.0,0.0,0.0,0.0,0.0,-1.5454,-1.477,-1.4607,-1.4378,-1.4595,-1.546,-1.5425,0.0,0.0,0.0,0.0,0.0,0.0,0.0,-0.615,0.0,-0.673,-0.7172,-0.7615,-0.8027,-0.8216,-0.9153,-0.9835,-1.0171,-1.1905,-1.3374,-1.4075,-1.5239,-1.6339,-1.6981,0.0,0.0,0.0,0.0,0.0,0.0,0.0,0.0,0.0,0.0,0.0,0.0,0.0,0.0,-2.6924,-2.7543,-2.8144,-2.8699,-2.9124,-2.9186,-2.9002,-2.8681,-2.801,-2.7307,-2.6483,-2.5826,-2.5418,-2.5273,-2.5317,-2.554,-2.5915,-2.6046,-2.5936,-2.5633,-2.4666,-2.3735,0.0,0.0,0.0,0.0,0.0,0.0,0.0,0.0,0.0,-2.2418,-2.156,-2.0534,-1.9318,-1.7558,-1.5721,-1.3831,-1.2837,-1.1936,-1.1102,-1.1794,-1.2122,-1.2062,-1.3289,-1.395,-1.3955,0.0,0.0,0.0,0.0,-2.1265,0.0,0.0,0.0,0.0,0.0,0.0,0.0,0.0,0.0,0.0,0.0,0.0,0.0,0.0,0.0,0.0,0.0,0.0,0.0,0.0,-1.5295,-1.5124,-1.5073,-1.5307,-1.6041,-1.5499,-1.4575,-1.34,0.0,0.0,0.0,0.0,0.0,0.0,-0.7125,-0.737,-0.7675,-0.7932,-0.8239,-0.8347,-0.905,-0.9705,-0.9925,-1.1274,-1.2467,-1.3009,-1.4023,-1.5042,-1.5581,-1.6559,-1.7432,-1.8094,-1.996,-2.1401,-2.1295,0.0,0.0,0.0,0.0,0.0,0.0,0.0,0.0,-2.8519,-2.8953,-2.8853,-2.9228,-2.9726,-2.9199,-2.8826,-2.8512,-2.7802,-2.7387,-2.701,-2.6829,-2.7015,-2.7415,-2.7811,-2.8152,-2.8686,-2.8706,-2.7959,-2.6799,-2.6118,-2.548,-2.4918,-2.5127,-2.5524,-2.5628,-2.4307,-2.403,-2.4682,-2.4772,-2.4417,-2.3778,-2.3555,-2.2495,-2.0773,-1.935,-1.7843,-1.6024,-1.4928,-1.3985,-1.3143,-1.3375,-1.3413,-1.3272,-1.3975,-1.4408,-1.441,0.0,0.0,0.0,0.0,-2.073,0.0,0.0,0.0,0.0,0.0,0.0,0.0,0.0,0.0,0.0,0.0,0.0,0.0,0.0,0.0,0.0,0.0,0.0,0.0,0.0,-1.5697,-1.5218,-1.581,-1.6305,-1.6412,-1.5427,-1.4298,0.0,0.0,0.0,0.0,0.0,-0.733,-0.7143,-0.7572,-0.7849,-0.7856,-0.8176,-0.8462,-0.8462,-0.9205,-0.9776,-0.979,-1.0768,-1.172,-1.2283,-1.2835,0.0,0.0,0.0,0.0,0.0,0.0,0.0,0.0,0.0,0.0,0.0,0.0,0.0,0.0,0.0,0.0,-2.9108,-2.9713,-3.0197,-3.0566,-3.0982,-3.0754,-3.048,-3.0129,-2.934,-2.8945,-2.8944,-2.8109,-2.8138,-2.8811,-2.8612,-2.8722,-2.9019,-2.9113,-2.8628,-2.7771,-2.7314,-2.6663,-2.5884,-2.5972,-2.637,-2.6813,-2.6407,-2.6003,-2.5721,-2.5865,-2.5448,-2.4503,-2.3928,-2.3152,-2.2161,-2.0638,-1.9127,-1.7665,-1.6254,-1.5153,-1.4465,-1.428,-1.4109,-1.387,-1.4666,-1.5227,-1.5609,-1.6095,0.0,0.0,-1.9323,-2.0707,0.0,0.0,0.0,0.0,0.0,0.0,0.0,0.0,0.0,0.0,0.0,0.0,0.0,0.0,0.0,0.0,0.0,0.0,0.0,0.0,-1.565,-1.5423,-1.5989,-1.6186,-1.5725,-1.5007,-1.4002,-1.2664,-1.1395,-1.0099,-0.8796,-0.8034,-0.7654,-0.7655,-0.7849,-0.8012,-0.8012,-0.8052,-0.8187,-0.8187,-0.8592,-0.8974,-0.9118,-0.9697,-1.0474,-1.1203,-1.191,-1.2753,-1.4172,-1.5266,-1.6379,-1.7536,-1.8215,-1.8869,-1.9638,-2.0087,-2.0021,-1.9257,-1.9077,-1.8897,-1.8182,-1.7819,-1.7462,-2.9476,-2.991,-3.0542,-3.1029,-3.1296,-3.1216,-3.0934,-3.0624,-2.9854,-2.9658,-2.9814,-2.9134,-2.9367,-3.0164,-3.0064,-3.0046,-3.0148,-3.0015,-2.9549,-2.8794,-2.8344,-2.7802,-2.7133,-2.7222,-2.7466,-2.7999,-2.812,-2.7829,-2.7142,-2.6859,-2.6364,-2.5674,-2.4792,-2.4062,-2.349,-2.1929,-2.0587,-1.943,-1.7942,-1.6801,-1.6108,-1.5634,-1.5292,-1.4951,-1.5287,-1.5713,-1.6224,-1.6186,-1.6765,0.0,-1.9109,0.0,0.0,0.0,0.0,0.0,0.0,0.0,0.0,0.0,0.0,0.0,0.0,0.0,0.0,0.0,0.0,0.0,0.0,0.0,0.0,-1.5891,-1.5576,-1.5716,-1.6041,-1.6073,-1.5485,-1.4904,-1.4142,-1.2957,-1.189,-1.0665,-0.9264,-0.8635,-0.822,-0.8124,-0.8137,-0.8137,-0.8038,-0.8038,-0.8038,-0.8038,-0.8237,-0.8428,-0.8627,-0.9019,-0.9612,-1.0314,-1.0998,-1.2165,-1.3715,-1.5064,-1.6211,-1.6987,-1.7175,-1.7577,-1.8575,-1.9067,-1.9075,-1.8412,-1.8241,-1.8156,-1.7606,-1.7333,-1.7059,-2.981,-2.9794,-3.0196,-3.0487,-3.0774,-3.0446,-3.0265,-3.0084,-2.9455,-2.9411,-2.9636,-2.992,-3.0569,-3.1457,-3.2033,-3.2231,-3.2148,-3.1296,-3.0607,-2.9986,-2.93,-2.8922,-2.8755,-2.8767,-2.887,-2.9131,-2.9328,-2.9197,-2.8888,-2.7846,-2.7306,-2.7193,-2.6107,-2.5288,-2.466,-2.3272,-2.2178,-2.1084,-1.9831,-1.8741,-1.7832,-1.7306,-1.6839,-1.6289,-1.5827,-1.5872,-1.6335,-1.5958,-1.628,-1.7477,-1.8652,0.0,0.0,0.0,0.0,0.0,0.0,0.0,0.0,0.0,0.0,0.0,0.0,0.0,0.0,0.0,0.0,0.0,0.0,0.0,-1.6183,-1.5492,-1.534,-1.602,-1.6124,-1.6063,-1.5763,-1.528,-1.4532,-1.3631,-1.271,-1.141,-0.9769,-0.9319,-0.9031,-0.8435,-0.8432,-0.8336,-0.8038,-0.8038,-0.8038,-0.8038,-0.8233,-0.8333,-0.8326,-0.8619,-0.8913,-0.9501,-1.0288,-1.1648,-1.389,-1.4949,-1.5619,-1.6206,-1.6447,-1.6856,-1.7609,-1.7874,-1.7816,-1.7319,-1.7333,-1.7239,-1.7066,-1.6885,-1.6791,-3.0098,-3.0229,-3.0624,-3.0844,-3.0917,-3.0844,-3.0711,-3.0503,-3.0044,-3.0119,-3.0551,-3.0322,-3.0905,-3.1994,-3.2219,-3.2508,-3.2795,-3.2008,-3.1371,-3.0834,-3.0263,-2.9744,-2.9263,-2.9263,-2.9263,-2.9353,-2.9599,-2.9614,-2.9503,-2.8423,-2.767,-2.7268,-2.6156,-2.5453,-2.5016,-2.3756,-2.2709,-2.1849,-2.0459,-1.9291,-1.8576,-1.7731,-1.7051,-1.645,-1.6141,-1.6103,-1.6321,-1.6234,-1.6655,-1.7817,-1.8667,0.0,-2.1361,0.0,0.0,0.0,0.0,-2.7617,-2.8308,-2.7921,0.0,0.0,0.0,-2.5168,0.0,0.0,0.0,0.0,-1.8249,-1.6628,-1.5199,-1.481,-1.4825,-1.539,-1.549,-1.5458,-1.5438,-1.5192,-1.472,-1.4165,-1.3674,-1.2909,-1.1869,-1.0453,-0.9316,-0.8726,-0.8531,-0.8336,-0.8038,-0.8038,-0.8038,-0.8038,-0.8041,-0.81,-0.799,-0.807,-0.8322,-0.8878,-1.0368,-1.1927,-1.3325,-1.4115,-1.4779,-1.5338,-1.5479,-1.5665,-1.5883,-1.6732,-1.7049,-1.6679,-1.6501,-1.6407,-1.6211,-1.6116,-1.6116,-3.0075,-3.0228,-3.0596,-3.0761,-3.0748,-3.0685,-3.0533,-3.047,-3.0088,-3.0305,-3.0735,-3.0655,-3.1343,-3.2486,-3.3001,-3.3376,-3.3604,-3.2913,-3.2189,-3.1529,-3.1035,-3.0432,-2.9896,-2.9741,-2.9664,-2.9651,-2.9541,-2.9453,-2.9428,-2.8323,-2.7607,-2.7268,-2.6309,-2.5758,-2.5535,-2.4576,-2.3674,-2.2749,-2.1555,-2.0464,-1.951,-1.8367,-1.7607,-1.7278,-1.6768,-1.6574,-1.6727,-1.6675,-1.7073,-1.799,-1.8815,-1.9857,0.0,-2.2029,-2.3272,-2.4791,-2.5764,-2.6957,-2.8321,-2.8222,0.0,0.0,-2.6481,-2.5269,-2.4316,0.0,0.0,-1.9849,-1.7874,-1.6017,-1.4889,-1.4776,-1.4907,-1.5275,-1.5332,-1.5445,-1.5443,-1.5305,-1.5061,-1.4758,-1.4484,-1.4004,-1.3216,-1.1778,-1.0405,-0.9505,-0.9126,-0.8707,-0.8157,-0.8052,-0.8031,-0.7875,-0.7865,-0.7834,-0.7743,-0.7726,-0.7977,-0.8722,-1.0195,-1.1533,-1.2598,-1.3286,-1.3908,-1.4322,-1.454,-1.4534,-1.4553,-1.5341,-1.6014,-1.5947,-1.5933,-1.5933,-1.5832,-1.5825,-1.5798,-2.9779,-2.9869,-3.0228,-3.0368,-3.0368,-3.0152,-3.0075,-3.0088,-2.9856,-3.0011,-3.0444,-3.0947,-3.1809,-3.2903,-3.4128,-3.4616,-3.4414,-3.3796,-3.3087,-3.22,-3.1629,-3.1198,-3.0761,-3.033,-3.0088,-3.0075,-2.929,-2.8863,-2.8825,-2.7795,-2.7293,-2.7268,-2.6614,-2.6131,-2.591,-2.5487,-2.4777,-2.3688,-2.2823,-2.1789,-2.0504,-1.9186,-1.8466,-1.8361,-1.7512,-1.7193,-1.7366,-1.7405,-1.7623,-1.8239,-1.9132,-2.0001,-2.0825,-2.1768,-2.2937,-2.4537,-2.4976,-2.6076,-2.8068,-2.8693,-2.8495,-2.772,-2.6654,-2.5562,-2.467,-2.2522,-2.0954,-2.0236,-1.7674,-1.5808,-1.5124,-1.5106,-1.5268,-1.5518,-1.5542,-1.5626,-1.5674,-1.5531,-1.5507,-1.5514,-1.5032,-1.4549,-1.4034,-1.307,-1.1972,-1.0728,-0.9972,-0.9233,-0.8304,-0.819,-0.8041,-0.7729,-0.7604,-0.7597,-0.7584,-0.7546,-0.788,-0.8782,-0.9833,-1.0721,-1.1684,-1.2342,-1.2898,-1.3435,-1.3507,-1.3513,-1.3501,-1.3829,-1.4328,-1.5119,-1.538,-1.5494,-1.5677,-1.5637,-1.5538,-2.9779,-2.9792,-2.9934,-2.9934,-2.9934,-2.9869,-2.9869,-2.9869,-2.9779,-3.0011,-3.0444,-3.0947,-3.216,-3.3796,-3.4399,-3.4765,-3.4735,-3.4167,-3.3673,-3.3171,-3.2475,-3.1909,-3.1502,-3.0564,-2.9999,-2.9825,-2.8944,-2.8543,-2.8505,-2.7691,-2.7293,-2.7256,-2.6741,-2.6339,-2.6119,-2.5355,-2.4594,-2.3929,-2.294,-2.177,-2.0478,-1.9586,-1.8858,-1.8258,-1.7867,-1.7618,-1.7498,-1.8295,-1.8881,-1.9215,-1.9775,-2.0274,-2.0718,-2.1366,-2.2168,-2.3231,-2.4251,-2.5576,-2.7187,-2.7252,-2.7166,-2.7174,-2.5664,-2.423,-2.32,-2.1286,-2.0068,-1.975,-1.7844,-1.6405,-1.6002,-1.5507,-1.522,-1.5599,-1.5313,-1.5184,-1.5436,-1.5458,-1.5405,-1.5405,-1.5312,-1.5041,-1.4545,-1.3732,-1.2883,-1.192,-1.043,-0.9202,-0.8585,-0.8211,-0.7918,-0.7875,-0.7674,-0.7556,-0.7424,-0.7406,-0.753,-0.8134,-0.8627,-0.9298,-1.0572,-1.1071,-1.1535,-1.2315,-1.2415,-1.2415,-1.2478,-1.2556,-1.2785,-1.3424,-1.4229,-1.4926,-1.5106,-1.5042,-1.4962,-2.9779,-2.9792,-2.9869,-3.0011,-3.0075,-3.0011,-3.0011,-3.0177,-3.0164,-3.0457,-3.096,-3.1869,-3.2946,-3.4235,-3.4735,-3.4949,-3.5001,-3.4601,-3.409,-3.345,-3.2779,-3.2137,-3.1568,-3.0566,-2.9992,-2.9849,-2.8802,-2.8247,-2.8066,-2.7392,-2.6987,-2.6987,-2.6684,-2.6327,-2.5952,-2.5425,-2.4883,-2.43,-2.3003,-2.1881,-2.1049,-2.0177,-1.9508,-1.9026,-1.8519,-1.8294,-1.8449,-1.906,-1.9722,-2.0229,-2.0533,-2.0809,-2.1138,-2.1463,-2.2098,-2.292,-2.373,-2.4691,-2.6001,-2.5959,-2.5829,-2.5711,-2.4969,-2.3977,-2.2706,-2.1292,-2.0095,-1.9256,-1.8095,-1.7212,-1.6666,-1.6148,-1.5852,-1.5944,-1.5528,-1.5198,-1.5352,-1.5295,-1.5204,-1.5204,-1.5197,-1.5053,-1.4611,-1.3937,-1.3243,-1.2597,-1.1156,-0.9781,-0.9038,-0.8506,-0.8184,-0.7681,-0.7569,-0.7334,-0.7095,-0.719,-0.733,-0.7659,-0.8002,-0.8582,-0.9466,-0.9846,-1.0269,-1.0753,-1.0891,-1.0891,-1.0901,-1.1165,-1.1457,-1.1942,-1.2727,-1.3562,-1.4337,-1.4514,-1.4655,-2.9792,-2.9869,-3.0011,-3.0305,-3.052,-3.0368,-3.0457,-3.0773,-3.0761,-3.1123,-3.1836,-3.303,-3.3879,-3.4481,-3.4949,-3.5228,-3.5213,-3.4898,-3.4361,-3.3478,-3.2878,-3.2203,-3.1401,-3.0528,-3.0036,-2.9941,-2.867,-2.789,-2.7644,-2.6914,-2.6511,-2.6375,-2.6319,-2.6068,-2.5511,-2.5423,-2.5069,-2.4362,-2.2969,-2.2173,-2.1939,-2.0819,-2.017,-2.0122,-1.9211,-1.8958,-1.9622,-1.9896,-2.0421,-2.1205,-2.1381,-2.1606,-2.1805,-2.1997,-2.2382,-2.3128,-2.3345,-2.3914,-2.4771,-2.4759,-2.4558,-2.4145,-2.4237,-2.3887,-2.2734,-2.1711,-2.0489,-1.8984,-1.8585,-1.8112,-1.7351,-1.7016,-1.6684,-1.632,-1.5835,-1.5471,-1.5253,-1.5082,-1.491,-1.491,-1.4903,-1.4807,-1.4543,-1.3881,-1.3262,-1.279,-1.1721,-1.0616,-0.9557,-0.8987,-0.8452,-0.7532,-0.7318,-0.714,-0.685,-0.6861,-0.708,-0.7334,-0.762,-0.8041,-0.8479,-0.8733,-0.8987,-0.9182,-0.9302,-0.9283,-0.925,-0.9728,-1.0206,-1.0474,-1.1044,-1.1888,-1.3344,-1.4014,-1.43,-2.9869,-3.0088,-3.0075,-3.052,-3.111,-3.1233,-3.1158,-3.1097,-3.1097,-3.1616,-3.2547,-3.3381,-3.4085,-3.4631,-3.5016,-3.5279,-3.5409,-3.4634,-3.4258,-3.4046,-3.3083,-3.2521,-3.2105,-3.109,-3.0462,-3.0066,-2.8376,-2.7377,-2.704,-2.6142,-2.5679,-2.555,-2.5369,-2.5266,-2.5075,-2.4595,-2.3967,-2.3244,-2.2898,-2.2616,-2.2249,-2.1221,-2.0619,-2.0481,-1.9582,-1.9335,-1.9897,-2.0637,-2.1368,-2.1993,-2.2286,-2.2401,-2.2572,-2.2729,-2.2825,-2.291,-2.3566,-2.4007,-2.4189,-2.3992,-2.3628,-2.3162,-2.2857,-2.2626,-2.2232,-2.1262,-2.0411,-1.9696,-1.9231,-1.8807,-1.8533,-1.7606,-1.6929,-1.6522,-1.5709,-1.5113,-1.5012,-1.4778,-1.4596,-1.4603,-1.4603,-1.4509,-1.4183,-1.3659,-1.3144,-1.272,-1.1987,-1.1029,-1.0171,-0.9239,-0.8475,-0.7943,-0.739,-0.6971,-0.6705,-0.6664,-0.6729,-0.6834,-0.6885,-0.7096,-0.7589,-0.7784,-0.7934,-0.8281,-0.8349,-0.8328,-0.8328,-0.8491,-0.87,-0.9105,-0.9566,-1.0427,-1.2235,-1.2919,-1.3034,-3.0177,-3.0394,-3.0609,-3.111,-3.1676,-3.1672,-3.1823,-3.205,-3.2195,-3.2761,-3.3563,-3.4099,-3.4397,-3.4478,-3.4723,-3.4737,-3.4502,-3.408,-3.3689,-3.3362,-3.2741,-3.2279,-3.1819,-3.0945,-3.0244,-2.9747,-2.8464,-2.7466,-2.6796,-2.6179,-2.5735,-2.5471,-2.5358,-2.5103,-2.4822,-2.4149,-2.3561,-2.3017,-2.309,-2.2892,-2.2474,-2.1711,-2.1176,-2.0846,-2.0092,-1.997,-2.0532,-2.1179,-2.1913,-2.263,-2.3007,-2.3322,-2.3412,-2.3527,-2.3482,-2.3347,-2.3722,-2.3888,-2.3613,-2.3542,-2.3359,-2.2791,-2.2354,-2.1956,-2.1533,-2.0818,-2.0157,-1.9705,-1.9317,-1.8951,-1.853,-1.7743,-1.7079,-1.6517,-1.5594,-1.4925,-1.4585,-1.4193,-1.3951,-1.3874,-1.3881,-1.3808,-1.3667,-1.3371,-1.3024,-1.2775,-1.2172,-1.1455,-1.0732,-0.9754,-0.8826,-0.8073,-0.724,-0.6756,-0.651,-0.6395,-0.6301,-0.6439,-0.6385,-0.6521,-0.6885,-0.6972,-0.7007,-0.7242,-0.7261,-0.7261,-0.7273,-0.7387,-0.7668,-0.8016,-0.8545,-0.9224,-1.0418,-1.1394,-1.2029,-3.047,-3.0911,-3.1272,-3.1636,-3.2068,-3.2027,-3.2382,-3.2982,-3.3146,-3.3496,-3.4132,-3.4449,-3.4416,-3.404,-3.423,-3.4008,-3.3499,-3.3365,-3.3036,-3.2452,-3.2229,-3.1886,-3.1292,-3.0616,-3.0013,-2.9507,-2.857,-2.7607,-2.6726,-2.627,-2.5914,-2.5595,-2.541,-2.5026,-2.4455,-2.3811,-2.3364,-2.3027,-2.3187,-2.303,-2.2445,-2.1997,-2.1607,-2.117,-2.0592,-2.0553,-2.1197,-2.1635,-2.2247,-2.2942,-2.3423,-2.3799,-2.3945,-2.3932,-2.383,-2.3696,-2.3696,-2.3451,-2.2921,-2.3142,-2.3059,-2.2516,-2.2154,-2.1696,-2.1118,-2.0573,-2.0073,-1.9723,-1.9423,-1.8985,-1.8341,-1.7821,-1.7212,-1.6463,-1.5605,-1.4909,-1.4294,-1.3817,-1.355,-1.3286,-1.3247,-1.3213,-1.3233,-1.3015,-1.289,-1.2726,-1.2205,-1.1612,-1.1012,-1.0006,-0.8983,-0.7964,-0.7175,-0.6596,-0.6419,-0.628,-0.6101,-0.6136,-0.6118,-0.6169,-0.6233,-0.6305,-0.6305,-0.6356,-0.6309,-0.6331,-0.6331,-0.6533,-0.6768,-0.7019,-0.7618,-0.8142,-0.8458,-0.9647,-1.0706,-3.0973,-3.1482,-3.1676,-3.1816,-3.2055,-3.2506,-3.2817,-3.3136,-3.2893,-3.2873,-3.2952,-3.3317,-3.3384,-3.3357,-3.3572,-3.3574,-3.3455,-3.2901,-3.2602,-3.2497,-3.1885,-3.1571,-3.1452,-3.0656,-3.0188,-2.9912,-2.8352,-2.7357,-2.6905,-2.5979,-2.5449,-2.5263,-2.482,-2.4253,-2.3498,-2.3324,-2.3037,-2.2622,-2.2825,-2.2629,-2.2176,-2.1663,-2.138,-2.1394,-2.0886,-2.0884,-2.1576,-2.1681,-2.2102,-2.2858,-2.2977,-2.3125,-2.3232,-2.3259,-2.3125,-2.2869,-2.2869,-2.2664,-2.2137,-2.2089,-2.209,-2.1919,-2.1818,-2.1774,-2.1796,-2.1188,-2.0726,-2.0523,-1.9827,-1.9287,-1.8765,-1.8064,-1.7367,-1.68,-1.5964,-1.5273,-1.4624,-1.4087,-1.3618,-1.3461,-1.3286,-1.318,-1.3113,-1.2939,-1.2709,-1.251,-1.1971,-1.1263,-1.039,-0.9416,-0.8579,-0.7948,-0.7269,-0.6789,-0.6622,-0.6399,-0.6208,-0.6097,-0.6076,-0.5987,-0.5908,-0.5908,-0.5908,-0.5933,-0.5912,-0.5919,-0.5926,-0.5899,-0.6099,-0.6328,-0.6625,-0.6869,-0.7102,-0.7823,-0.8606,-3.0538,-3.1165,-3.1361,-3.1695,-3.2103,-3.2399,-3.2317,-3.2198,-3.2063,-3.2478,-3.3146,-3.33,-3.3168,-3.284,-3.29,-3.2766,-3.2407,-3.2123,-3.1915,-3.1958,-3.1674,-3.133,-3.0971,-3.0517,-2.9885,-2.9148,-2.8217,-2.7357,-2.6711,-2.6141,-2.5797,-2.555,-2.5272,-2.4749,-2.3973,-2.3891,-2.3501,-2.2625,-2.2682,-2.2546,-2.2102,-2.1955,-2.1714,-2.1446,-2.1251,-2.1287,-2.1619,-2.1992,-2.2454,-2.2903,-2.3166,-2.3409,-2.3578,-2.3578,-2.3461,-2.3239,-2.3214,-2.295,-2.2469,-2.2102,-2.183,-2.1617,-2.1445,-2.1308,-2.1214,-2.0928,-2.0639,-2.0379,-1.9754,-1.9202,-1.8654,-1.7939,-1.7297,-1.6584,-1.5846,-1.5102,-1.4515,-1.3916,-1.3478,-1.3092,-1.294,-1.281,-1.2505,-1.2358,-1.2198,-1.1913,-1.1552,-1.1007,-1.0327,-0.9667,-0.9011,-0.8327,-0.7703,-0.7172,-0.6941,-0.6579,-0.626,-0.6047,-0.5906,-0.5768,-0.5628,-0.5566,-0.5566,-0.5562,-0.5562,-0.5562,-0.5569,-0.5633,-0.5744,-0.5839,-0.6047,-0.6222,-0.6448,-0.6801,-0.7538,-3.0405,-3.1029,-3.1244,-3.1687,-3.2159,-3.2075,-3.1738,-3.1366,-3.1497,-3.2108,-3.2976,-3.3051,-3.2781,-3.2317,-3.2287,-3.2018,-3.1569,-3.1467,-3.1467,-3.1467,-3.1467,-3.1165,-3.0537,-3.0291,-2.955,-2.8494,-2.8007,-2.7442,-2.6765,-2.6525,-2.6297,-2.6028,-2.5807,-2.5252,-2.4507,-2.434,-2.3742,-2.2769,-2.2715,-2.2461,-2.2106,-2.2165,-2.2032,-2.1671,-2.1664,-2.1759,-2.1821,-2.2374,-2.2721,-2.2887,-2.3161,-2.3343,-2.3519,-2.3392,-2.321,-2.3021,-2.295,-2.277,-2.245,-2.2088,-2.1799,-2.1526,-2.1306,-2.1043,-2.0761,-2.0635,-2.0419,-2.0103,-1.963,-1.9073,-1.8607,-1.8018,-1.7304,-1.6612,-1.5834,-1.5097,-1.4364,-1.3746,-1.32,-1.269,-1.2473,-1.2233,-1.1972,-1.177,-1.167,-1.1361,-1.1125,-1.0834,-1.0473,-0.9983,-0.9392,-0.8883,-0.8117,-0.7581,-0.7355,-0.6923,-0.6511,-0.6152,-0.5899,-0.5715,-0.5582,-0.5439,-0.5432,-0.5386,-0.5442,-0.5456,-0.5379,-0.5454,-0.5525,-0.5614,-0.5748,-0.5969,-0.6028,-0.6235,-0.6792,-3.1082,-3.1772,-3.1925,-3.215,-3.2106,-3.159,-3.138,-3.1452,-3.1452,-3.1511,-3.1691,-3.1661,-3.1719,-3.1571,-3.1586,-3.1599,-3.1467,-3.1467,-3.1452,-3.1437,-3.1467,-3.1165,-3.0432,-2.9924,-2.931,-2.851,-2.7787,-2.7454,-2.7248,-2.7041,-2.6765,-2.6385,-2.583,-2.5169,-2.444,-2.3843,-2.325,-2.2718,-2.2701,-2.247,-2.2047,-2.2033,-2.2052,-2.2152,-2.2137,-2.2278,-2.2434,-2.258,-2.2672,-2.2857,-2.2364,-2.209,-2.2061,-2.16,-2.1197,-2.0983,-2.0926,-2.0892,-2.0986,-2.1542,-2.1759,-2.1524,-2.1562,-2.1499,-2.1319,-2.0807,-2.0405,-2.0064,-1.9629,-1.9233,-1.917,-1.8546,-1.7833,-1.7173,-1.626,-1.5462,-1.4668,-1.3674,-1.2878,-1.2538,-1.2199,-1.1772,-1.1758,-1.1587,-1.1329,-1.1069,-1.0863,-1.0647,-1.0322,-0.9813,-0.9451,-0.9199,-0.8584,-0.8002,-0.7811,-0.7484,-0.7007,-0.6679,-0.6346,-0.6017,-0.5686,-0.5491,-0.5428,-0.5428,-0.5428,-0.5428,-0.5428,-0.5446,-0.5456,-0.5413,-0.55,-0.5557,-0.56,-0.5688,-0.6116,-3.0728,-3.1242,-3.1366,-3.1465,-3.1589,-3.1081,-3.0869,-3.0896,-3.0522,-3.0582,-3.0896,-3.0926,-3.1135,-3.1467,-3.1467,-3.1467,-3.1467,-3.1467,-3.13,-3.0956,-3.0926,-3.0387,-2.943,-2.9131,-2.8652,-2.8023,-2.7643,-2.7488,-2.7401,-2.7196,-2.7078,-2.6886,-2.6265,-2.5573,-2.4854,-2.4309,-2.3712,-2.3201,-2.3201,-2.3157,-2.2934,-2.2663,-2.2526,-2.2618,-2.2678,-2.2581,-2.2337,-2.2411,-2.2265,-2.1971,-2.1708,-2.1576,-2.1547,-2.1328,-2.114,-2.1003,-2.0795,-2.067,-2.0504,-2.0986,-2.1116,-2.0703,-2.0964,-2.1069,-2.0767,-2.0329,-2.0104,-2.0118,-1.9627,-1.9232,-1.891,-1.8311,-1.7616,-1.6946,-1.6216,-1.5402,-1.4672,-1.3939,-1.3251,-1.2721,-1.2383,-1.2027,-1.165,-1.1279,-1.0999,-1.085,-1.0608,-1.0316,-1.0177,-0.9745,-0.9471,-0.9339,-0.8823,-0.8387,-0.8201,-0.7782,-0.7312,-0.6872,-0.6478,-0.6079,-0.5683,-0.5488,-0.5428,-0.5428,-0.5428,-0.5428,-0.5428,-0.5428,-0.5428,-0.5428,-0.5428,-0.5428,-0.5491,-0.5488,-0.5698,-3.0306,-3.0588,-3.0558,-3.0585,-3.077,-3.0406,-3.0253,-3.0208,-2.9774,-2.9834,-3.0223,-3.0253,-3.0522,-3.0971,-3.1108,-3.1165,-3.1016,-3.1001,-3.0731,-3.0283,-3.0253,-2.9669,-2.8667,-2.8592,-2.8233,-2.7664,-2.7575,-2.7524,-2.7437,-2.7321,-2.7335,-2.7282,-2.6683,-2.6065,-2.5444,-2.4896,-2.4298,-2.3728,-2.3739,-2.3767,-2.3709,-2.3286,-2.2937,-2.2849,-2.2908,-2.2657,-2.1968,-2.2037,-2.1887,-2.1469,-2.1222,-2.1119,-2.1119,-2.0956,-2.0838,-2.0843,-2.0724,-2.0509,-2.0189,-2.0566,-2.0602,-2.014,-2.0313,-2.0285,-1.9969,-1.9749,-1.9761,-1.9781,-1.9515,-1.9125,-1.8895,-1.8251,-1.7575,-1.6888,-1.6097,-1.5323,-1.4754,-1.4095,-1.3396,-1.2848,-1.246,-1.2182,-1.1546,-1.1149,-1.094,-1.0684,-1.0445,-1.0127,-0.998,-0.9636,-0.933,-0.933,-0.8984,-0.8687,-0.8442,-0.797,-0.7551,-0.7182,-0.6716,-0.6209,-0.5796,-0.562,-0.5425,-0.5425,-0.5425,-0.5428,-0.5428,-0.5428,-0.5415,-0.5425,-0.5422,-0.5418,-0.5428,-0.5428,-0.5428,-2.9985,-3.0268,-2.9869,-2.9744,-2.9669,-2.9639,-2.9624,-2.9609,-2.9535,-2.9564,-2.9609,-2.9609,-2.9639,-2.9729,-3.0268,-3.0223,-2.9759,-2.9774,-2.9729,-2.9624,-2.9624,-2.925,-2.8622,-2.8577,-2.8233,-2.7604,-2.756,-2.7575,-2.7575,-2.7575,-2.7625,-2.771,-2.7079,-2.6512,-2.5925,-2.5407,-2.478,-2.4155,-2.4219,-2.4245,-2.4153,-2.3615,-2.3067,-2.2607,-2.2557,-2.2245,-2.1689,-2.155,-2.1575,-2.1665,-2.1042,-2.0714,-2.0669,-2.0131,-1.9796,-1.9782,-2.0053,-2.0127,-1.9961,-2.0341,-2.0387,-1.9995,-1.984,-1.9588,-1.9436,-1.9409,-1.9353,-1.9157,-1.9162,-1.9178,-1.9321,-1.8599,-1.7951,-1.7318,-1.6299,-1.5439,-1.4844,-1.3968,-1.3239,-1.2833,-1.2508,-1.207,-1.1486,-1.1324,-1.1029,-1.0662,-1.0423,-1.0173,-0.9778,-0.9452,-0.9236,-0.9147,-0.9056,-0.8915,-0.8685,-0.8214,-0.7817,-0.7345,-0.6863,-0.6451,-0.6193,-0.5881,-0.5606,-0.5401,-0.5367,-0.5367,-0.5408,-0.5415,-0.5328,-0.5321,-0.5387,-0.5391,-0.5418,-0.5425,-0.5428,-2.9633,-2.9854,-2.9684,-2.9594,-2.9535,-2.9146,-2.8951,-2.8891,-2.8539,-2.8547,-2.8906,-2.8951,-2.8951,-2.8966,-2.9175,-2.94,-2.9579,-2.9594,-2.9355,-2.8996,-2.8951,-2.8592,-2.8045,-2.7934,-2.7829,-2.7604,-2.756,-2.756,-2.7625,-2.769,-2.774,-2.772,-2.7321,-2.6794,-2.6198,-2.5744,-2.5191,-2.4651,-2.467,-2.4507,-2.41,-2.3803,-2.321,-2.2167,-2.2208,-2.1922,-2.1258,-2.1128,-2.0895,-2.0497,-2.022,-2.0064,-2.0034,-1.9824,-1.969,-1.9683,-1.9745,-1.9729,-1.9637,-2.003,-2.0191,-1.9838,-1.9991,-1.9943,-1.9704,-1.9461,-1.9271,-1.9089,-1.8798,-1.872,-1.8732,-1.8293,-1.7723,-1.7053,-1.6285,-1.5526,-1.498,-1.4321,-1.37,-1.3277,-1.2858,-1.2367,-1.202,-1.1684,-1.1262,-1.0883,-1.0326,-0.9895,-0.9561,-0.92,-0.8978,-0.8911,-0.885,-0.8715,-0.8683,-0.8328,-0.7898,-0.7396,-0.6899,-0.6362,-0.6013,-0.5668,-0.5346,-0.5301,-0.5248,-0.5131,-0.5202,-0.5135,-0.5148,-0.5209,-0.5216,-0.5254,-0.5345,-0.5294,-0.538,-2.9009,-2.8951,-2.8974,-2.8936,-2.8876,-2.8472,-2.8278,-2.8218,-2.7769,-2.7844,-2.8218,-2.8263,-2.8278,-2.8263,-2.8263,-2.8487,-2.8906,-2.8974,-2.8682,-2.8293,-2.8278,-2.8008,-2.7634,-2.756,-2.756,-2.756,-2.756,-2.7625,-2.769,-2.7725,-2.789,-2.7959,-2.7514,-2.7011,-2.6557,-2.6088,-2.5604,-2.5156,-2.5107,-2.4866,-2.4191,-2.3819,-2.3167,-2.2128,-2.1842,-2.1476,-2.0855,-2.0643,-2.0388,-1.9944,-1.9797,-1.9726,-1.9705,-1.9705,-1.9705,-1.9705,-1.9669,-1.9596,-1.9553,-1.9826,-1.987,-1.9627,-1.9772,-1.9823,-1.9502,-1.9325,-1.9141,-1.8869,-1.8629,-1.8342,-1.8179,-1.7815,-1.7286,-1.6763,-1.6069,-1.5491,-1.5003,-1.4582,-1.4172,-1.37,-1.3277,-1.2911,-1.2573,-1.2098,-1.165,-1.1182,-1.0377,-0.9783,-0.935,-0.9105,-0.8864,-0.8811,-0.8765,-0.8665,-0.8605,-0.8429,-0.8092,-0.757,-0.7032,-0.6452,-0.5955,-0.5543,-0.5246,-0.52,-0.5086,-0.4975,-0.4918,-0.4914,-0.4965,-0.5043,-0.5067,-0.5094,-0.5152,-0.5192,-0.5192,-2.8218,-2.7775,-2.759,-2.776,-2.7739,-2.7694,-2.7655,-2.7685,-2.759,-2.7619,-2.7709,-2.7685,-2.7679,-2.7619,-2.7745,-2.7649,-2.7739,-2.785,-2.7754,-2.7664,-2.7649,-2.7634,-2.756,-2.756,-2.756,-2.7625,-2.761,-2.769,-2.779,-2.784,-2.8054,-2.8225,-2.7798,-2.7391,-2.7008,-2.6522,-2.6022,-2.5577,-2.553,-2.5211,-2.4495,-2.3835,-2.3088,-2.2181,-2.1535,-2.1051,-2.0608,-2.03,-2.0161,-2.008,-1.9904,-1.9777,-1.9726,-1.9726,-1.9726,-1.9741,-1.9726,-1.969,-1.969,-1.9677,-1.9642,-1.9494,-1.924,-1.9128,-1.8942,-1.8892,-1.8806,-1.8532,-1.8377,-1.8304,-1.7844,-1.7302,-1.688,-1.6554,-1.5834,-1.5164,-1.4834,-1.4677,-1.4538,-1.4061,-1.3761,-1.339,-1.3089,-1.267,-1.2092,-1.1339,-1.0627,-1.0012,-0.9436,-0.9134,-0.8962,-0.8857,-0.8804,-0.8745,-0.8639,-0.8506,-0.8178,-0.7868,-0.7244,-0.6716,-0.6339,-0.5906,-0.5537,-0.5365,-0.5118,-0.5008,-0.489,-0.4897,-0.4889,-0.4891,-0.4908,-0.4942,-0.5006,-0.5047,-0.5009,-2.782,-2.7625,-2.756,-2.756,-2.756,-2.756,-2.756,-2.756,-2.756,-2.756,-2.756,-2.756,-2.756,-2.756,-2.756,-2.761,-2.756,-2.756,-2.756,-2.756,-2.756,-2.756,-2.756,-2.756,-2.756,-2.7625,-2.7675,-2.7775,-2.786,-2.8088,-2.8284,-2.837,-2.8138,-2.7775,-2.7301,-2.6929,-2.6411,-2.5926,-2.5954,-2.5415,-2.4312,-2.395,-2.3194,-2.203,-2.1609,-2.1356,-2.123,-2.0695,-2.0392,-2.0308,-2.0115,-1.9975,-1.9919,-1.9919,-1.9884,-1.9935,-1.9919,-1.9919,-1.9884,-1.9899,-1.9812,-1.969,-1.956,-1.9362,-1.9101,-1.8931,-1.8679,-1.829,-1.7982,-1.7765,-1.7586,-1.6831,-1.6409,-1.6316,-1.5731,-1.5098,-1.4695,-1.4467,-1.4466,-1.4483,-1.441,-1.4112,-1.3698,-1.3197,-1.2479,-1.1799,-1.0941,-1.0202,-0.9703,-0.9413,-0.9166,-0.8976,-0.8969,-0.891,-0.8752,-0.8639,-0.8397,-0.8045,-0.7521,-0.7052,-0.6633,-0.6221,-0.5918,-0.5571,-0.527,-0.5037,-0.4919,-0.488,-0.4875,-0.4855,-0.4817,-0.4876,-0.4894,-0.4891,-0.4847,-2.7475,-2.7265,-2.7215,-2.71,-2.6856,-2.6841,-2.6841,-2.6841,-2.6856,-2.6826,-2.6826,-2.6841,-2.6841,-2.6901,-2.7096,-2.725,-2.728,-2.749,-2.756,-2.756,-2.756,-2.756,-2.756,-2.756,-2.7625,-2.769,-2.779,-2.7875,-2.8024,-2.8301,-2.8418,-2.8357,-2.8104,-2.7763,-2.7356,-2.6891,-2.6455,-2.622,-2.6241,-2.5578,-2.4397,-2.4081,-2.3366,-2.2119,-2.1768,-2.1708,-2.1648,-2.1183,-2.0778,-2.0579,-2.0342,-2.02,-2.0096,-2.0111,-2.0111,-2.0096,-2.0131,-2.0166,-2.02,-2.0166,-2.0131,-2.0045,-1.9904,-1.9726,-1.9435,-1.9124,-1.876,-1.8372,-1.7963,-1.7663,-1.7505,-1.6847,-1.6284,-1.6112,-1.5582,-1.5037,-1.4609,-1.4467,-1.4506,-1.4581,-1.4589,-1.4384,-1.3996,-1.33,-1.2662,-1.2044,-1.1242,-1.0498,-1.0079,-0.9769,-0.948,-0.918,-0.9015,-0.8962,-0.891,-0.8752,-0.8639,-0.8287,-0.7818,-0.7404,-0.6963,-0.6588,-0.6197,-0.5819,-0.5477,-0.5266,-0.5154,-0.5027,-0.4941,-0.4862,-0.4794,-0.4758,-0.4745,-0.4701,-0.4674,-2.7126,-2.6572,-2.6542,-2.6228,-2.5749,-2.5719,-2.5764,-2.5674,-2.5704,-2.5749,-2.5719,-2.5794,-2.5734,-2.5809,-2.6333,-2.6542,-2.6632,-2.7036,-2.726,-2.734,-2.7355,-2.732,-2.7545,-2.756,-2.766,-2.779,-2.7825,-2.8039,-2.8334,-2.8403,-2.8373,-2.8259,-2.7726,-2.7348,-2.7082,-2.6528,-2.6341,-2.6467,-2.6485,-2.5765,-2.4342,-2.4225,-2.3505,-2.2099,-2.1957,-2.1886,-2.1797,-2.1587,-2.1309,-2.0926,-2.0595,-2.0407,-2.0323,-2.0339,-2.0339,-2.0357,-2.0426,-2.0478,-2.0512,-2.0478,-2.0444,-2.0444,-2.0235,-1.9955,-1.9762,-1.9398,-1.9049,-1.8693,-1.8266,-1.7935,-1.7569,-1.7073,-1.6547,-1.6005,-1.538,-1.4818,-1.458,-1.4577,-1.4525,-1.453,-1.441,-1.4251,-1.4044,-1.3329,-1.2713,-1.2236,-1.1584,-1.1006,-1.0549,-1.0138,-0.9784,-0.9524,-0.9323,-0.9113,-0.9061,-0.891,-0.8745,-0.8533,-0.8156,-0.7777,-0.7343,-0.6912,-0.6539,-0.6159,-0.5887,-0.5614,-0.5395,-0.5344,-0.5183,-0.506,-0.4901,-0.4695,-0.4605,-0.4601,-0.4622,-2.6467,-2.5884,-2.5869,-2.5764,-2.5615,-2.56,-2.5585,-2.56,-2.557,-2.551,-2.557,-2.56,-2.5525,-2.5615,-2.5764,-2.5869,-2.5929,-2.6078,-2.6123,-2.6123,-2.6123,-2.6722,-2.741,-2.761,-2.7645,-2.781,-2.7974,-2.8222,-2.8451,-2.8294,-2.8297,-2.8442,-2.7461,-2.7059,-2.7052,-2.6643,-2.6484,-2.6589,-2.6623,-2.5932,-2.4666,-2.4413,-2.3688,-2.2377,-2.2135,-2.2111,-2.2082,-2.1814,-2.1481,-2.1103,-2.0877,-2.0761,-2.0662,-2.0662,-2.0695,-2.0745,-2.0763,-2.0828,-2.0845,-2.0795,-2.0795,-2.0763,-2.0561,-2.0289,-2.0085,-1.9747,-1.9406,-1.9072,-1.8693,-1.8319,-1.8016,-1.7462,-1.6824,-1.5932,-1.52,-1.4633,-1.4487,-1.4379,-1.4302,-1.4346,-1.4307,-1.4198,-1.392,-1.3489,-1.2945,-1.251,-1.2037,-1.1528,-1.1015,-1.0616,-1.03,-0.9947,-0.9636,-0.942,-0.9211,-0.9061,-0.8903,-0.8752,-0.8533,-0.8256,-0.7777,-0.7354,-0.6977,-0.6652,-0.6431,-0.6213,-0.5996,-0.5887,-0.5618,-0.5348,-0.5128,-0.4959,-0.4743,-0.4664,-0.4612,-2.5794,-2.5211,-2.5196,-2.5031,-2.4792,-2.4762,-2.4762,-2.4762,-2.4762,-2.4762,-2.4762,-2.4762,-2.4762,-2.4792,-2.5061,-2.5196,-2.5179,-2.548,-2.5615,-2.563,-2.5659,-2.6213,-2.6946,-2.7205,-2.744,-2.7925,-2.8122,-2.8198,-2.8186,-2.8115,-2.8029,-2.7653,-2.7136,-2.6907,-2.6839,-2.6666,-2.6554,-2.6623,-2.6624,-2.5981,-2.4642,-2.4523,-2.368,-2.2615,-2.2254,-2.2225,-2.2168,-2.1961,-2.1678,-2.134,-2.1151,-2.1039,-2.1023,-2.1023,-2.1055,-2.1103,-2.1166,-2.123,-2.1276,-2.123,-2.1198,-2.1135,-2.0925,-2.0679,-2.0462,-2.017,-1.9839,-1.9566,-1.9199,-1.886,-1.8514,-1.7854,-1.7076,-1.6281,-1.5478,-1.4843,-1.4537,-1.4359,-1.4246,-1.4214,-1.419,-1.4086,-1.3805,-1.3445,-1.3049,-1.2682,-1.2282,-1.1863,-1.1477,-1.1124,-1.0769,-1.0454,-1.0043,-0.9732,-0.9517,-0.9368,-0.9166,-0.9008,-0.885,-0.8626,-0.8262,-0.7788,-0.7521,-0.7246,-0.7031,-0.6815,-0.6647,-0.6431,-0.6105,-0.5837,-0.5563,-0.5234,-0.4959,-0.4743,-0.4688,-2.5136,-2.4462,-2.4403,-2.4073,-2.3565,-2.343,-2.3415,-2.34,-2.34,-2.3475,-2.355,-2.352,-2.3684,-2.364,-2.4313,-2.4477,-2.4552,-2.4971,-2.5211,-2.5226,-2.5285,-2.563,-2.6261,-2.6597,-2.698,-2.7534,-2.8005,-2.7922,-2.7686,-2.7797,-2.7476,-2.6929,-2.6759,-2.6636,-2.6562,-2.6467,-2.6538,-2.6455,-2.6454,-2.5693,-2.4526,-2.4218,-2.3562,-2.2564,-2.2282,-2.2254,-2.2197,-2.2077,-2.1899,-2.168,-2.1481,-2.1371,-2.1371,-2.1371,-2.1402,-2.1448,-2.1556,-2.1617,-2.1678,-2.1617,-2.1603,-2.1526,-2.1309,-2.1087,-2.0844,-2.0597,-2.0308,-2.008,-1.9747,-1.9406,-1.8936,-1.8147,-1.7421,-1.6795,-1.6225,-1.5522,-1.481,-1.4575,-1.444,-1.4132,-1.4002,-1.3852,-1.3601,-1.3293,-1.2891,-1.284,-1.2478,-1.2203,-1.1877,-1.1528,-1.1276,-1.1015,-1.0549,-1.0087,-0.988,-0.9673,-0.9472,-0.9263,-0.9211,-0.8995,-0.8738,-0.8374,-0.8103,-0.7889,-0.7676,-0.7461,-0.73,-0.6972,-0.6647,-0.6268,-0.6055,-0.5559,-0.512,-0.4959,-0.4798,-2.4433,-2.3774,-2.3295,-2.3011,-2.2802,-2.2338,-2.2128,-2.2143,-2.2143,-2.2473,-2.2787,-2.2877,-2.3146,-2.3595,-2.3744,-2.3834,-2.3864,-2.4073,-2.4029,-2.4014,-2.4044,-2.4477,-2.5167,-2.5726,-2.6181,-2.6533,-2.6658,-2.6884,-2.6948,-2.6772,-2.6573,-2.6557,-2.62,-2.6065,-2.6272,-2.6332,-2.6235,-2.5882,-2.583,-2.5101,-2.4002,-2.368,-2.3257,-2.2395,-2.2327,-2.2299,-2.2282,-2.2197,-2.214,-2.2036,-2.1886,-2.1751,-2.1691,-2.1691,-2.1721,-2.1781,-2.1811,-2.1869,-2.1911,-2.1899,-2.184,-2.1811,-2.1617,-2.1402,-2.1261,-2.0958,-2.0712,-2.0478,-2.0208,-1.9803,-1.9199,-1.8539,-1.7935,-1.7421,-1.6921,-1.6411,-1.5836,-1.512,-1.457,-1.419,-1.401,-1.3834,-1.3545,-1.3466,-1.319,-1.292,-1.2725,-1.2578,-1.2283,-1.1927,-1.1728,-1.1469,-1.1065,-1.06,-1.0344,-1.0087,-0.9836,-0.9681,-0.9577,-0.9517,-0.9263,-0.9008,-0.8791,-0.8527,-0.8315,-0.8103,-0.7889,-0.7574,-0.7192,-0.6869,-0.649,-0.5996,-0.5559,-0.5289,-0.4908,-2.3325,-2.2682,-2.2338,-2.2218,-2.2173,-2.1859,-2.1695,-2.1695,-2.1695,-2.1889,-2.2158,-2.2218,-2.2577,-2.3161,-2.3176,-2.3295,-2.355,-2.3595,-2.361,-2.364,-2.3683,-2.3964,-2.4264,-2.4879,-2.5377,-2.5955,-2.6349,-2.6417,-2.619,-2.6115,-2.6045,-2.5995,-2.5751,-2.593,-2.6052,-2.603,-2.5799,-2.5512,-2.5188,-2.4509,-2.3579,-2.3376,-2.3054,-2.2462,-2.2327,-2.2327,-2.2299,-2.2271,-2.2282,-2.2254,-2.2192,-2.2044,-2.1957,-2.1957,-2.2003,-2.2077,-2.2135,-2.2175,-2.2203,-2.2175,-2.2118,-2.2118,-2.1915,-2.1781,-2.1631,-2.1401,-2.1198,-2.0974,-2.0697,-2.0311,-1.9617,-1.9049,-1.8525,-1.8068,-1.7571,-1.7118,-1.6595,-1.5712,-1.4915,-1.4569,-1.4417,-1.4172,-1.3905,-1.3752,-1.3515,-1.3238,-1.3045,-1.29,-1.2686,-1.2382,-1.2184,-1.1927,-1.1578,-1.1167,-1.0863,-1.0557,-1.0249,-1.0146,-1.0095,-1.0043,-0.994,-0.9732,-0.948,-0.9159,-0.8844,-0.8692,-0.8427,-0.8109,-0.7735,-0.7354,-0.6918,-0.6376,-0.5891,-0.5508,-0.5073,-2.2203,-2.168,-2.159,-2.1545,-2.153,-2.141,-2.1291,-2.1335,-2.1395,-2.135,-2.1545,-2.1545,-2.1904,-2.2413,-2.2517,-2.2892,-2.334,-2.361,-2.361,-2.3653,-2.3782,-2.3927,-2.4104,-2.4453,-2.4948,-2.5935,-2.596,-2.5796,-2.5586,-2.5613,-2.5527,-2.5358,-2.5368,-2.5566,-2.5735,-2.5429,-2.5061,-2.4873,-2.4512,-2.3951,-2.3274,-2.3139,-2.2818,-2.2462,-2.2327,-2.2327,-2.2327,-2.231,-2.2338,-2.2405,-2.2449,-2.2304,-2.2203,-2.2175,-2.2276,-2.2321,-2.2377,-2.2432,-2.2497,-2.247,-2.2443,-2.246,-2.226,-2.2101,-2.1986,-2.184,-2.1631,-2.1386,-2.1119,-2.0763,-2.015,-1.966,-1.9207,-1.8793,-1.8302,-1.7841,-1.7284,-1.6398,-1.5832,-1.5232,-1.4971,-1.4686,-1.4419,-1.4233,-1.3894,-1.361,-1.3409,-1.3218,-1.3007,-1.2783,-1.2578,-1.2382,-1.2026,-1.1628,-1.1267,-1.1015,-1.071,-1.0667,-1.0616,-1.0608,-1.0608,-1.0454,-1.019,-0.9681,-0.9368,-0.9159,-0.8903,-0.8533,-0.8156,-0.7777,-0.7348,-0.681,-0.6268,-0.5727,-0.5293,-2.1799,-2.165,-2.1096,-2.0872,-2.0782,-2.0288,-2.0094,-2.0019,-2.0124,-2.0363,-2.0842,-2.0887,-2.1231,-2.1724,-2.1859,-2.2218,-2.2802,-2.3161,-2.3531,-2.3631,-2.3758,-2.3884,-2.4138,-2.4327,-2.4745,-2.4895,-2.4994,-2.4932,-2.4885,-2.4811,-2.5012,-2.5051,-2.4906,-2.4938,-2.4923,-2.463,-2.419,-2.3964,-2.3684,-2.3224,-2.2767,-2.2598,-2.2564,-2.231,-2.231,-2.2338,-2.2377,-2.2377,-2.2405,-2.2487,-2.2542,-2.2525,-2.2508,-2.247,-2.2515,-2.2542,-2.2596,-2.2632,-2.2738,-2.2747,-2.2738,-2.2712,-2.2632,-2.2525,-2.2398,-2.2243,-2.2027,-2.1764,-2.1448,-2.1039,-2.0679,-2.0277,-1.9879,-1.9485,-1.9095,-1.8655,-1.8187,-1.7571,-1.6854,-1.6194,-1.5712,-1.5277,-1.5006,-1.4731,-1.4455,-1.4165,-1.3894,-1.3658,-1.3382,-1.3152,-1.2958,-1.2764,-1.2529,-1.2126,-1.1678,-1.1418,-1.1167,-1.1175,-1.1175,-1.1167,-1.1167,-1.1167,-1.0854,-1.0344,-0.988,-0.9562,-0.9256,-0.8896,-0.8527,-0.815,-0.767,-0.7192,-0.6593,-0.6,-0.5508,-2.0976,-2.0632,-2.0303,-2.0183,-2.0124,-1.9839,-1.9705,-1.9705,-1.9705,-1.9869,-2.0109,-2.0213,-2.0557,-2.1036,-2.1186,-2.1545,-2.2128,-2.2495,-2.2757,-2.2894,-2.3071,-2.3486,-2.3958,-2.4257,-2.4705,-2.4839,-2.4689,-2.4492,-2.471,-2.4822,-2.4689,-2.4589,-2.4519,-2.4498,-2.4264,-2.3865,-2.3569,-2.324,-2.3009,-2.2699,-2.2344,-2.2338,-2.2366,-2.2366,-2.2377,-2.2405,-2.2432,-2.2487,-2.2569,-2.2632,-2.2729,-2.279,-2.2825,-2.285,-2.2842,-2.279,-2.2816,-2.2876,-2.2977,-2.3028,-2.307,-2.3045,-2.297,-2.2893,-2.279,-2.2624,-2.2392,-2.2141,-2.1823,-2.1432,-2.1166,-2.0893,-2.0548,-2.0174,-1.9823,-1.9406,-1.8959,-1.8539,-1.7854,-1.7089,-1.6539,-1.6064,-1.5591,-1.5322,-1.4994,-1.4674,-1.4408,-1.4082,-1.381,-1.3631,-1.344,-1.3152,-1.2958,-1.2569,-1.2166,-1.1868,-1.1669,-1.1678,-1.1678,-1.1669,-1.1669,-1.1619,-1.1418,-1.1015,-1.0549,-1.0079,-0.9614,-0.9256,-0.8837,-0.8421,-0.7883,-0.7295,-0.681,-0.6322,-0.5778,-2.0183,-1.9705,-1.9705,-1.9705,-1.9705,-1.9705,-1.9705,-1.9705,-1.9705,-1.9705,-1.9705,-1.9735,-2.0019,-2.0438,-2.0722,-2.1036,-2.1539,-2.1762,-2.2046,-2.2271,-2.2501,-2.2945,-2.3469,-2.3936,-2.4349,-2.4595,-2.4418,-2.4367,-2.453,-2.4483,-2.4274,-2.4063,-2.4175,-2.4061,-2.3637,-2.3195,-2.3066,-2.287,-2.2625,-2.2327,-2.2338,-2.2366,-2.2405,-2.2432,-2.2487,-2.2542,-2.2623,-2.2632,-2.2764,-2.2868,-2.297,-2.3045,-2.3126,-2.3241,-2.3217,-2.3119,-2.3144,-2.3175,-2.3271,-2.3319,-2.3383,-2.3342,-2.3289,-2.3217,-2.3095,-2.2927,-2.2721,-2.248,-2.2203,-2.1911,-2.1658,-2.1462,-2.1182,-2.0845,-2.0481,-2.0104,-1.9645,-1.9207,-1.8769,-1.8054,-1.738,-1.6795,-1.6355,-1.5944,-1.5623,-1.5266,-1.4994,-1.4686,-1.4408,-1.4197,-1.3962,-1.3621,-1.3324,-1.2939,-1.2598,-1.2363,-1.2215,-1.2175,-1.2126,-1.2067,-1.2076,-1.2026,-1.1778,-1.1477,-1.1065,-1.06,-1.0079,-0.951,-0.9047,-0.8573,-0.799,-0.7456,-0.6972,-0.6431,-0.5887,-1.975,-1.9705,-1.9705,-1.9705,-1.9705,-1.9705,-1.9705,-1.9705,-1.9705,-1.9705,-1.9705,-1.9705,-1.975,-1.9959,-2.0453,-2.0745,-2.1046,-2.1462,-2.185,-2.2046,-2.2389,-2.2722,-2.3175,-2.3576,-2.3844,-2.4125,-2.3895,-2.3997,-2.4124,-2.3783,-2.3526,-2.3442,-2.3258,-2.2979,-2.3021,-2.2672,-2.2348,-2.2417,-2.235,-2.2338,-2.2394,-2.2422,-2.2487,-2.2552,-2.2605,-2.2703,-2.2816,-2.285,-2.297,-2.3144,-2.3217,-2.3289,-2.336,-2.3499,-2.3571,-2.3544,-2.3499,-2.3453,-2.3589,-2.3634,-2.3656,-2.3634,-2.3611,-2.3522,-2.336,-2.3144,-2.2927,-2.2773,-2.2535,-2.2343,-2.2096,-2.1924,-2.1705,-2.1385,-2.1055,-2.0665,-2.028,-1.9823,-1.9391,-1.8997,-1.8277,-1.768,-1.7133,-1.6697,-1.625,-1.5888,-1.5579,-1.5277,-1.4971,-1.4754,-1.4477,-1.4129,-1.3752,-1.342,-1.3132,-1.2852,-1.2706,-1.2666,-1.2578,-1.2471,-1.2421,-1.2382,-1.2184,-1.1877,-1.1469,-1.0964,-1.0344,-0.9777,-0.9204,-0.8732,-0.8203,-0.767,-0.7139,-0.6593,-0.5996,-1.9705,-1.9705,-1.9705,-1.9705,-1.9705,-1.9705,-1.9705,-1.9705,-1.9705,-1.9705,-1.9705,-1.9705,-1.9705,-1.9779,-2.0034,-2.016,-2.033,-2.0764,-2.1059,-2.1459,-2.179,-2.2191,-2.275,-2.3145,-2.3407,-2.3719,-2.3603,-2.3389,-2.349,-2.3534,-2.3385,-2.2948,-2.2881,-2.2723,-2.2562,-2.2308,-2.2276,-2.2316,-2.2338,-2.2377,-2.246,-2.2542,-2.2632,-2.2747,-2.2816,-2.2919,-2.3045,-2.3102,-2.3223,-2.3389,-2.3499,-2.3799,-2.4177,-2.4392,-2.4476,-2.4541,-2.452,-2.4281,-2.3922,-2.3871,-2.3852,-2.3852,-2.3831,-2.3725,-2.3567,-2.3383,-2.3193,-2.3077,-2.2868,-2.2668,-2.249,-2.2326,-2.2084,-2.1807,-2.1538,-2.1197,-2.0829,-2.0398,-2.0,-1.9609,-1.9184,-1.8574,-1.7973,-1.7517,-1.7034,-1.6612,-1.6225,-1.5932,-1.5591,-1.5255,-1.4926,-1.4593,-1.4269,-1.3905,-1.3621,-1.3382,-1.318,-1.3094,-1.2929,-1.2822,-1.2774,-1.2676,-1.248,-1.2184,-1.1778,-1.1217,-1.0557,-0.9984,-0.9413,-0.889,-0.8421,-0.7889,-0.7354,-0.6707,-0.5996,-1.9705,-1.9705,-1.9705,-1.9705,-1.9705,-1.9705,-1.9705,-1.9705,-1.9705,-1.9705,-1.9705,-1.9705,-1.9705,-1.9741,-1.9756,-1.9873,-1.9935,-2.008,-2.0376,-2.0695,-2.1086,-2.1697,-2.2259,-2.2659,-2.3045,-2.3706,-2.3073,-2.2889,-2.2962,-2.3038,-2.2897,-2.2486,-2.2637,-2.2525,-2.2245,-2.2197,-2.2254,-2.2321,-2.2377,-2.2487,-2.2596,-2.2668,-2.2825,-2.297,-2.307,-2.3168,-2.3313,-2.3383,-2.3481,-2.3638,-2.3725,-2.4115,-2.4798,-2.5014,-2.5296,-2.5468,-2.5619,-2.5252,-2.4644,-2.4257,-2.4091,-2.4016,-2.3937,-2.3852,-2.3725,-2.3549,-2.343,-2.3336,-2.3144,-2.2952,-2.2799,-2.2659,-2.2426,-2.2158,-2.1928,-2.1645,-2.1308,-2.0878,-2.0481,-2.0104,-1.9752,-1.9479,-1.8893,-1.8355,-1.7841,-1.7325,-1.6951,-1.6582,-1.6207,-1.5824,-1.5501,-1.5175,-1.4869,-1.4501,-1.4222,-1.3941,-1.3742,-1.3467,-1.3344,-1.3162,-1.3113,-1.292,-1.2686,-1.2382,-1.2026,-1.1569,-1.1015,-1.0293,-0.9562,-0.9099,-0.858,-0.8109,-0.7515,-0.6815,-0.6,-1.9705,-1.9705,-1.9705,-1.9705,-1.9705,-1.9705,-1.9705,-1.9705,-1.9705,-1.9705,-1.9705,-1.9705,-1.9705,-1.9741,-1.9777,-1.9904,-2.008,-2.0357,-2.0662,-2.1023,-2.1404,-2.1669,-2.1983,-2.2212,-2.2358,-2.2488,-2.2449,-2.2404,-2.232,-2.2509,-2.2304,-2.2099,-2.2362,-2.2286,-2.2242,-2.2265,-2.2338,-2.2405,-2.2487,-2.2605,-2.2764,-2.2876,-2.3003,-2.3217,-2.3289,-2.3407,-2.3634,-2.3638,-2.3725,-2.3873,-2.3955,-2.4527,-2.5303,-2.5571,-2.5926,-2.652,-2.6709,-2.6283,-2.5615,-2.4781,-2.4244,-2.4112,-2.4016,-2.3955,-2.3834,-2.3732,-2.3602,-2.3499,-2.3336,-2.3193,-2.3045,-2.2876,-2.2642,-2.2426,-2.2175,-2.1928,-2.1631,-2.1355,-2.0958,-2.0614,-2.0311,-2.0,-1.9752,-1.9214,-1.8602,-1.808,-1.7544,-1.7186,-1.6765,-1.638,-1.6107,-1.5788,-1.549,-1.513,-1.4858,-1.4582,-1.4212,-1.3931,-1.3716,-1.3525,-1.3372,-1.32,-1.292,-1.2627,-1.2323,-1.1927,-1.1418,-1.0702,-0.9984,-0.9309,-0.8738,-0.8209,-0.7515,-0.6756,-0.5891,-1.9705,-1.9705,-1.9705,-1.9705,-1.9705,-1.9705,-1.9705,-1.9705,-1.9705,-1.9705,-1.9705,-1.9705,-1.9705,-1.9726,-1.9797,-1.9904,-2.0115,-2.0376,-2.0761,-2.1087,-2.1419,-2.1678,-2.1873,-2.2065,-2.2214,-2.2271,-2.2254,-2.2254,-2.2288,-2.2282,-2.2293,-2.2293,-2.2293,-2.2293,-2.2321,-2.2377,-2.246,-2.2542,-2.2632,-2.2773,-2.297,-2.3119,-2.3289,-2.3522,-2.3544,-2.3638,-2.3771,-2.3873,-2.3955,-2.4056,-2.4134,-2.4946,-2.5927,-2.6228,-2.6823,-2.7568,-2.7755,-2.7326,-2.6525,-2.5597,-2.4856,-2.4227,-2.4095,-2.4036,-2.3937,-2.3837,-2.3753,-2.3642,-2.3504,-2.3383,-2.3241,-2.3028,-2.2825,-2.2605,-2.2388,-2.2175,-2.1899,-2.1648,-2.1402,-2.1023,-2.0795,-2.0514,-2.0277,-2.0019,-1.9413,-1.8808,-1.8279,-1.7774,-1.7393,-1.7018,-1.6752,-1.6398,-1.6095,-1.5712,-1.5445,-1.504,-1.4686,-1.4408,-1.4129,-1.3941,-1.3752,-1.3409,-1.318,-1.29,-1.2578,-1.2175,-1.1669,-1.1015,-1.0344,-0.9621,-0.8942,-0.8368,-0.7563,-0.675,-0.5941,-1.9705,-1.9705,-1.9705,-1.9705,-1.9705,-1.9705,-1.9705,-1.9705,-1.9705,-1.9705,-1.9705,-1.9705,-1.9726,-1.9762,-1.9869,-2.0045,-2.0273,-2.0579,-2.0877,-2.1246,-2.1573,-2.1784,-2.1991,-2.2123,-2.2254,-2.231,-2.231,-2.2338,-2.2338,-2.2377,-2.2415,-2.246,-2.2487,-2.2515,-2.247,-2.2542,-2.2605,-2.2685,-2.2842,-2.2977,-2.3193,-2.336,-2.3481,-2.3703,-2.3725,-2.3831,-2.3955,-2.4036,-2.4132,-2.4228,-2.4487,-2.5264,-2.6265,-2.714,-2.7679,-2.8333,-2.8669,-2.8386,-2.751,-2.6284,-2.5356,-2.48,-2.4264,-2.4169,-2.4074,-2.3976,-2.3896,-2.3774,-2.3642,-2.3522,-2.3383,-2.3193,-2.2977,-2.2747,-2.2552,-2.236,-2.2118,-2.1886,-2.1708,-2.1448,-2.123,-2.1007,-2.0745,-2.0429,-1.9859,-1.9281,-1.8822,-1.8358,-1.8002,-1.7666,-1.7393,-1.7047,-1.671,-1.6324,-1.5988,-1.5623,-1.5266,-1.4994,-1.4674,-1.4373,-1.4093,-1.38,-1.3457,-1.3132,-1.2803,-1.2421,-1.1918,-1.1318,-1.0651,-0.988,-0.9152,-0.8368,-0.7723,-0.6912,-0.6268,-1.9705,-1.9705,-1.9705,-1.9705,-1.9705,-1.9705,-1.9705,-1.9705,-1.9705,-1.9705,-1.9726,-1.9726,-1.9762,-1.9833,-1.9975,-2.022,-2.0494,-2.0827,-2.1199,-2.1511,-2.1738,-2.1991,-2.2123,-2.2254,-2.2282,-2.2293,-2.2349,-2.2394,-2.2422,-2.2487,-2.2525,-2.2632,-2.2712,-2.2738,-2.2632,-2.2659,-2.2764,-2.2893,-2.3045,-2.3217,-2.3407,-2.3567,-2.3703,-2.3813,-2.3876,-2.3996,-2.4095,-2.419,-2.4284,-2.4375,-2.4462,-2.5385,-2.68,-2.718,-2.8053,-2.95,-2.9685,-2.9347,-2.8563,-2.6728,-2.5894,-2.5428,-2.4909,-2.4429,-2.4224,-2.411,-2.4016,-2.3858,-2.3792,-2.3682,-2.3526,-2.3336,-2.3144,-2.2919,-2.2685,-2.2497,-2.226,-2.2106,-2.1903,-2.1784,-2.1634,-2.145,-2.1167,-2.0794,-2.0258,-1.9752,-1.931,-1.8936,-1.8577,-1.8279,-1.8002,-1.7679,-1.7338,-1.6964,-1.6625,-1.6238,-1.5888,-1.5579,-1.522,-1.4915,-1.4512,-1.414,-1.381,-1.3467,-1.3084,-1.2706,-1.2215,-1.1719,-1.0854,-0.9984,-0.9099,-0.8315,-0.7723,-0.7182,-0.6588,-1.9705,-1.9705,-1.9705,-1.9705,-1.9705,-1.9705,-1.9705,-1.9705,-1.9705,-1.9705,-1.9726,-1.9762,-1.9777,-1.9884,-2.008,-2.0323,-2.0561,-2.0925,-2.1294,-2.1603,-2.1811,-2.2003,-2.2152,-2.2282,-2.2321,-2.2349,-2.2377,-2.246,-2.2542,-2.2605,-2.2712,-2.2799,-2.3003,-2.3045,-2.2995,-2.2995,-2.3095,-2.3168,-2.3295,-2.3435,-2.3598,-2.3707,-2.3834,-2.3996,-2.4056,-2.4134,-2.4266,-2.434,-2.4429,-2.4532,-2.4613,-2.5496,-2.6871,-2.732,-2.8264,-2.9604,-3.0019,-2.9861,-2.9238,-2.8126,-2.714,-2.6431,-2.5612,-2.5056,-2.4961,-2.4351,-2.4147,-2.3978,-2.3876,-2.375,-2.3634,-2.3407,-2.3193,-2.2919,-2.2712,-2.2525,-2.236,-2.2209,-2.2082,-2.2007,-2.1919,-2.1694,-2.1433,-2.123,-2.073,-2.0345,-1.9965,-1.9551,-1.9184,-1.8846,-1.8539,-1.8279,-1.7948,-1.7625,-1.7256,-1.6879,-1.6454,-1.6095,-1.5744,-1.54,-1.5006,-1.4558,-1.415,-1.3716,-1.3324,-1.2939,-1.2363,-1.1719,-1.0913,-1.0043,-0.9263,-0.8633,-0.815,-0.7616,-0.6972,-1.9346,-1.9375,-1.96,-1.9705,-1.9705,-1.9705,-1.9705,-1.9705,-1.9705,-1.9741,-1.9741,-1.9797,-1.9869,-2.0025,-2.0254,-2.0527,-2.0728,-2.1103,-2.1402,-2.1694,-2.1903,-2.2094,-2.2225,-2.231,-2.2349,-2.2405,-2.2487,-2.2569,-2.2659,-2.279,-2.2927,-2.3126,-2.3295,-2.3365,-2.3342,-2.336,-2.3336,-2.343,-2.3526,-2.362,-2.3771,-2.3896,-2.3978,-2.4113,-2.4228,-2.4321,-2.4393,-2.4481,-2.4582,-2.466,-2.496,-2.5536,-2.6645,-2.7547,-2.8297,-2.9317,-3.0013,-2.9973,-2.9677,-2.9284,-2.839,-2.7884,-2.6651,-2.5812,-2.5478,-2.4904,-2.4424,-2.4182,-2.3992,-2.3834,-2.3725,-2.3481,-2.3289,-2.3045,-2.2842,-2.2659,-2.247,-2.2349,-2.2225,-2.2168,-2.2111,-2.1919,-2.1708,-2.1526,-2.1198,-2.0926,-2.0614,-2.0208,-1.9803,-1.9406,-1.9035,-1.8769,-1.85,-1.8108,-1.7787,-1.7462,-1.7034,-1.6667,-1.6269,-1.5876,-1.5355,-1.4915,-1.4466,-1.3999,-1.3563,-1.3035,-1.2412,-1.1678,-1.1023,-1.0352,-0.9629,-0.9047,-0.8573,-0.7937,-0.7295,-1.8672,-1.8777,-1.9361,-1.957,-1.9585,-1.954,-1.963,-1.969,-1.9726,-1.9762,-1.9797,-1.9833,-2.001,-2.027,-2.046,-2.0728,-2.1055,-2.1435,-2.1664,-2.1903,-2.2065,-2.2197,-2.2282,-2.2366,-2.2405,-2.2487,-2.2579,-2.2712,-2.2825,-2.3052,-2.3289,-2.3453,-2.3611,-2.366,-2.366,-2.3616,-2.3594,-2.366,-2.3707,-2.3813,-2.3917,-2.4074,-2.4133,-2.4247,-2.434,-2.4429,-2.4497,-2.458,-2.4692,-2.4764,-2.4922,-2.5549,-2.6346,-2.7243,-2.8115,-2.9028,-2.9888,-3.0047,-3.0003,-2.9652,-2.9476,-2.8857,-2.7786,-2.6591,-2.5884,-2.5623,-2.5124,-2.4626,-2.4326,-2.4044,-2.3831,-2.3638,-2.3494,-2.3241,-2.302,-2.2816,-2.2605,-2.246,-2.2338,-2.2254,-2.2214,-2.2082,-2.1932,-2.1738,-2.1556,-2.1417,-2.1119,-2.0828,-2.0395,-1.9874,-1.9551,-1.9207,-1.8907,-1.8577,-1.8266,-1.7948,-1.7585,-1.716,-1.671,-1.6324,-1.5788,-1.5266,-1.4777,-1.4269,-1.3752,-1.3132,-1.2461,-1.1877,-1.1326,-1.0608,-0.994,-0.9316,-0.8738,-0.8043,-0.7402,-1.7999,-1.8029,-1.8223,-1.8298,-1.8358,-1.8792,-1.9241,-1.9681,-1.9762,-1.9812,-1.9797,-2.0061,-2.022,-2.0392,-2.0646,-2.0942,-2.1246,-2.1542,-2.1768,-2.1991,-2.2168,-2.2242,-2.231,-2.2394,-2.2432,-2.2552,-2.2712,-2.2893,-2.3102,-2.3342,-2.3508,-2.3664,-2.3789,-2.3873,-2.3894,-2.3873,-2.3852,-2.3834,-2.3896,-2.3958,-2.4056,-2.419,-2.4247,-2.4339,-2.4428,-2.453,-2.4645,-2.4704,-2.4808,-2.4915,-2.4987,-2.5501,-2.6434,-2.7347,-2.8284,-2.9743,-3.0157,-3.0199,-3.0053,-2.9907,-2.968,-2.9438,-2.8736,-2.8202,-2.7359,-2.6542,-2.5933,-2.5342,-2.4935,-2.4725,-2.4257,-2.3963,-2.3674,-2.3354,-2.3137,-2.2876,-2.2642,-2.2497,-2.2377,-2.2282,-2.2242,-2.2214,-2.2094,-2.1961,-2.1797,-2.1768,-2.1617,-2.1324,-2.0958,-2.0462,-2.0015,-1.9681,-1.9369,-1.9049,-1.8784,-1.8475,-1.8068,-1.7666,-1.7214,-1.671,-1.6182,-1.5656,-1.5142,-1.4547,-1.3941,-1.3238,-1.2569,-1.2026,-1.1628,-1.0972,-1.0257,-0.9584,-0.8903,-0.8262,-0.7509,-1.7309,-1.7339,-1.7593,-1.7682,-1.7757,-1.8115,-1.8568,-1.8976,-1.9557,-1.9833,-1.994,-2.022,-2.0426,-2.0646,-2.0942,-2.1198,-2.1464,-2.1708,-2.1945,-2.2094,-2.2197,-2.2282,-2.2338,-2.2432,-2.2552,-2.2685,-2.2893,-2.3119,-2.3342,-2.3594,-2.3789,-2.3834,-2.3955,-2.3996,-2.4016,-2.4054,-2.4056,-2.4056,-2.4075,-2.4133,-2.419,-2.4284,-2.4376,-2.4446,-2.4547,-2.4676,-2.4768,-2.4837,-2.4929,-2.505,-2.5137,-2.5344,-2.6098,-2.6814,-2.7727,-2.8912,-2.9098,-2.9033,-2.8941,-2.9223,-2.9189,-2.9195,-2.9204,-2.8947,-2.8341,-2.7558,-2.6762,-2.6041,-2.5798,-2.5479,-2.4844,-2.4284,-2.3867,-2.346,-2.3186,-2.2902,-2.2721,-2.2542,-2.2405,-2.2293,-2.2282,-2.2282,-2.2209,-2.2106,-2.2061,-2.2061,-2.1974,-2.1764,-2.1385,-2.0942,-2.0514,-2.0154,-1.9818,-1.9523,-1.9213,-1.8912,-1.8514,-1.8068,-1.7625,-1.7118,-1.6612,-1.6008,-1.54,-1.4731,-1.4046,-1.343,-1.289,-1.2461,-1.2017,-1.1318,-1.0565,-0.9888,-0.9159,-0.8474,-0.7723,-1.6637,-1.6682,-1.7279,-1.746,-1.7533,-1.7595,-1.7687,-1.7889,-1.9049,-1.9788,-1.9997,-2.0345,-2.0646,-2.0942,-2.1198,-2.1448,-2.1708,-2.1915,-2.2049,-2.2197,-2.2254,-2.231,-2.2422,-2.2542,-2.2632,-2.2842,-2.3052,-2.3271,-2.3549,-2.3789,-2.3953,-2.4034,-2.4056,-2.4094,-2.4113,-2.4152,-2.4153,-2.4154,-2.4191,-2.4247,-2.4284,-2.4393,-2.4515,-2.4564,-2.4692,-2.4832,-2.4898,-2.4974,-2.5063,-2.5149,-2.5214,-2.5236,-2.5757,-2.6181,-2.7071,-2.7654,-2.8083,-2.809,-2.815,-2.8362,-2.8542,-2.867,-2.8872,-2.9029,-2.8648,-2.8294,-2.757,-2.6906,-2.6588,-2.5923,-2.5272,-2.4802,-2.4374,-2.3772,-2.3313,-2.3028,-2.279,-2.2579,-2.2405,-2.2321,-2.2321,-2.2338,-2.2349,-2.2276,-2.2332,-2.2332,-2.2315,-2.2141,-2.1895,-2.1491,-2.1055,-2.0614,-2.0239,-1.9904,-1.9545,-1.925,-1.8874,-1.8475,-1.8028,-1.7544,-1.6964,-1.6312,-1.5623,-1.504,-1.4408,-1.3884,-1.3314,-1.288,-1.2353,-1.1619,-1.0913,-1.019,-0.9465,-0.8732,-0.7883,-1.6009,-1.6009,-1.6174,-1.6263,-1.6308,-1.6741,-1.7013,-1.7212,-1.8078,-1.891,-1.9615,-2.0363,-2.0942,-2.1214,-2.1464,-2.1708,-2.1928,-2.2049,-2.218,-2.2254,-2.231,-2.2366,-2.2449,-2.2596,-2.2694,-2.2902,-2.3151,-2.3458,-2.3707,-2.3935,-2.4054,-2.4074,-2.4133,-2.4152,-2.4152,-2.4209,-2.421,-2.4229,-2.4339,-2.4393,-2.4446,-2.4479,-2.4564,-2.4692,-2.4832,-2.495,-2.5012,-2.5076,-2.5118,-2.5195,-2.5206,-2.5554,-2.617,-2.6373,-2.6899,-2.7527,-2.7515,-2.7408,-2.7439,-2.759,-2.7865,-2.8229,-2.8521,-2.8835,-2.8915,-2.8798,-2.8448,-2.7842,-2.7215,-2.6497,-2.5774,-2.5321,-2.4773,-2.4087,-2.343,-2.3151,-2.2868,-2.2632,-2.2432,-2.2377,-2.2377,-2.2405,-2.2443,-2.2525,-2.2552,-2.2605,-2.2642,-2.2598,-2.249,-2.2181,-2.1655,-2.1197,-2.063,-2.0239,-1.9925,-1.9545,-1.9213,-1.8798,-1.8319,-1.7828,-1.731,-1.6625,-1.5888,-1.54,-1.4858,-1.434,-1.3873,-1.3362,-1.2774,-1.1999,-1.1318,-1.06,-0.9777,-0.8995,-0.8143,-1.5814,-1.5814,-1.5814,-1.5814,-1.5873,-1.6203,-1.6413,-1.6711,-1.7454,-1.8174,-1.8856,-1.9955,-2.0813,-2.1368,-2.1678,-2.1886,-2.2089,-2.218,-2.2282,-2.2338,-2.2366,-2.2449,-2.2542,-2.2676,-2.2893,-2.3095,-2.3417,-2.3707,-2.3896,-2.4036,-2.4151,-2.4133,-2.419,-2.4209,-2.4209,-2.4229,-2.4284,-2.4358,-2.4464,-2.4549,-2.4617,-2.4663,-2.4692,-2.4832,-2.4931,-2.5031,-2.5095,-2.5125,-2.5172,-2.5187,-2.5206,-2.5313,-2.5688,-2.5822,-2.6079,-2.6355,-2.6477,-2.6541,-2.6613,-2.6852,-2.7129,-2.7466,-2.8218,-2.8559,-2.8703,-2.8614,-2.8964,-2.8445,-2.8338,-2.7688,-2.649,-2.5856,-2.4904,-2.4114,-2.3583,-2.3199,-2.2876,-2.2605,-2.2487,-2.246,-2.2487,-2.2569,-2.2605,-2.2694,-2.2773,-2.2902,-2.2952,-2.2977,-2.2902,-2.2782,-2.2258,-2.1757,-2.1228,-2.0663,-2.0289,-1.9904,-1.9508,-1.9049,-1.8592,-1.8028,-1.7503,-1.6795,-1.6163,-1.58,-1.54,-1.4937,-1.4422,-1.3967,-1.3208,-1.2433,-1.1751,-1.1065,-1.0182,-0.9302,-0.8408,-1.577,-1.577,-1.5799,-1.5799,-1.5827,-1.5886,-1.6,-1.6246,-1.7008,-1.759,-1.8083,-1.9244,-2.04,-2.1272,-2.1857,-2.2065,-2.218,-2.2293,-2.2366,-2.2422,-2.2432,-2.2525,-2.2685,-2.2868,-2.3077,-2.3348,-2.3685,-2.3894,-2.4074,-2.4151,-2.419,-2.4209,-2.4191,-2.421,-2.4229,-2.4303,-2.4375,-2.4481,-2.4582,-2.4645,-2.4742,-2.4836,-2.4861,-2.4945,-2.5025,-2.5107,-2.5156,-2.516,-2.5195,-2.5195,-2.5195,-2.5252,-2.5302,-2.5417,-2.5386,-2.5558,-2.56,-2.552,-2.5473,-2.5926,-2.614,-2.654,-2.757,-2.8108,-2.8241,-2.8572,-2.8894,-2.9064,-2.8979,-2.8338,-2.712,-2.6133,-2.5165,-2.4162,-2.3664,-2.3247,-2.2927,-2.2659,-2.2605,-2.2552,-2.2632,-2.2729,-2.2816,-2.2902,-2.3028,-2.3175,-2.3271,-2.3271,-2.3247,-2.3109,-2.2832,-2.2351,-2.1857,-2.1305,-2.0697,-2.022,-1.9818,-1.9384,-1.8936,-1.8305,-1.7707,-1.7173,-1.6723,-1.6392,-1.5988,-1.5567,-1.5073,-1.4582,-1.3768,-1.2948,-1.2276,-1.1601,-1.06,-0.9718,-0.8771,-1.558,-1.5639,-1.5756,-1.5827,-1.5856,-1.59,-1.6013,-1.6194,-1.6483,-1.7074,-1.785,-1.8399,-1.9449,-2.0981,-2.1905,-2.2265,-2.2349,-2.2432,-2.246,-2.2487,-2.2552,-2.2659,-2.2825,-2.3035,-2.3301,-2.3558,-2.3795,-2.3955,-2.4113,-2.417,-2.419,-2.421,-2.421,-2.4266,-2.4358,-2.4429,-2.4498,-2.4599,-2.4676,-2.4783,-2.4851,-2.4907,-2.4966,-2.5032,-2.5125,-2.518,-2.5203,-2.5149,-2.5137,-2.5125,-2.5118,-2.516,-2.5203,-2.5195,-2.5206,-2.5206,-2.5209,-2.519,-2.5329,-2.547,-2.5666,-2.6078,-2.6953,-2.7355,-2.7635,-2.8185,-2.8556,-2.8977,-2.8746,-2.808,-2.7096,-2.6454,-2.5557,-2.435,-2.3576,-2.3301,-2.3028,-2.2902,-2.2842,-2.2842,-2.2868,-2.2995,-2.3126,-2.3247,-2.3365,-2.3486,-2.358,-2.358,-2.3602,-2.3468,-2.3348,-2.289,-2.2441,-2.1799,-2.1134,-2.0613,-2.017,-1.9711,-1.9236,-1.8616,-1.8068,-1.7679,-1.7269,-1.6934,-1.6637,-1.6269,-1.5788,-1.5175,-1.4468,-1.3663,-1.2948,-1.212,-1.1082,-1.0123,-0.9183]}]]